[[{"header":{"parameterUnit":"m.s-1","parameterCategory":1,"la1":30.6,"la2":28.766,"lo1":-90.7593,"lo2":-88.6598,"dy":0.0162,"dx":0.0183,"nx":116,"ny":114,"refTime":"2023-10-20T06:00:00:Z","depth":0,"parameterNumber":2,"parameterNumberName":"U-component_of_WINDS"},"data":[0.0,0.0,0.0,0.0,0.0,0.0,0.0,0.0,0.0,0.0,0.0,0.0,0.0,0.0,0.0,0.0,0.0,0.0,0.0,0.0,0.0,0.0,0.0,0.0,0.0,0.0,0.0,0.0,0.0,0.0,0.0,0.0,0.0,0.0,0.0,0.0,0.0,0.0,0.0,0.0,0.0,0.0,0.0,0.0,0.0,0.0,0.0,0.0,0.0,0.0,0.0,0.0,0.0,0.0,0.0,0.0,0.0,0.0,0.0,0.0,0.0,0.0,0.0,0.0,0.0,0.0,0.0,0.0,0.0,0.0,0.0,0.0,0.0,0.0,0.0,0.0,0.0,0.0,0.0,0.0,0.0,0.0,0.0,0.0,0.0,0.0,0.0,0.0,0.0,0.0,0.0,0.0,0.0,0.0,0.0,0.0,0.0,0.0,0.0,0.0,0.0,0.0,0.0,0.0,0.0,0.0,0.0,0.0,0.0,0.0,0.0,0.0,0.0,0.0,0.0,0.0,0.0,0.0,0.0,0.0,0.0,0.0,0.0,0.0,0.0,0.0,0.0,0.0,0.0,0.0,0.0,0.0,0.0,0.0,0.0,0.0,0.0,0.0,0.0,0.0,0.0,0.0,0.0,0.0,0.0,0.0,0.0,0.0,0.0,0.0,0.0,0.0,0.0,0.0,0.0,0.0,0.0,0.0,0.0,0.0,0.0,0.0,0.0,0.0,0.0,0.0,0.0,0.0,0.0,0.0,0.0,0.0,0.0,0.0,0.0,0.0,0.0,0.0,0.0,0.0,0.0,0.0,0.0,0.0,0.0,0.0,0.0,0.0,0.0,0.0,0.0,0.0,0.0,0.0,0.0,0.0,0.0,0.0,0.0,0.0,0.0,0.0,0.0,0.0,0.0,0.0,0.0,0.0,0.0,0.0,0.0,0.0,0.0,0.0,0.0,0.0,0.0,0.0,0.0,0.0,0.0,0.0,0.0,0.0,0.0,0.0,0.0,0.0,0.0,0.0,0.0,0.0,0.0,0.0,0.0,0.0,0.0,0.0,0.0,0.0,0.0,0.0,0.0,0.0,0.0,0.0,0.0,0.0,0.0,0.0,0.0,0.0,0.0,0.0,0.0,0.0,0.0,0.0,0.0,0.0,0.0,0.0,0.0,0.0,0.0,0.0,0.0,0.0,0.0,0.0,0.0,0.0,0.0,0.0,0.0,0.0,0.0,0.0,0.0,0.0,0.0,0.0,0.0,0.0,0.0,0.0,0.0,0.0,0.0,0.0,0.0,0.0,0.0,0.0,0.0,0.0,0.0,0.0,0.0,0.0,0.0,0.0,0.0,0.0,0.0,0.0,0.0,0.0,0.0,0.0,0.0,0.0,0.0,0.0,0.0,0.0,0.0,0.0,0.0,0.0,0.0,0.0,0.0,0.0,0.0,0.0,0.0,0.0,0.0,0.0,0.0,0.0,0.0,0.0,0.0,0.0,0.0,0.0,0.0,0.0,0.0,0.0,0.0,0.0,0.0,0.0,0.0,0.0,0.0,0.0,0.0,0.0,0.0,0.0,0.0,0.0,0.0,0.0,0.0,0.0,0.0,0.0,0.0,0.0,0.0,0.0,0.0,0.0,0.0,0.0,0.0,0.0,0.0,0.0,0.0,0.0,0.0,0.0,0.0,0.0,0.0,0.0,0.0,0.0,0.0,0.0,0.0,0.0,0.0,0.0,0.0,0.0,0.0,0.0,0.0,0.0,0.0,0.0,0.0,0.0,0.0,0.0,0.0,0.0,0.0,0.0,0.0,0.0,0.0,0.0,0.0,0.0,0.0,0.0,0.0,0.0,0.0,0.0,0.0,0.0,0.0,0.0,0.0,0.0,0.0,0.0,0.0,0.0,0.0,0.0,0.0,0.0,0.0,0.0,0.0,0.0,0.0,0.0,0.0,0.0,0.0,0.0,0.0,0.0,0.0,0.0,0.0,0.0,0.0,0.0,0.0,0.0,0.0,0.0,0.0,0.0,0.0,0.0,0.0,0.0,0.0,0.0,0.0,0.0,0.0,0.0,0.0,0.0,0.0,0.0,0.0,0.0,0.0,0.0,0.0,0.0,0.0,0.0,0.0,0.0,0.0,0.0,0.0,0.0,0.0,0.0,0.0,0.0,0.0,0.0,0.0,0.0,0.0,0.0,0.0,0.0,0.0,0.0,0.0,0.0,0.0,0.0,0.0,0.0,0.0,0.0,0.0,0.0,0.0,0.0,0.0,0.0,0.0,0.0,0.0,0.0,0.0,0.0,0.0,0.0,0.0,0.0,0.0,0.0,0.0,0.0,0.0,0.0,0.0,0.0,0.0,0.0,0.0,0.0,0.0,0.0,0.0,0.0,0.0,0.0,0.0,0.0,0.0,0.0,0.0,0.0,0.0,0.0,0.0,0.0,0.0,0.0,0.0,0.0,0.0,0.0,0.0,0.0,0.0,0.0,0.0,0.0,0.0,0.0,0.0,0.0,0.0,0.0,0.0,0.0,0.0,0.0,0.0,0.0,0.0,0.0,0.0,0.0,0.0,0.0,0.0,0.0,0.0,0.0,0.0,0.0,0.0,0.0,0.0,0.0,0.0,0.0,0.0,0.0,0.0,0.0,0.0,0.0,0.0,0.0,0.0,0.0,0.0,0.0,0.0,0.0,0.0,0.0,0.0,0.0,0.0,0.0,0.0,0.0,0.0,0.0,0.0,0.0,0.0,0.0,0.0,0.0,0.0,0.0,0.0,0.0,0.0,0.0,0.0,0.0,0.0,0.0,0.0,0.0,0.0,0.0,0.0,0.0,0.0,0.0,0.0,0.0,0.0,0.0,0.0,0.0,0.0,0.0,0.0,0.0,0.0,0.0,0.0,0.0,0.0,0.0,0.0,0.0,0.0,0.0,0.0,0.0,0.0,0.0,0.0,0.0,0.0,0.0,0.0,0.0,0.0,0.0,0.0,0.0,0.0,0.0,0.0,0.0,0.0,0.0,0.0,0.0,0.0,0.0,0.0,0.0,0.0,0.0,0.0,0.0,0.0,0.0,0.0,0.0,0.0,0.0,0.0,0.0,0.0,0.0,0.0,0.0,0.0,0.0,0.0,0.0,0.0,0.0,0.0,0.0,0.0,0.0,0.0,0.0,0.0,0.0,0.0,0.0,0.0,0.0,0.0,0.0,0.0,0.0,0.0,0.0,0.0,0.0,0.0,0.0,0.0,0.0,0.0,0.0,0.0,0.0,0.0,0.0,0.0,0.0,0.0,0.0,0.0,0.0,0.0,0.0,0.0,0.0,0.0,0.0,0.0,0.0,0.0,0.0,0.0,0.0,0.0,0.0,0.0,0.0,0.0,0.0,0.0,0.0,0.0,0.0,0.0,0.0,0.0,0.0,0.0,0.0,0.0,0.0,0.0,0.0,0.0,0.0,0.0,0.0,0.0,0.0,0.0,0.0,0.0,0.0,0.0,0.0,0.0,0.0,0.0,0.0,0.0,0.0,0.0,0.0,0.0,0.0,0.0,0.0,0.0,0.0,0.0,0.0,0.0,0.0,0.0,0.0,0.0,0.0,0.0,0.0,0.0,0.0,0.0,0.0,0.0,0.0,0.0,0.0,0.0,0.0,0.0,0.0,0.0,0.0,0.0,0.0,0.0,0.0,0.0,0.0,0.0,0.0,0.0,0.0,0.0,0.0,0.0,0.0,0.0,0.0,0.0,0.0,0.0,0.0,0.0,0.0,0.0,0.0,0.0,0.0,0.0,0.0,0.0,0.0,0.0,0.0,0.0,0.0,0.0,0.0,0.0,0.0,0.0,0.0,0.0,0.0,0.0,0.0,0.0,0.0,0.0,0.0,0.0,0.0,0.0,0.0,0.0,0.0,0.0,0.0,0.0,0.0,0.0,0.0,0.0,0.0,0.0,0.0,0.0,0.0,0.0,0.0,0.0,0.0,0.0,0.0,0.0,0.0,0.0,0.0,0.0,0.0,0.0,0.0,0.0,0.0,0.0,0.0,0.0,0.0,0.0,0.0,0.0,0.0,0.0,0.0,0.0,0.0,0.0,0.0,0.0,0.0,0.0,0.0,0.0,0.0,0.0,0.0,0.0,0.0,0.0,0.0,0.0,0.0,0.0,0.0,0.0,0.0,0.0,0.0,0.0,0.0,0.0,0.0,0.0,0.0,0.0,0.0,0.0,0.0,0.0,0.0,0.0,0.0,0.0,0.0,0.0,0.0,0.0,0.0,0.0,0.0,0.0,0.0,0.0,0.0,0.0,0.0,0.0,0.0,0.0,0.0,0.0,0.0,0.0,0.0,0.0,0.0,0.0,0.0,0.0,0.0,0.0,0.0,0.0,0.0,0.0,0.0,0.0,0.0,0.0,0.0,0.0,0.0,0.0,0.0,0.0,0.0,0.0,0.0,0.0,0.0,0.0,0.0,0.0,0.0,0.0,0.0,0.0,0.0,0.0,0.0,0.0,0.0,0.0,0.0,0.0,0.0,0.0,0.0,0.0,0.0,0.0,0.0,0.0,0.0,0.0,0.0,0.0,0.0,0.0,0.0,0.0,0.0,0.0,0.0,0.0,0.0,0.0,0.0,0.0,0.0,0.0,0.0,0.0,0.0,0.0,0.0,0.0,0.0,0.0,0.0,0.0,0.0,0.0,0.0,0.0,0.0,0.0,0.0,0.0,0.0,0.0,0.0,0.0,0.0,0.0,0.0,0.0,0.0,0.0,0.0,0.0,0.0,0.0,0.0,0.0,0.0,0.0,0.0,0.0,0.0,0.0,0.0,0.0,0.0,0.0,0.0,0.0,0.0,0.0,0.0,0.0,0.0,0.0,0.0,0.0,0.0,0.0,0.0,0.0,0.0,0.0,0.0,0.0,0.0,0.0,0.0,0.0,0.0,0.0,0.0,0.0,0.0,0.0,0.0,0.0,0.0,0.0,0.0,0.0,0.0,0.0,0.0,0.0,0.0,0.0,0.0,0.0,0.0,0.0,0.0,0.0,0.0,0.0,0.0,0.0,0.0,0.0,0.0,0.0,0.0,0.0,0.0,0.0,0.0,0.0,0.0,0.0,0.0,0.0,0.0,0.0,0.0,0.0,0.0,0.0,0.0,0.0,0.0,0.0,0.0,0.0,0.0,0.0,0.0,0.0,0.0,0.0,0.0,0.0,0.0,0.0,0.0,0.0,0.0,0.0,0.0,0.0,0.0,0.0,0.0,0.0,0.0,0.0,0.0,0.0,0.0,0.0,0.0,0.0,0.0,0.0,0.0,0.0,0.0,0.0,0.0,0.0,0.0,0.0,0.0,0.0,0.0,0.0,0.0,0.0,0.0,0.0,0.0,0.0,0.0,0.0,0.0,0.0,0.0,0.0,0.0,0.0,0.0,0.0,0.0,0.0,0.0,0.0,0.0,0.0,0.0,0.0,0.0,0.0,0.0,0.0,0.0,0.0,0.0,0.0,0.0,0.0,0.0,0.0,0.0,0.0,0.0,0.0,0.0,0.0,0.0,0.0,0.0,0.0,0.0,0.0,0.0,0.0,0.0,0.0,0.0,0.0,0.0,0.0,0.0,0.0,0.0,0.0,0.0,0.0,0.0,0.0,0.0,0.0,0.0,0.0,0.0,0.0,0.0,0.0,0.0,0.0,0.0,0.0,0.0,0.0,0.0,0.0,0.0,0.0,0.0,0.0,0.0,0.0,0.0,0.0,0.0,0.0,0.0,0.0,0.0,0.0,0.0,0.0,0.0,0.0,0.0,0.0,0.0,0.0,0.0,0.0,0.0,0.0,0.0,0.0,0.0,0.0,0.0,0.0,0.0,0.0,0.0,0.0,0.0,0.0,0.0,0.0,0.0,0.0,0.0,0.0,0.0,0.0,0.0,0.0,0.0,0.0,0.0,0.0,0.0,0.0,0.0,0.0,0.0,0.0,0.0,0.0,0.0,0.0,0.0,0.0,0.0,0.0,0.0,0.0,0.0,0.0,0.0,0.0,0.0,0.0,0.0,0.0,0.0,0.0,0.0,0.0,0.0,0.0,0.0,0.0,0.0,0.0,0.0,0.0,0.0,0.0,0.0,0.0,0.0,-0.5002,0.0,0.0,0.0,0.0,0.0,0.0,0.0,0.0,0.0,0.0,0.0,0.0,0.0,0.0,0.0,0.0,0.0,0.0,0.0,0.0,0.0,0.0,0.0,0.0,0.0,0.0,0.0,0.0,0.0,0.0,0.0,0.0,0.0,0.0,0.0,0.0,0.0,0.0,0.0,0.0,0.0,0.0,0.0,0.0,0.0,0.0,0.0,0.0,0.0,0.0,0.0,0.0,0.0,0.0,0.0,0.0,0.0,0.0,0.0,0.0,0.0,0.0,0.0,0.0,0.0,0.0,0.0,0.0,0.0,0.0,0.0,0.0,0.0,0.0,0.0,0.0,0.0,0.0,0.0,0.0,0.0,0.0,0.0,0.0,0.0,0.0,0.0,0.0,0.0,0.0,0.0,0.0,0.0,0.0,0.0,0.0,0.0,0.0,0.0,0.0,0.0,0.0,0.0,0.0,0.0,0.0,0.0,0.0,0.0,0.0,0.0,0.0,0.0,0.0,0.0,0.0,-0.5026,0.0,0.0,0.0,0.0,0.0,0.0,0.0,0.0,0.0,0.0,0.0,0.0,0.0,0.0,0.0,0.0,0.0,0.0,0.0,0.0,0.0,0.0,0.0,0.0,0.0,0.0,0.0,0.0,0.0,0.0,0.0,0.0,0.0,0.0,0.0,0.0,0.0,0.0,0.0,0.0,0.0,0.0,0.0,0.0,0.0,0.0,0.0,0.0,0.0,0.0,0.0,0.0,0.0,0.0,0.0,0.0,0.0,0.0,0.0,0.0,0.0,0.0,0.0,0.0,0.0,0.0,0.0,0.0,0.0,0.0,0.0,0.0,0.0,0.0,0.0,0.0,0.0,0.0,0.0,0.0,0.0,0.0,0.0,0.0,0.0,0.0,0.0,0.0,0.0,0.0,0.0,0.0,0.0,0.0,0.0,0.0,0.0,0.0,0.0,0.0,0.0,0.0,0.0,0.0,0.0,0.0,0.0,0.0,-0.5836,-0.5826,-0.5813,-0.5602,-0.5443,-0.5439,-0.5433,-0.5373,-0.5165,-0.529,0.0,0.0,0.0,0.0,0.0,0.0,0.0,0.0,0.0,0.0,0.0,0.0,0.0,0.0,0.0,0.0,0.0,0.0,0.0,0.0,0.0,0.0,0.0,0.0,0.0,0.0,0.0,0.0,0.0,0.0,0.0,0.0,0.0,0.0,0.0,0.0,0.0,0.0,-0.3577,-0.3659,-0.3666,-0.3708,-0.3934,0.0,0.0,0.0,0.0,0.0,0.0,0.0,0.0,0.0,0.0,0.0,0.0,0.0,0.0,0.0,0.0,0.0,0.0,0.0,0.0,0.0,0.0,0.0,0.0,0.0,0.0,0.0,0.0,0.0,0.0,0.0,0.0,0.0,0.0,0.0,0.0,0.0,0.0,0.0,0.0,0.0,0.0,0.0,-0.344,-0.3474,0.0,0.0,0.0,0.0,0.0,0.0,0.0,0.0,0.0,0.0,0.0,0.0,0.0,-0.6939,-0.6974,-0.7359,-0.7226,-0.6785,-0.6997,-0.6888,-0.646,-0.6215,-0.6072,-0.579,-0.6081,0.0,-0.5597,-0.5811,0.0,0.0,0.0,0.0,0.0,0.0,0.0,0.0,0.0,0.0,0.0,0.0,0.0,0.0,0.0,0.0,0.0,0.0,0.0,0.0,0.0,0.0,0.0,0.0,0.0,0.0,0.0,0.0,0.0,0.0,0.0,0.0,0.0,0.0,0.0,0.0,-0.4276,-0.4319,-0.4031,-0.4011,-0.4037,-0.4086,-0.4115,-0.4091,-0.3951,-0.4102,0.0,0.0,0.0,0.0,0.0,0.0,0.0,0.0,0.0,0.0,0.0,0.0,0.0,0.0,0.0,0.0,0.0,0.0,0.0,0.0,0.0,0.0,0.0,0.0,0.0,0.0,0.0,0.0,0.0,0.0,0.0,0.0,0.0,0.0,0.0,0.0,0.0,0.0,0.0,-0.3983,-0.3881,-0.3728,-0.3825,-0.3942,0.0,0.0,0.0,0.0,0.0,0.0,0.0,0.0,0.0,-0.695,-0.7311,-0.7601,-0.7502,-0.7605,-0.7506,-0.7086,-0.7018,-0.695,-0.676,-0.6621,-0.6447,-0.6239,-0.6487,-0.6494,-0.6509,-0.6478,-0.6378,-0.6268,0.0,0.0,0.0,0.0,-0.7079,-0.7014,0.0,0.0,0.0,0.0,0.0,0.0,0.0,0.0,0.0,0.0,0.0,0.0,0.0,0.0,0.0,-0.5096,0.0,0.0,0.0,0.0,0.0,0.0,0.0,0.0,0.0,0.0,0.0,0.0,-0.463,-0.4711,-0.4427,-0.4451,-0.4472,-0.4489,-0.4489,-0.4254,-0.4002,-0.4204,-0.4247,0.0,0.0,0.0,0.0,0.0,0.0,0.0,0.0,0.0,0.0,0.0,0.0,0.0,0.0,0.0,0.0,0.0,0.0,0.0,0.0,0.0,0.0,0.0,0.0,0.0,0.0,0.0,0.0,0.0,0.0,0.0,0.0,0.0,0.0,0.0,0.0,0.0,0.0,-0.4394,-0.4252,-0.4011,-0.4133,-0.4117,0.0,0.0,0.0,0.0,0.0,0.0,-0.567,-0.6344,-0.6816,-0.7083,-0.762,-0.7858,-0.7773,-0.7685,-0.7514,-0.7369,-0.707,-0.6958,-0.7017,-0.6869,-0.6664,-0.6536,-0.6792,-0.6947,-0.7217,-0.6948,-0.6773,-0.6684,-0.7011,-0.6953,-0.6768,-0.7258,-0.7428,-0.744,0.0,0.0,0.0,0.0,0.0,0.0,0.0,0.0,0.0,0.0,0.0,0.0,0.0,0.0,-0.4824,-0.498,-0.5149,-0.5274,0.0,0.0,0.0,0.0,0.0,0.0,0.0,0.0,0.0,-0.4191,-0.4758,-0.4831,-0.4617,-0.4889,-0.4999,-0.4856,-0.4856,-0.4653,-0.4205,-0.4335,-0.4397,-0.4467,0.0,0.0,0.0,0.0,0.0,0.0,0.0,0.0,0.0,0.0,0.0,0.0,0.0,0.0,0.0,0.0,0.0,0.0,0.0,0.0,0.0,0.0,0.0,0.0,0.0,0.0,0.0,0.0,0.0,0.0,0.0,0.0,0.0,0.0,0.0,0.0,0.0,0.0,0.0,-0.4283,-0.4223,0.0,0.0,0.0,0.0,-0.5747,-0.5784,-0.5868,-0.6027,-0.678,-0.6962,-0.6328,-0.7236,-0.7589,-0.737,-0.7482,-0.7605,-0.7734,-0.7707,-0.7488,-0.7215,-0.7053,-0.6831,-0.6569,-0.7236,-0.7445,-0.7331,-0.7386,-0.767,-0.7992,-0.8116,-0.7987,-0.774,-0.8212,-0.8014,-0.7751,0.0,0.0,0.0,0.0,0.0,0.0,0.0,0.0,0.0,0.0,0.0,0.0,0.0,-0.5374,-0.5524,-0.6063,-0.5996,-0.5908,-0.5793,0.0,0.0,0.0,0.0,0.0,0.0,0.0,-0.4615,-0.4523,-0.5026,-0.5136,-0.4999,-0.5272,-0.5384,-0.5335,-0.515,-0.5018,-0.4849,-0.4591,-0.4403,-0.4356,-0.4367,-0.4566,0.0,0.0,0.0,0.0,0.0,0.0,0.0,0.0,0.0,0.0,0.0,0.0,0.0,0.0,0.0,0.0,0.0,0.0,0.0,0.0,0.0,0.0,0.0,0.0,0.0,0.0,0.0,0.0,0.0,0.0,0.0,0.0,0.0,0.0,0.0,0.0,0.0,-0.5085,-0.52,0.0,-0.5059,-0.5276,-0.5576,-0.5894,-0.6111,-0.621,-0.6197,-0.6644,-0.6995,-0.7039,-0.7269,-0.7622,-0.7987,-0.7744,-0.7645,-0.7832,-0.7528,-0.7529,-0.7564,-0.7197,-0.6979,-0.7035,-0.7111,-0.7332,-0.755,-0.7767,-0.7755,-0.7521,-0.8035,-0.7889,-0.7406,-0.8033,-0.8189,-0.803,0.0,0.0,0.0,0.0,0.0,0.0,0.0,0.0,0.0,0.0,0.0,-0.5485,-0.5957,-0.5948,-0.6108,-0.6625,-0.6552,-0.6422,-0.6353,0.0,0.0,0.0,0.0,0.0,0.0,-0.4745,-0.4773,-0.4701,-0.5208,-0.5384,-0.5206,-0.5525,-0.5726,-0.5726,-0.5578,-0.5408,-0.5305,-0.5075,-0.4701,-0.4463,-0.4575,-0.4731,-0.4915,0.0,0.0,0.0,0.0,0.0,0.0,0.0,0.0,0.0,0.0,0.0,0.0,0.0,0.0,0.0,0.0,0.0,0.0,0.0,0.0,0.0,0.0,0.0,0.0,0.0,0.0,0.0,0.0,0.0,0.0,0.0,0.0,0.0,0.0,-0.5718,-0.5712,-0.5968,-0.6013,-0.5961,-0.5877,-0.6057,-0.6174,-0.6152,-0.6486,-0.6518,-0.6591,-0.6934,-0.7148,-0.7102,-0.7334,-0.7448,-0.7567,-0.7391,-0.7282,-0.7234,-0.7103,-0.7075,-0.7269,-0.6996,-0.7052,-0.7139,-0.7212,-0.7319,-0.7722,-0.8068,-0.7818,-0.7271,-0.7996,-0.779,-0.7268,-0.7786,-0.8019,-0.8062,0.0,0.0,0.0,0.0,0.0,0.0,0.0,0.0,0.0,0.0,-0.5239,-0.551,-0.5962,-0.6275,-0.6488,-0.6654,-0.6757,-0.681,-0.6791,-0.6078,0.0,0.0,0.0,0.0,-0.4512,-0.4847,-0.4945,-0.4716,-0.5293,-0.5378,-0.5211,-0.5705,-0.5909,-0.5915,-0.6034,-0.5994,-0.5705,-0.57,-0.5334,-0.4856,-0.4894,-0.4983,-0.4966,0.0,0.0,0.0,0.0,0.0,0.0,0.0,0.0,0.0,0.0,0.0,0.0,0.0,0.0,0.0,0.0,0.0,0.0,0.0,0.0,0.0,0.0,0.0,0.0,0.0,0.0,0.0,0.0,0.0,0.0,0.0,0.0,0.0,-0.6268,-0.6111,-0.6286,-0.6826,-0.6619,-0.6443,-0.6334,-0.6531,-0.6717,-0.6831,-0.6945,-0.6939,-0.7163,-0.7525,-0.723,-0.6381,-0.7332,-0.7321,-0.6055,-0.6683,-0.6783,-0.6325,-0.6321,-0.6415,-0.6598,-0.659,-0.6639,-0.6733,-0.7144,-0.7562,-0.7841,-0.8258,-0.798,-0.7391,-0.8169,-0.777,-0.706,-0.7696,-0.7828,-0.778,0.0,0.0,0.0,0.0,0.0,0.0,0.0,0.0,0.0,0.0,-0.5514,-0.5956,-0.6511,-0.6567,-0.6579,-0.6791,-0.6994,-0.6933,-0.6535,0.0,0.0,0.0,0.0,0.0,-0.5104,-0.5248,-0.5302,-0.532,-0.5587,-0.5681,-0.5598,-0.5926,-0.6034,-0.604,-0.6165,-0.6219,-0.6112,-0.6026,-0.5743,-0.545,-0.5323,-0.5352,-0.5451,0.0,0.0,0.0,0.0,0.0,0.0,0.0,0.0,0.0,0.0,0.0,0.0,0.0,0.0,0.0,0.0,0.0,0.0,0.0,0.0,0.0,0.0,0.0,0.0,0.0,0.0,0.0,0.0,0.0,0.0,0.0,-0.7082,-0.7152,-0.693,-0.68,-0.676,-0.7119,-0.7503,-0.7592,-0.7557,-0.7785,-0.7949,-0.7985,-0.788,-0.7729,-0.752,-0.7601,-0.7547,-0.7459,-0.7151,-0.7136,-0.7287,-0.6721,-0.6464,-0.6513,-0.6647,-0.6753,-0.6774,-0.6851,-0.6919,-0.6909,-0.72,-0.7599,-0.7945,-0.8283,-0.8114,-0.7822,-0.8068,-0.7603,-0.6791,-0.7098,-0.7398,-0.7592,0.0,0.0,0.0,0.0,0.0,0.0,0.0,0.0,0.0,0.0,-0.5677,-0.6097,-0.6788,-0.676,-0.6806,-0.7082,-0.7129,-0.6931,-0.6622,0.0,0.0,0.0,0.0,-0.5396,-0.5473,-0.5639,-0.567,-0.5464,-0.586,-0.5863,-0.5631,-0.5815,-0.6021,-0.6165,-0.6192,-0.624,-0.6333,-0.636,-0.6203,-0.5958,-0.5914,-0.5746,-0.5526,-0.5449,-0.5388,-0.5255,-0.498,-0.4955,-0.5075,-0.4954,0.0,0.0,0.0,0.0,0.0,0.0,0.0,0.0,0.0,0.0,0.0,0.0,0.0,0.0,0.0,0.0,0.0,0.0,0.0,0.0,0.0,0.0,0.0,0.0,-0.757,-0.778,-0.7841,-0.7496,-0.7455,-0.7878,-0.8234,-0.8376,-0.8439,-0.8634,-0.8673,-0.8729,-0.8497,-0.8233,-0.8161,-0.7926,-0.7953,-0.7954,-0.7801,-0.7532,-0.7528,-0.7248,-0.6849,-0.6586,-0.6711,-0.666,-0.6794,-0.6773,-0.686,-0.6982,-0.7308,-0.7718,-0.8055,-0.8419,-0.8389,0.0,0.0,0.0,0.0,0.0,-0.7407,-0.7544,0.0,0.0,0.0,0.0,0.0,0.0,0.0,0.0,0.0,0.0,0.0,-0.6106,-0.6819,-0.6847,-0.7,-0.7571,-0.7177,-0.6898,0.0,0.0,0.0,-0.5421,-0.5732,-0.5879,-0.5761,-0.6133,-0.6073,-0.5572,-0.594,-0.597,-0.5639,-0.5753,-0.5963,-0.6274,-0.609,-0.6142,-0.6437,-0.6642,-0.658,-0.6388,-0.6675,-0.6293,-0.5523,-0.542,-0.5278,-0.5067,-0.4494,-0.4588,-0.494,-0.4573,0.0,0.0,0.0,0.0,0.0,0.0,0.0,0.0,0.0,0.0,0.0,0.0,0.0,0.0,0.0,0.0,0.0,0.0,0.0,0.0,0.0,0.0,0.0,0.0,-0.8146,-0.8463,-0.8749,-0.8334,-0.8252,-0.8823,-0.8884,-0.8807,-0.8955,-0.909,-0.9112,-0.9014,-0.8759,-0.8746,-0.8736,0.0,0.0,0.0,0.0,-0.8317,-0.7384,-0.7621,-0.7453,-0.659,-0.6496,-0.6553,-0.6741,-0.6721,-0.6811,-0.699,-0.7412,-0.7847,-0.815,-0.8584,-0.8719,-0.8529,-0.8148,-0.7536,-0.6766,-0.7374,-0.7617,-0.7707,0.0,0.0,0.0,0.0,0.0,0.0,0.0,0.0,0.0,-0.5188,-0.5582,-0.6121,-0.6912,-0.6764,-0.6912,-0.7551,-0.7102,-0.6679,0.0,0.0,-0.6316,-0.5862,-0.6215,-0.6363,-0.6191,-0.6395,-0.6375,-0.5957,-0.6068,-0.597,-0.5818,-0.5935,-0.6154,-0.6274,-0.6289,-0.6337,-0.6437,-0.6642,-0.6731,-0.6708,-0.7,-0.6623,-0.5969,-0.5871,-0.5657,-0.5539,-0.5426,-0.5315,-0.5328,-0.5366,-0.5502,-0.5611,-0.5478,-0.5501,0.0,0.0,0.0,0.0,0.0,0.0,0.0,0.0,0.0,0.0,0.0,0.0,0.0,0.0,0.0,0.0,0.0,0.0,0.0,-0.8073,-0.8686,-0.9162,-0.9201,-0.9518,-0.9639,-0.9229,-0.9354,-0.9459,-0.96,-0.9747,-0.9771,-0.9538,-0.9576,-0.9348,-0.8742,-0.8711,-0.8632,-0.8215,-0.8041,-0.7709,-0.736,-0.7057,-0.6847,-0.659,0.0,0.0,-0.6823,-0.6957,-0.703,-0.6986,-0.763,-0.793,-0.815,-0.8874,-0.8817,-0.8169,-0.7884,-0.7161,-0.6571,-0.7243,-0.7472,-0.7562,0.0,0.0,0.0,0.0,0.0,0.0,0.0,0.0,0.0,0.0,-0.5345,-0.5776,-0.6421,-0.6368,-0.651,-0.7118,-0.694,0.0,0.0,-0.6551,-0.6612,-0.62,-0.674,-0.695,-0.6861,-0.709,-0.7068,-0.6612,-0.6612,-0.6502,-0.627,-0.6154,-0.6283,-0.6463,-0.6328,-0.6382,-0.6642,-0.6842,-0.7042,-0.7042,-0.7341,-0.7063,-0.6634,-0.6412,-0.6194,-0.6082,-0.5753,-0.5652,-0.5627,-0.5394,-0.5469,-0.5604,-0.5377,-0.5394,-0.5437,0.0,0.0,0.0,0.0,0.0,0.0,0.0,0.0,0.0,0.0,0.0,0.0,0.0,0.0,-0.7535,-0.7527,0.0,-0.8287,-0.8424,-0.9069,-0.9683,-0.9695,-0.9975,-1.0047,-0.9736,-0.9815,-0.9895,-0.9924,-1.0073,-1.0069,-1.0015,-0.9697,-0.9478,-0.9098,-0.883,-0.8607,-0.841,-0.8107,-0.7762,-0.7393,-0.7088,-0.6864,-0.659,-0.6677,-0.6752,-0.6786,-0.6881,-0.696,-0.6986,-0.7805,-0.8102,-0.815,-0.8729,-0.8693,-0.8079,-0.7693,-0.7221,-0.6721,-0.7478,-0.7718,-0.7776,0.0,0.0,0.0,0.0,0.0,0.0,0.0,0.0,0.0,0.0,0.0,-0.5487,-0.5942,-0.5928,-0.6042,0.0,0.0,0.0,0.0,-0.6687,-0.6928,-0.6633,-0.7234,-0.7581,-0.7612,-0.7826,-0.7643,-0.7231,-0.7143,-0.6949,-0.6636,-0.6362,-0.6392,-0.6707,-0.6452,-0.6502,-0.6872,-0.7117,-0.7205,-0.726,-0.7489,-0.7483,-0.7248,-0.6943,-0.6643,-0.6444,-0.5953,-0.5786,-0.5907,-0.5364,-0.5452,-0.5631,-0.5347,-0.5293,-0.5433,-0.5996,-0.5907,0.0,0.0,0.0,0.0,0.0,0.0,0.0,0.0,-0.8067,-0.8081,-0.7581,-0.765,-0.7858,-0.7848,-0.8167,-0.8401,-0.8879,-0.9342,-0.9873,-1.003,-1.0108,-1.0123,-1.0123,-1.0258,-1.0169,-1.008,-1.0229,-1.0331,-1.0236,-0.9825,-0.949,-0.9228,-0.8955,-0.8579,-0.8349,-0.8288,-0.7937,-0.7286,-0.7229,-0.6996,-0.659,-0.6607,-0.6664,-0.6754,-0.6839,-0.6921,-0.699,-0.7715,-0.815,-0.8295,-0.8584,-0.844,-0.8005,-0.7711,-0.7187,-0.6927,-0.7709,-0.7969,-0.7907,0.0,0.0,0.0,0.0,0.0,0.0,0.0,0.0,0.0,0.0,0.0,0.0,0.0,0.0,0.0,0.0,0.0,0.0,-0.6697,-0.7304,-0.7617,-0.753,-0.8026,-0.8256,-0.8189,-0.7966,-0.788,-0.776,-0.7143,-0.6866,-0.6904,-0.6728,-0.6716,-0.7051,-0.6991,-0.6985,-0.7083,-0.7438,-0.74,-0.7272,-0.7588,-0.7664,-0.755,-0.7247,-0.685,-0.6444,-0.6322,-0.6221,-0.6195,-0.6091,-0.6245,-0.63,-0.5762,-0.5627,-0.5723,-0.5865,-0.5828,-0.5862,-0.6557,-0.7043,-0.7504,-0.8143,-0.8426,-0.8779,0.0,-0.8878,-0.8544,-0.8786,-0.8402,-0.8018,-0.8187,-0.8355,-0.8536,-0.8816,-0.9266,-0.9773,-1.0073,-1.0434,-1.0642,-1.0279,-1.0176,-1.0086,-1.0243,-1.0385,-1.0267,-0.9738,-1.0028,-0.9637,-0.8701,-0.9086,-0.8877,-0.8188,-0.8316,-0.7912,-0.7115,-0.7128,-0.6996,-0.659,-0.6672,-0.6758,-0.6843,-0.6933,-0.6978,-0.699,-0.7715,-0.8295,-0.8584,-0.8729,-0.844,-0.8005,-0.7711,-0.7408,-0.7106,-0.7842,-0.7833,-0.7824,0.0,0.0,0.0,0.0,0.0,0.0,0.0,0.0,0.0,0.0,0.0,0.0,0.0,0.0,0.0,0.0,0.0,0.0,-0.6529,-0.7603,-0.8117,-0.7906,-0.857,-0.8825,-0.8515,-0.8647,-0.841,-0.8053,-0.7891,-0.7709,-0.7506,-0.7417,-0.741,-0.7461,-0.7436,-0.7476,-0.7597,-0.7726,-0.7706,-0.7597,-0.7753,-0.7746,-0.7597,-0.7308,-0.7018,-0.6697,-0.6721,-0.6693,0.0,0.0,-0.6695,-0.6525,-0.6306,-0.6091,-0.6039,-0.639,-0.6381,-0.6375,-0.702,-0.7561,-0.8134,-0.8458,-0.8747,-0.9048,-0.9148,-0.9083,-0.8901,-0.8483,-0.8285,-0.8343,-0.8703,-0.8709,-0.8752,-0.9291,-0.9305,-0.9387,-0.96,-0.966,-0.97,-0.97,-0.9754,-0.9888,-0.9996,-0.994,-0.9909,-0.9533,-0.9612,-0.9353,-0.8755,-0.8935,-0.8736,-0.8132,-0.8301,-0.806,-0.7406,-0.7328,-0.7083,-0.6945,-0.6898,-0.696,-0.7144,-0.7094,-0.7135,-0.7421,-0.7711,-0.8005,-0.8295,-0.815,-0.8,-0.7711,-0.7421,-0.699,-0.67,-0.7715,-0.8005,-0.8005,0.0,0.0,0.0,0.0,0.0,0.0,0.0,0.0,0.0,0.0,0.0,0.0,0.0,0.0,0.0,0.0,0.0,0.0,0.0,-0.7674,-0.8364,-0.8245,-0.8886,-0.9106,-0.894,-0.9045,-0.8914,-0.8464,-0.8426,-0.8257,-0.7956,-0.7869,-0.7782,-0.7847,-0.78,-0.7865,-0.8029,-0.8023,-0.8009,-0.7937,-0.798,-0.788,-0.7653,-0.7421,-0.7272,-0.719,-0.7161,-0.7061,0.0,0.0,-0.7162,-0.6884,-0.6718,-0.6485,-0.6367,-0.6939,-0.7025,-0.7122,-0.7586,-0.8102,-0.8488,-0.8603,-0.8983,-0.9272,-0.9183,-0.9275,-0.9166,-0.8585,-0.8495,-0.8574,-0.8904,-0.8843,-0.885,-0.953,-0.9352,-0.9168,-0.9195,-0.9188,-0.9163,-0.9405,-0.9566,-0.9647,-0.9606,-0.9709,-0.9704,-0.9365,-0.9197,-0.9076,-0.8859,-0.8789,-0.8595,-0.8241,-0.8428,-0.8347,-0.7854,-0.7659,-0.7431,-0.7323,-0.7106,-0.7153,-0.7469,-0.7246,-0.728,-0.7421,-0.7566,-0.7711,-0.8005,-0.7711,-0.7566,-0.7566,-0.7131,-0.6845,-0.6704,-0.786,-0.815,-0.8295,0.0,0.0,0.0,0.0,0.0,0.0,0.0,0.0,0.0,0.0,0.0,0.0,0.0,0.0,0.0,0.0,0.0,0.0,0.0,-0.7527,-0.808,-0.8646,-0.8925,-0.9173,-0.9473,-0.9165,-0.9058,-0.9255,-0.8435,-0.8038,-0.8207,-0.7781,-0.7786,-0.8216,-0.8117,-0.8102,-0.8239,-0.8298,-0.8154,-0.7886,-0.805,-0.8012,-0.7848,-0.7685,-0.7788,-0.806,-0.7541,0.0,0.0,-0.75,-0.7667,-0.76,-0.6944,-0.6799,-0.6849,-0.7146,-0.759,-0.8114,-0.8338,-0.8506,-0.8595,-0.8793,-0.9117,-0.9477,-0.9853,-0.9738,-0.9461,-0.9473,-0.9012,-0.8703,-0.871,-0.8732,-0.8817,-0.9044,-0.9052,-0.9055,-0.8958,-0.9346,-0.9618,-0.9618,-0.9585,-0.9456,-0.9182,-0.985,-0.9877,-0.9226,-0.9117,-0.8984,-0.8584,-0.8704,-0.8769,-0.8764,-0.8883,-0.867,-0.8382,-0.797,-0.7608,-0.7425,-0.7429,-0.7473,-0.7562,-0.7566,-0.7421,-0.699,-0.7421,-0.7566,-0.7566,-0.7566,-0.7566,-0.7566,-0.7131,-0.699,-0.7135,-0.8295,-0.8435,-0.8285,0.0,0.0,0.0,0.0,0.0,0.0,0.0,0.0,0.0,0.0,0.0,0.0,0.0,0.0,0.0,0.0,0.0,0.0,0.0,-0.7544,-0.8237,-0.8742,-0.9153,-0.9346,-0.9299,-0.9311,-0.9246,-0.8999,-0.8736,-0.8657,-0.8687,-0.8272,-0.8221,-0.8455,-0.8175,-0.8231,-0.8631,-0.8416,-0.8225,-0.8131,-0.8012,-0.7831,-0.767,-0.775,-0.7785,-0.7845,0.0,0.0,0.0,-0.8271,-0.8042,-0.7689,-0.7486,-0.7257,-0.7065,-0.7206,-0.7698,-0.8183,-0.7846,-0.8131,-0.8525,-0.8496,-0.8676,-0.8922,-0.9182,-0.9069,-0.9004,-0.9122,-0.8577,-0.8262,-0.889,-0.8573,-0.8225,-0.8654,-0.8686,-0.8449,-0.8102,-0.8274,-0.8418,-0.8418,-0.8741,-0.8872,-0.8459,-0.9188,-0.9477,-0.8973,-0.9074,-0.8992,-0.8992,-0.8828,-0.8856,-0.8774,-0.9041,-0.9007,-0.8933,-0.8576,-0.8208,-0.7814,-0.7666,-0.7535,-0.7566,-0.7566,-0.7421,-0.699,-0.7135,-0.7135,-0.7135,-0.7135,-0.7135,-0.7135,-0.699,-0.7276,-0.7856,-0.8724,-0.9302,-0.9729,0.0,0.0,0.0,0.0,0.0,0.0,0.0,0.0,0.0,0.0,0.0,0.0,0.0,0.0,0.0,0.0,0.0,-0.6428,0.0,0.0,-0.7983,-0.8474,-0.8908,-0.9074,-0.8963,-0.8997,-0.8959,-0.8822,-0.8654,-0.8637,-0.8751,-0.8444,-0.8409,-0.8551,-0.8222,-0.8405,-0.8917,-0.8512,-0.8505,-0.8624,-0.8472,-0.8312,-0.8175,-0.8254,-0.8205,0.0,0.0,0.0,0.0,-0.8427,-0.815,-0.7827,-0.7687,-0.7565,-0.7443,-0.7655,-0.8069,-0.832,-0.8053,-0.8336,-0.8714,-0.8498,-0.8672,-0.8818,-0.8877,-0.8914,-0.8888,-0.8945,-0.846,-0.8303,-0.9071,-0.8506,-0.8062,-0.8527,-0.8351,-0.8026,-0.7729,-0.7937,-0.8102,-0.8102,-0.8391,-0.8546,-0.8273,-0.8747,-0.9016,-0.8787,-0.8846,-0.8904,-0.8869,-0.8784,-0.8823,-0.8834,-0.8916,-0.904,-0.8908,-0.8693,-0.844,-0.8295,-0.8145,-0.7856,-0.7711,-0.7711,-0.7425,-0.699,-0.699,-0.699,-0.699,-0.699,-0.699,-0.699,-0.699,-0.7276,-0.7856,-0.8868,-0.9618,-1.0233,0.0,0.0,0.0,0.0,0.0,0.0,0.0,0.0,0.0,0.0,0.0,0.0,0.0,0.0,0.0,0.0,0.0,0.0,0.0,0.0,0.0,-0.7824,-0.8083,-0.8281,-0.855,-0.8292,-0.833,-0.856,-0.8145,-0.8146,-0.8563,-0.8417,-0.8384,-0.8495,-0.8335,-0.853,-0.889,-0.8663,-0.881,-0.9144,-0.9192,-0.9147,-0.9117,-0.8969,0.0,0.0,0.0,0.0,-0.8513,-0.8175,-0.7981,-0.7923,-0.7719,-0.7717,-0.7838,-0.841,-0.8467,-0.8443,-0.8923,-0.9038,-0.9009,-0.8703,-0.8909,-0.9176,-0.9135,-0.9056,-0.9101,-0.8945,-0.8749,-0.8693,-0.9038,-0.8628,-0.8371,-0.8647,-0.8285,-0.7897,-0.7591,-0.7974,-0.8329,-0.8335,-0.8574,-0.8753,-0.8534,-0.8667,-0.8624,-0.8372,0.0,-0.8711,-0.8679,-0.8584,-0.8704,-0.8943,-0.8542,-0.851,-0.8724,-0.8295,-0.8295,-0.8729,-0.8729,-0.844,-0.815,-0.8005,-0.7715,-0.699,-0.699,-0.699,-0.699,-0.699,-0.699,-0.699,-0.699,-0.699,-0.728,-0.8724,-0.9383,-0.9764,0.0,0.0,0.0,0.0,0.0,0.0,0.0,0.0,0.0,0.0,0.0,0.0,0.0,0.0,0.0,0.0,0.0,0.0,0.0,0.0,0.0,0.0,0.0,0.0,0.0,0.0,0.0,0.0,0.0,-0.8226,-0.8564,-0.824,-0.8337,-0.8669,-0.8107,-0.8324,-0.9186,-0.8679,-0.8689,-0.8932,0.0,-0.8438,-0.8313,0.0,0.0,0.0,0.0,0.0,-0.8285,-0.827,-0.8019,-0.7715,-0.7434,-0.7322,-0.7327,-0.7431,-0.762,-0.7867,-0.8099,-0.8328,-0.8512,-0.8542,-0.8713,-0.8939,-0.9091,-0.9099,-0.9053,-0.9622,-0.9209,-0.8886,-0.9226,-0.9163,-0.881,-0.8106,-0.83,-0.8202,-0.7448,-0.7575,-0.7786,-0.7881,-0.7892,-0.8096,-0.8189,-0.8343,-0.8459,-0.8388,-0.873,-0.901,-0.9583,-0.9059,-0.8796,-0.8948,-0.89,-0.8876,-0.8729,-0.8295,-0.844,-0.9163,-0.829,-0.8,-0.815,-0.757,-0.7135,-0.699,-0.699,-0.699,-0.699,-0.699,-0.699,-0.699,-0.699,-0.7276,-0.7996,-0.8868,-0.9814,-1.051,0.0,0.0,0.0,0.0,0.0,0.0,0.0,0.0,0.0,0.0,0.0,0.0,0.0,0.0,0.0,0.0,0.0,0.0,0.0,0.0,0.0,0.0,0.0,0.0,0.0,0.0,0.0,0.0,0.0,0.0,0.0,-0.8075,-0.8158,-0.8516,-0.8058,-0.8196,-0.8887,-0.861,0.0,0.0,0.0,0.0,0.0,0.0,0.0,0.0,0.0,-0.8215,-0.8235,-0.8118,-0.7855,-0.7548,-0.735,-0.7309,-0.7427,-0.7684,-0.7812,-0.7981,-0.8317,-0.8482,-0.8683,-0.8832,-0.8962,-0.9205,-0.9233,-0.9139,-0.9244,-0.9759,-0.9503,-0.9173,-0.9464,-0.9133,-0.859,-0.7987,-0.7896,-0.7742,-0.7254,-0.7328,-0.7486,-0.7606,-0.7671,-0.7774,-0.7954,-0.8111,-0.8295,-0.8614,-0.8811,-0.8937,-0.9307,-0.8938,-0.8611,-0.8591,-0.8521,-0.8354,-0.8079,-0.8126,-0.8295,-0.8729,-0.829,-0.8,-0.786,-0.7425,-0.7131,-0.699,0.0,-0.699,-0.699,-0.699,-0.699,-0.699,-0.7135,-0.7566,-0.7996,-0.9013,-0.982,-1.0522,0.0,0.0,0.0,0.0,0.0,0.0,0.0,0.0,0.0,0.0,0.0,0.0,0.0,0.0,0.0,0.0,0.0,0.0,0.0,0.0,0.0,0.0,0.0,0.0,0.0,0.0,0.0,0.0,0.0,0.0,0.0,0.0,0.0,0.0,0.0,0.0,0.0,0.0,0.0,0.0,0.0,0.0,0.0,0.0,0.0,0.0,-0.793,-0.8002,-0.8078,-0.7855,-0.7682,-0.7483,-0.7483,-0.7564,-0.7862,-0.8354,-0.8385,-0.8344,-0.8834,-0.8971,-0.9051,-0.9186,-0.9363,-0.951,-0.9324,-0.9354,-0.9426,-0.9687,-0.962,-0.9582,-0.9888,-0.9139,-0.838,-0.8321,-0.7582,-0.7165,-0.7147,-0.7243,-0.7437,-0.7475,-0.7606,-0.7731,-0.7856,-0.8021,-0.8308,-0.8824,-0.8816,-0.8716,-0.8684,-0.8579,-0.851,-0.8224,-0.783,-0.7654,-0.7425,-0.7801,-0.7991,-0.815,-0.844,-0.8145,-0.7566,-0.7566,-0.7276,-0.699,-0.699,0.0,-0.7119,-0.6986,-0.7127,-0.7263,-0.7562,-0.7566,-0.7711,-0.8868,-0.9534,-1.0116,0.0,0.0,0.0,0.0,0.0,0.0,0.0,0.0,0.0,0.0,0.0,0.0,0.0,0.0,0.0,0.0,0.0,0.0,0.0,0.0,0.0,0.0,0.0,0.0,0.0,0.0,0.0,-0.723,-0.7243,0.0,0.0,0.0,0.0,0.0,0.0,0.0,0.0,0.0,0.0,0.0,0.0,0.0,0.0,0.0,0.0,0.0,-0.7633,-0.7555,-0.7416,-0.7494,-0.7627,-0.7673,-0.7749,-0.7596,-0.7529,-0.7712,-0.7872,-0.804,-0.845,-0.8603,-0.8651,-0.9043,-0.928,-0.9418,-0.9417,-0.9606,-0.9814,-0.9991,-1.006,-1.0074,-1.0308,-1.0021,-0.9741,-0.9331,-0.8952,-0.8549,-0.7805,-0.7824,-0.766,-0.7328,-0.7475,-0.7633,-0.785,-0.8099,-0.8358,-0.8458,-0.8665,-0.8805,-0.9217,-0.88,-0.851,-0.8224,-0.7626,-0.7589,-0.7851,-0.7585,-0.7778,-0.815,-0.786,-0.7711,-0.7566,-0.7276,-0.7135,-0.699,-0.699,0.0,-0.7741,-0.7246,-0.7522,-0.8169,-0.7824,-0.7566,-0.7711,-0.8435,-0.9003,-0.9484,0.0,0.0,0.0,0.0,0.0,0.0,0.0,0.0,0.0,0.0,0.0,0.0,0.0,0.0,0.0,0.0,0.0,0.0,0.0,0.0,0.0,0.0,0.0,0.0,0.0,-0.6675,-0.6887,-0.7313,0.0,-0.7123,-0.7398,-0.7325,-0.74,-0.7647,-0.7685,-0.786,0.0,0.0,0.0,0.0,0.0,0.0,0.0,0.0,0.0,0.0,0.0,-0.7522,-0.7578,-0.7569,-0.7669,-0.7816,-0.7819,-0.7959,-0.8139,-0.8312,-0.8414,-0.8512,-0.905,-0.8919,-0.8778,-0.914,-0.9368,-0.9477,-0.9643,-0.9845,-1.005,-1.0379,-1.0373,-1.0353,-1.0187,-1.0089,-0.9815,-0.9147,-0.8939,-0.8559,-0.7759,-0.7648,-0.7681,-0.7644,-0.7806,-0.7985,-0.8233,-0.8444,-0.8477,-0.8291,-0.8458,-0.8753,-0.9019,-0.8557,-0.8215,-0.7868,-0.7429,-0.7226,-0.7274,-0.7376,-0.7451,-0.7495,-0.7544,-0.7421,-0.7276,-0.7135,-0.699,-0.699,-0.699,0.0,-0.7787,-0.7404,-0.7684,-0.8222,-0.7982,-0.786,-0.7865,-0.8353,-0.8882,-0.9436,0.0,0.0,0.0,0.0,0.0,0.0,0.0,0.0,0.0,0.0,0.0,0.0,0.0,0.0,0.0,0.0,0.0,0.0,0.0,0.0,0.0,0.0,0.0,0.0,0.0,0.0,0.0,-0.7331,-0.6946,0.0,0.0,0.0,0.0,0.0,-0.7421,-0.7589,-0.7793,-0.8212,0.0,0.0,0.0,-0.7934,0.0,0.0,0.0,0.0,0.0,-0.7512,-0.7705,-0.7685,-0.7822,-0.804,-0.8067,-0.833,-0.8756,-0.8944,-0.898,-0.9087,-0.9641,-0.9331,-0.8926,-0.93,-0.9409,-0.947,-0.9721,-0.9863,-1.0069,-1.0507,-1.0515,-1.0337,-1.0215,-0.9935,-0.9611,-0.9067,-0.8857,-0.847,-0.7699,-0.7786,-0.7814,-0.7841,-0.8121,-0.8311,-0.8343,-0.8747,-0.8772,-0.838,-0.8489,-0.8614,-0.8568,-0.8189,-0.7794,-0.7526,-0.7197,-0.6842,-0.659,-0.7008,-0.7102,-0.6856,-0.7356,-0.7404,-0.7135,-0.7135,-0.728,-0.728,-0.728,-0.7557,0.0,-0.7702,-0.7991,-0.841,-0.8285,-0.8295,-0.8164,-0.8264,-0.876,-0.9255,0.0,0.0,0.0,0.0,0.0,0.0,0.0,0.0,0.0,0.0,0.0,0.0,0.0,0.0,0.0,0.0,0.0,0.0,0.0,0.0,0.0,0.0,0.0,0.0,0.0,0.0,0.0,-0.6796,-0.6842,0.0,0.0,0.0,0.0,0.0,0.0,-0.7576,-0.7719,-0.7902,0.0,0.0,0.0,0.0,0.0,0.0,0.0,0.0,0.0,-0.7255,-0.7175,-0.7746,-0.8048,-0.8238,-0.8673,-0.8784,-0.8721,-0.9006,-0.9133,-0.9174,-0.9226,-0.9101,-0.8974,-0.9262,-0.9269,-0.9338,-0.9596,-0.9706,-0.9863,-1.0219,-1.0188,-1.0263,-1.0571,-1.0233,-0.9892,-0.9991,-0.9818,-0.9303,-0.8244,-0.86,-0.8564,-0.7265,-0.809,-0.8501,-0.7624,-0.8574,-0.9163,-0.8744,-0.8973,-0.8963,-0.8573,-0.765,-0.7254,-0.7526,-0.6866,-0.6504,-0.659,-0.6607,-0.6696,-0.6851,-0.7291,-0.7486,-0.7566,-0.786,-0.8005,-0.8005,-0.8005,-0.838,0.0,-0.8251,-0.8668,-0.9445,-0.8832,-0.8584,-0.8594,-0.8411,-0.8364,-0.8615,0.0,0.0,0.0,0.0,0.0,0.0,0.0,0.0,0.0,0.0,0.0,0.0,0.0,0.0,0.0,0.0,0.0,0.0,0.0,0.0,0.0,0.0,0.0,0.0,0.0,0.0,-0.6587,-0.6715,-0.663,0.0,0.0,0.0,0.0,0.0,0.0,-0.7463,-0.7859,-0.7937,0.0,0.0,0.0,0.0,0.0,0.0,0.0,0.0,0.0,0.0,-0.7564,-0.7767,-0.8038,-0.8368,-0.8655,-0.896,-0.9253,-0.9563,-0.9416,-0.9317,-0.9646,-0.9274,-0.8805,-0.9052,-0.9099,-0.9201,-0.9498,-0.9787,-1.0069,-1.0256,-1.0403,-1.0471,-1.0277,-1.0292,-1.0113,-0.9552,-0.9436,-0.9092,-0.8407,-0.8444,-0.8445,-0.8273,-0.8749,-0.894,-0.8299,-0.8994,-0.932,-0.8818,-0.8828,-0.875,-0.8584,-0.8184,-0.7789,-0.7526,-0.7259,-0.6875,-0.6509,-0.6562,-0.6651,-0.6778,-0.6973,-0.733,-0.7566,-0.7711,-0.786,-0.815,-0.815,-0.8519,0.0,-0.8678,-0.8806,-0.928,-0.8539,-0.8188,-0.8108,-0.7769,-0.7867,-0.8116,0.0,0.0,0.0,0.0,0.0,0.0,0.0,0.0,0.0,0.0,0.0,0.0,0.0,0.0,0.0,0.0,0.0,0.0,0.0,0.0,0.0,0.0,0.0,0.0,0.0,0.0,-0.6337,-0.642,-0.6368,-0.6459,0.0,0.0,-0.6647,-0.7027,0.0,0.0,0.0,0.0,0.0,0.0,0.0,0.0,0.0,0.0,0.0,0.0,0.0,0.0,0.0,0.0,0.0,-0.8309,-0.8533,-0.8934,-0.9467,-0.9944,-0.9746,-0.9593,-1.0176,-0.9734,-0.9167,-0.938,-0.9394,-0.9459,-0.984,-0.9997,-1.0134,-1.0517,-1.0624,-1.0573,-1.0225,-1.0233,-1.0018,0.0,-0.9038,-0.8828,-0.8384,-0.8215,-0.8292,-0.8678,-0.8945,-0.8994,-0.8804,-0.9325,-0.9513,-0.886,-0.8863,-0.8876,-0.8744,-0.8679,-0.8323,-0.7526,-0.7526,-0.7125,-0.6455,-0.6652,-0.6744,-0.6864,-0.6927,-0.7304,-0.7711,-0.7856,-0.7986,-0.8251,-0.8425,-0.877,0.0,-0.8796,-0.8785,-0.8943,-0.8385,-0.792,-0.7725,-0.7527,-0.7621,-0.7714,0.0,0.0,0.0,0.0,0.0,0.0,0.0,0.0,0.0,0.0,0.0,0.0,0.0,0.0,0.0,0.0,0.0,0.0,0.0,0.0,0.0,0.0,0.0,0.0,0.0,0.0,0.0,-0.5803,-0.6061,-0.6276,-0.6416,-0.6416,-0.6617,-0.7027,0.0,0.0,0.0,0.0,0.0,0.0,0.0,0.0,0.0,0.0,0.0,0.0,0.0,0.0,0.0,0.0,0.0,0.0,0.0,-0.8788,-0.9149,-0.9929,-1.012,-1.0103,-1.0742,-1.0657,-1.0405,-1.0509,-1.0272,-1.0218,-1.0743,-1.0227,-0.9866,-1.0797,-1.0654,-1.039,-1.0564,-1.0187,-0.967,-0.9288,-0.8946,-0.8602,-0.8186,-0.8223,-0.8211,-0.8076,-0.8309,-0.8547,-0.8588,-0.9481,-0.9786,-0.9329,-0.9475,0.0,-0.9252,-0.8853,-0.8323,-0.7526,-0.7526,-0.7125,-0.6455,-0.6853,-0.7084,-0.7279,-0.7283,-0.7526,-0.815,-0.844,-0.8668,-0.8566,-0.9109,-0.9242,0.0,-0.8871,-0.8739,-0.8836,-0.8356,-0.792,-0.7725,-0.7823,-0.7616,-0.7399,0.0,0.0,0.0,0.0,0.0,0.0,0.0,0.0,0.0,0.0,0.0,0.0,0.0,0.0,0.0,0.0,0.0,0.0,0.0,0.0,0.0,0.0,0.0,0.0,0.0,0.0,0.0,0.0,0.0,-0.6263,-0.6143,-0.6565,-0.6851,-0.7069,-0.7279,-0.7572,0.0,0.0,0.0,0.0,0.0,0.0,-0.7025,0.0,0.0,0.0,0.0,0.0,0.0,0.0,0.0,0.0,0.0,0.0,0.0,-0.9953,-0.9993,-0.9806,-1.0058,-1.0007,-0.9841,-0.9742,-0.9662,-0.9635,-0.9867,-0.9755,-0.978,-1.0118,-1.0186,-1.0146,-1.0072,-0.9823,-0.9535,-0.9104,-0.8912,-0.8676,-0.8558,-0.8588,-0.8627,-0.8721,-0.8646,-0.87,-0.8948,-0.9284,-0.9417,-0.9119,-0.9453,-0.9395,-0.887,-0.8679,-0.8323,-0.7927,-0.766,-0.7259,-0.6853,-0.6719,-0.6681,-0.6864,-0.6864,-0.7243,-0.7711,-0.7856,-0.7986,-0.8246,-0.8425,-0.8723,0.0,-0.8479,-0.8311,-0.8413,-0.7921,-0.7628,-0.7285,-0.7377,-0.7317,-0.6942,0.0,0.0,0.0,0.0,0.0,0.0,0.0,0.0,0.0,0.0,0.0,0.0,0.0,0.0,0.0,0.0,0.0,0.0,0.0,0.0,0.0,0.0,0.0,0.0,0.0,0.0,0.0,0.0,0.0,0.0,0.0,0.0,-0.703,-0.7232,-0.7418,-0.767,0.0,0.0,0.0,0.0,0.0,0.0,-0.7096,0.0,0.0,0.0,0.0,0.0,0.0,0.0,0.0,0.0,0.0,0.0,0.0,0.0,-0.9247,-0.9323,-1.0059,-1.0159,-1.0007,-0.9996,-0.9945,-0.9818,-0.9897,-0.9701,-0.9551,-0.9771,-0.9659,-0.9528,-0.9603,-0.9217,-0.8832,-0.8857,-0.8543,-0.8365,-0.8624,-0.8591,-0.8549,-0.8522,-0.8797,-0.8858,-0.8604,-0.9117,-0.9305,-0.8752,-0.9021,-0.8938,-0.8456,-0.8323,-0.8056,-0.7927,-0.7922,-0.7655,-0.6982,-0.6853,-0.6953,-0.6864,-0.6725,-0.696,-0.7566,-0.7566,-0.7693,-0.7805,-0.7991,0.0,0.0,-0.8045,-0.7879,-0.785,-0.7491,-0.719,-0.6833,-0.7037,-0.6986,-0.6788,0.0,0.0,0.0,0.0,0.0,0.0,0.0,0.0,0.0,0.0,0.0,0.0,0.0,0.0,0.0,0.0,0.0,0.0,0.0,0.0,0.0,0.0,0.0,0.0,0.0,0.0,0.0,-0.5409,-0.5913,-0.6243,-0.6442,0.0,0.0,-0.7349,-0.7572,-0.7753,0.0,0.0,0.0,0.0,0.0,0.0,0.0,0.0,0.0,0.0,0.0,0.0,0.0,0.0,0.0,0.0,0.0,0.0,0.0,0.0,0.0,0.0,0.0,-1.0813,-1.0632,-1.0897,-1.0695,-1.0485,-1.0559,-0.9893,0.0,-0.9701,-0.9135,-0.8765,-0.9214,-0.8393,-0.7884,-0.8664,-0.8125,-0.7836,-0.841,-0.831,-0.8034,-0.7725,-0.889,-0.9117,-0.7853,-0.9023,-0.9329,-0.8198,-0.8345,-0.8338,-0.8051,-0.766,-0.7526,-0.7526,-0.8189,-0.8051,-0.6987,-0.7254,-0.7355,-0.727,-0.686,-0.6956,-0.7557,-0.7562,-0.7517,0.0,-0.7814,0.0,0.0,-0.7585,-0.7308,-0.7025,-0.7065,-0.6747,-0.6518,-0.6526,-0.6631,-0.6769,0.0,0.0,0.0,0.0,0.0,0.0,0.0,0.0,0.0,0.0,0.0,0.0,0.0,0.0,0.0,0.0,0.0,0.0,0.0,0.0,0.0,0.0,0.0,0.0,0.0,0.0,0.0,-0.5317,-0.6271,-0.6425,-0.5851,-0.6746,0.0,0.0,0.0,0.0,0.0,0.0,0.0,0.0,0.0,0.0,0.0,0.0,0.0,0.0,-0.7233,-0.7276,0.0,0.0,0.0,0.0,0.0,0.0,0.0,0.0,-0.8133,-0.8258,-0.9365,0.0,-0.9762,-1.0156,-1.0078,-0.9926,0.0,-0.9421,-0.922,-0.921,-0.899,-0.8883,-0.8989,-0.8364,-0.8176,-0.9174,-0.8798,-0.8488,-0.8589,-0.8575,-0.8636,-0.8689,-0.8791,-0.8712,-0.8087,-0.8199,-0.81,-0.7723,-0.7987,-0.803,-0.7655,-0.7526,-0.7526,-0.7526,-0.766,-0.7522,-0.6982,-0.6853,-0.6783,-0.676,-0.6692,-0.6782,-0.7031,-0.7102,-0.6978,-0.6669,-0.7052,0.0,-0.6935,-0.7002,-0.7002,-0.6831,-0.6945,-0.6566,-0.6005,-0.6356,-0.6444,-0.6239,0.0,0.0,0.0,0.0,0.0,0.0,0.0,0.0,0.0,0.0,0.0,0.0,0.0,0.0,0.0,0.0,0.0,0.0,0.0,0.0,0.0,0.0,0.0,0.0,0.0,0.0,0.0,0.0,0.0,-0.6415,0.0,0.0,0.0,0.0,0.0,0.0,0.0,0.0,0.0,0.0,-0.6914,0.0,0.0,0.0,0.0,0.0,-0.7321,-0.7377,0.0,-0.8045,-0.8112,-0.8044,0.0,0.0,0.0,0.0,-0.7667,-0.7667,-0.8561,-0.9029,-0.9368,-0.9746,-0.9732,-0.9577,-0.9368,-0.9106,-0.8924,-0.8903,-0.8718,-0.8634,-0.8722,-0.8088,-0.7836,-0.8755,-0.8417,-0.8146,-0.8381,-0.842,-0.8433,-0.8633,-0.8647,-0.8433,0.0,-0.7961,-0.7702,-0.7122,-0.7331,-0.7341,-0.7121,-0.6991,-0.6991,-0.6991,-0.6853,-0.6853,-0.6982,-0.6987,-0.6927,-0.6927,-0.6979,-0.7072,-0.7204,-0.6821,-0.6559,-0.641,-0.661,0.0,-0.6339,-0.6587,-0.6452,-0.6346,-0.6391,-0.6119,-0.5832,-0.5873,-0.5937,-0.6012,0.0,0.0,0.0,0.0,0.0,0.0,0.0,0.0,0.0,0.0,0.0,0.0,0.0,0.0,0.0,0.0,0.0,0.0,0.0,0.0,0.0,0.0,0.0,0.0,0.0,0.0,0.0,0.0,0.0,0.0,0.0,0.0,-0.7209,0.0,0.0,0.0,0.0,0.0,0.0,-0.7099,-0.6932,0.0,0.0,0.0,0.0,0.0,0.0,0.0,0.0,-0.799,-0.8118,-0.8099,-0.8057,0.0,0.0,0.0,0.0,0.0,-0.7981,-0.858,-0.9061,-0.9377,-0.932,-0.9176,-0.9071,-0.8804,-0.8546,-0.8676,-0.8479,-0.8334,-0.8595,-0.7788,-0.7356,-0.8245,-0.7886,-0.7757,-0.8334,-0.809,-0.788,-0.8245,-0.8351,0.0,-0.7557,-0.7696,-0.75,-0.6708,-0.6666,-0.6626,-0.6447,-0.6455,-0.6455,-0.6455,-0.6183,-0.6313,-0.6849,-0.7121,-0.7215,-0.7261,-0.7135,-0.723,-0.7399,-0.6696,-0.6268,-0.6264,0.0,0.0,-0.5677,-0.6033,-0.6048,-0.568,-0.5825,-0.5683,-0.5535,-0.5247,-0.5436,-0.5803,0.0,0.0,0.0,0.0,0.0,0.0,0.0,0.0,0.0,0.0,0.0,0.0,0.0,0.0,0.0,0.0,0.0,0.0,0.0,0.0,0.0,0.0,0.0,0.0,0.0,0.0,0.0,0.0,0.0,0.0,-0.6123,-0.677,-0.707,0.0,0.0,0.0,-0.6959,-0.6598,-0.6547,-0.6747,-0.6667,0.0,0.0,0.0,0.0,0.0,0.0,0.0,0.0,-0.8018,-0.8137,-0.8071,-0.7948,0.0,0.0,0.0,0.0,0.0,-0.7656,-0.7936,-0.8199,-0.8616,-0.8521,-0.8293,-0.8408,-0.8294,-0.8259,-0.8609,-0.8585,-0.8545,-0.8665,-0.784,-0.7542,-0.8798,-0.8369,-0.8226,-0.8989,-0.8367,-0.7917,-0.8438,0.0,-0.7296,-0.708,-0.6667,-0.6358,-0.6414,-0.6308,-0.6357,-0.6447,-0.6455,-0.6455,-0.6455,-0.6451,-0.6317,-0.6046,-0.618,-0.6369,-0.6748,-0.6407,-0.6352,-0.6452,-0.6087,-0.5683,-0.5389,0.0,-0.5613,-0.5389,-0.5603,-0.5617,-0.5392,-0.5683,-0.5389,-0.4956,-0.5104,-0.529,-0.5512,0.0,0.0,0.0,0.0,0.0,0.0,0.0,0.0,0.0,0.0,0.0,0.0,0.0,0.0,0.0,0.0,0.0,0.0,0.0,0.0,0.0,0.0,0.0,0.0,0.0,0.0,0.0,0.0,0.0,-0.6363,-0.654,-0.6668,-0.6774,-0.6816,0.0,0.0,-0.6389,-0.6297,-0.6453,-0.6772,0.0,0.0,0.0,0.0,0.0,0.0,0.0,0.0,0.0,0.0,-0.8027,-0.793,-0.794,0.0,0.0,0.0,0.0,0.0,-0.7745,-0.774,-0.7672,-0.8026,-0.8074,-0.7899,-0.7411,-0.7341,-0.7506,-0.7772,-0.7844,-0.7825,-0.785,-0.7624,-0.7645,-0.8045,-0.7348,-0.7077,-0.7611,-0.7219,-0.71,0.0,0.0,-0.6941,-0.6933,-0.6469,-0.6252,-0.6304,-0.6317,-0.6357,-0.6447,-0.6317,-0.6317,-0.6455,-0.6053,-0.5915,-0.5912,-0.5781,-0.5822,-0.6317,-0.6399,-0.6344,-0.629,-0.5794,-0.5392,-0.5244,0.0,-0.5329,-0.5244,-0.5317,-0.5329,-0.525,-0.5247,-0.4956,-0.4665,-0.481,-0.5017,-0.5109,0.0,0.0,0.0,0.0,0.0,0.0,0.0,0.0,0.0,0.0,0.0,0.0,0.0,0.0,0.0,0.0,0.0,0.0,0.0,0.0,0.0,0.0,0.0,0.0,0.0,0.0,-0.5602,-0.638,-0.6389,-0.665,-0.707,-0.6752,-0.6559,0.0,0.0,0.0,-0.6011,-0.6006,-0.63,-0.6701,0.0,0.0,0.0,0.0,0.0,0.0,0.0,0.0,0.0,0.0,0.0,0.0,0.0,0.0,0.0,-0.7757,-0.7459,-0.7255,-0.7856,-0.7648,-0.7302,-0.7458,-0.7581,-0.7509,-0.7003,-0.6796,-0.689,-0.725,-0.7322,-0.7277,-0.7131,-0.7557,-0.7647,-0.6955,-0.6594,-0.6318,-0.6352,-0.6317,-0.6261,-0.6685,-0.665,-0.6575,-0.6557,-0.6487,-0.6353,-0.63,-0.6296,-0.6333,-0.6447,-0.6183,-0.6049,-0.6455,-0.5785,-0.5513,-0.5778,-0.5647,-0.5687,-0.5902,-0.626,-0.6204,-0.6005,-0.5361,-0.5101,-0.5098,-0.5048,-0.5057,-0.5098,-0.5048,-0.5057,-0.5101,-0.481,-0.4665,-0.4665,-0.4665,-0.4733,-0.4826,0.0,0.0,0.0,0.0,0.0,0.0,0.0,0.0,0.0,0.0,0.0,0.0,0.0,0.0,0.0,0.0,0.0,0.0,0.0,0.0,0.0,0.0,0.0,0.0,0.0,-0.5838,-0.5898,-0.6024,-0.6478,-0.6935,-0.7363,-0.6976,-0.6759,-0.6746,0.0,-0.6112,-0.6219,-0.576,-0.5883,-0.6445,-0.6385,0.0,0.0,0.0,0.0,0.0,0.0,0.0,0.0,0.0,0.0,0.0,0.0,0.0,-0.7693,-0.768,-0.7585,-0.7494,-0.7672,-0.7454,-0.7052,-0.6879,-0.6892,-0.7111,-0.7739,-0.7265,-0.6973,-0.7825,-0.7842,-0.7631,-0.7319,-0.7778,-0.7729,-0.6349,-0.6894,-0.738,-0.678,0.0,-0.6215,-0.6453,-0.6155,-0.5945,-0.6035,-0.5974,-0.6035,-0.6296,-0.6239,-0.6268,-0.6443,-0.6183,-0.6049,-0.6455,-0.5785,-0.5379,-0.5379,-0.5781,-0.5822,-0.5495,-0.5289,-0.5222,-0.5292,-0.4927,-0.4665,-0.4665,-0.466,-0.466,-0.4665,-0.466,-0.466,-0.4665,-0.4665,-0.4665,-0.4665,-0.4665,-0.4706,-0.4768,0.0,0.0,0.0,0.0,0.0,0.0,0.0,0.0,0.0,0.0,0.0,0.0,0.0,0.0,0.0,0.0,0.0,0.0,0.0,0.0,0.0,0.0,0.0,-0.5833,-0.5956,-0.5809,-0.6027,-0.6636,-0.7076,-0.7447,-0.7701,-0.699,0.0,0.0,0.0,-0.5644,-0.5679,-0.5633,-0.5985,-0.6542,-0.6618,-0.689,0.0,0.0,0.0,0.0,0.0,0.0,0.0,0.0,-0.7476,-0.7416,-0.7387,-0.7402,-0.7485,-0.7667,-0.7624,-0.7582,-0.7947,-0.77,-0.7498,-0.7788,-0.7349,-0.6936,-0.6966,-0.6656,-0.6492,-0.6863,-0.6873,-0.678,-0.6981,-0.6608,-0.6121,-0.6029,-0.6201,-0.6132,-0.5922,-0.5877,-0.5881,-0.5877,-0.5927,-0.5953,-0.6043,-0.597,-0.6006,-0.6215,-0.5945,-0.585,-0.6101,-0.5756,-0.5781,-0.6049,-0.5912,-0.5647,-0.5647,-0.5647,-0.5393,-0.5014,-0.5224,-0.5156,-0.4803,-0.4723,-0.463,-0.4665,-0.4665,-0.4665,-0.4665,-0.4665,-0.4665,-0.4665,-0.4665,-0.4665,-0.4665,-0.4371,-0.4407,-0.4312,0.0,0.0,0.0,0.0,0.0,0.0,0.0,0.0,0.0,0.0,0.0,0.0,0.0,0.0,0.0,0.0,0.0,0.0,0.0,0.0,0.0,0.0,0.0,-0.6064,-0.5998,-0.589,-0.6186,-0.6891,-0.739,-0.7602,-0.7574,0.0,0.0,0.0,-0.5608,-0.5409,-0.5456,-0.5637,-0.6059,-0.6587,-0.6705,-0.6976,0.0,0.0,0.0,0.0,0.0,0.0,0.0,0.0,-0.7321,-0.7208,-0.7298,-0.7366,-0.7392,-0.7676,-0.7536,-0.7404,-0.7709,-0.7453,-0.7207,-0.7709,-0.7273,-0.6711,-0.6486,-0.6261,-0.6144,-0.6376,-0.6162,-0.6065,-0.6508,-0.5971,-0.5507,-0.5675,-0.5755,-0.5678,-0.5377,-0.5533,-0.5643,-0.5643,-0.5806,-0.5941,-0.6002,-0.5953,-0.5978,-0.6002,-0.5781,-0.5706,-0.5792,-0.5608,-0.5647,-0.6049,-0.5778,-0.5644,-0.5778,-0.5379,-0.4977,-0.4708,-0.5024,-0.4947,-0.4458,-0.4537,-0.4597,-0.4635,-0.4657,-0.4665,-0.4665,-0.4665,-0.4665,-0.4665,-0.4665,-0.4665,-0.4665,-0.4226,-0.4102,-0.4137,0.0,0.0,0.0,0.0,0.0,0.0,0.0,0.0,0.0,0.0,0.0,0.0,0.0,0.0,0.0,0.0,0.0,0.0,0.0,0.0,0.0,0.0,0.0,-0.6214,-0.5998,-0.6183,-0.643,-0.6695,-0.719,-0.7209,-0.6901,-0.6406,0.0,0.0,-0.5499,-0.5512,-0.5697,-0.5772,-0.613,-0.66,-0.6441,-0.6652,-0.6985,0.0,0.0,0.0,0.0,0.0,0.0,0.0,-0.7209,-0.7276,-0.7583,-0.7576,-0.7544,-0.7722,-0.7439,-0.6976,-0.69,-0.6462,-0.6053,-0.6233,-0.6407,-0.6517,-0.6769,-0.6336,-0.6067,-0.6655,-0.619,-0.5676,-0.5897,-0.6027,-0.5964,-0.5322,-0.5895,-0.6146,-0.5481,-0.5533,-0.5643,-0.5643,-0.5806,-0.5916,-0.5916,-0.5916,-0.583,-0.5663,-0.5623,-0.5706,-0.5792,-0.5604,-0.5781,-0.6455,-0.5376,-0.4977,-0.5379,-0.4977,-0.4574,-0.4308,-0.4574,-0.4606,-0.4403,-0.4521,-0.4572,-0.4578,-0.4638,-0.4665,-0.4665,-0.4665,-0.4665,-0.4665,-0.4665,-0.4665,-0.4665,-0.4226,-0.408,-0.3942,0.0,0.0,0.0,0.0,0.0,0.0,0.0,0.0,0.0,0.0,0.0,0.0,0.0,0.0,0.0,0.0,0.0,0.0,0.0,0.0,0.0,0.0,0.0,0.0,0.0,0.0,-0.6505,-0.6704,-0.6856,-0.6867,0.0,0.0,0.0,-0.5546,0.0,-0.551,-0.5725,-0.6028,-0.6388,-0.6824,-0.6783,-0.6835,-0.6985,0.0,0.0,0.0,0.0,0.0,0.0,0.0,0.0,0.0,-0.6993,-0.6902,-0.6882,-0.7214,-0.6917,-0.6511,-0.6574,-0.6398,-0.6233,-0.6172,-0.6097,-0.625,-0.6736,-0.6491,-0.6166,-0.6207,-0.5978,-0.5863,-0.5912,-0.599,-0.5845,-0.5331,-0.5516,-0.5682,-0.5377,-0.5533,-0.5643,-0.5643,-0.5806,-0.5794,-0.5544,-0.5544,-0.5432,-0.5088,-0.5157,-0.5234,-0.5314,-0.5522,-0.5727,-0.5781,-0.5644,-0.551,-0.5379,-0.4977,-0.4705,-0.4708,-0.4574,-0.4473,-0.4401,-0.4474,-0.4531,-0.4578,-0.4638,-0.4665,-0.4665,-0.4371,-0.4226,-0.4226,-0.4226,-0.4226,-0.4226,-0.3791,-0.3646,-0.3502,0.0,0.0,0.0,0.0,0.0,0.0,0.0,0.0,0.0,0.0,-0.5561,-0.5561,0.0,0.0,0.0,0.0,0.0,0.0,0.0,0.0,0.0,0.0,0.0,0.0,0.0,-0.6349,-0.6405,0.0,0.0,0.0,0.0,0.0,-0.572,-0.549,0.0,-0.5788,-0.59,-0.6284,-0.6554,-0.6745,-0.6787,-0.6829,-0.6872,0.0,0.0,0.0,0.0,0.0,0.0,0.0,0.0,0.0,-0.6786,-0.6736,-0.6695,-0.6929,-0.6557,-0.6063,-0.611,-0.5985,-0.5763,-0.5695,-0.5701,-0.5797,-0.6008,-0.6219,-0.6293,-0.593,-0.5828,-0.5787,-0.5634,-0.5588,-0.5513,-0.5284,-0.5345,-0.5394,-0.5426,-0.5553,-0.5659,-0.5696,-0.5706,-0.5667,-0.5421,-0.5421,-0.5298,-0.4933,-0.5001,-0.5073,-0.5148,-0.536,-0.5436,-0.5379,-0.5379,-0.5376,-0.5111,-0.4842,-0.4574,-0.4574,-0.444,-0.4327,-0.4365,-0.4447,-0.4501,-0.4542,-0.4627,-0.4665,-0.4665,-0.4371,-0.4226,-0.408,-0.408,-0.3935,-0.3789,-0.3354,-0.3209,-0.3209,0.0,0.0,0.0,0.0,0.0,0.0,0.0,0.0,0.0,0.0,-0.5638,-0.5701,0.0,0.0,0.0,0.0,0.0,0.0,0.0,0.0,0.0,0.0,0.0,0.0,0.0,0.0,0.0,0.0,0.0,0.0,0.0,0.0,-0.5891,-0.5558,0.0,-0.6204,-0.6104,-0.6506,-0.6623,-0.652,-0.6617,-0.6672,-0.6672,-0.6532,0.0,0.0,0.0,0.0,0.0,0.0,0.0,0.0,-0.6817,-0.6814,-0.6784,-0.6872,-0.6317,-0.5644,-0.5596,-0.5292,-0.4971,-0.4968,-0.5205,-0.5331,-0.5036,-0.5794,-0.634,-0.5721,-0.5615,-0.5514,-0.5193,-0.519,-0.5275,-0.5365,-0.5382,-0.541,-0.5496,-0.5462,-0.555,-0.565,-0.5487,-0.5291,-0.5298,-0.5298,-0.5176,-0.4933,-0.4994,-0.5066,-0.5148,-0.4956,-0.5027,-0.5379,-0.497,-0.483,-0.4696,-0.4437,-0.4305,-0.43,-0.4305,-0.4308,-0.4311,-0.4422,-0.448,-0.4496,-0.4613,-0.4665,-0.4665,-0.4665,-0.4371,-0.408,-0.408,-0.3789,-0.35,-0.3063,-0.2917,-0.2771,0.0,0.0,0.0,0.0,0.0,0.0,0.0,0.0,0.0,0.0,0.0,0.0,0.0,0.0,0.0,0.0,0.0,0.0,0.0,0.0,0.0,0.0,0.0,0.0,0.0,0.0,0.0,0.0,0.0,0.0,0.0,0.0,0.0,-0.5677,0.0,-0.6132,-0.6096,-0.6355,-0.6551,-0.666,-0.6575,-0.6617,-0.6672,-0.6502,-0.6544,0.0,0.0,0.0,0.0,0.0,0.0,0.0,-0.6594,-0.6313,-0.6088,-0.6699,-0.6097,-0.5268,-0.5457,-0.5064,-0.4564,-0.4304,-0.4722,-0.5268,-0.5529,-0.5839,-0.5853,-0.5253,-0.5426,-0.562,-0.5289,-0.5556,-0.5709,-0.5477,-0.5382,-0.5298,-0.5157,-0.5184,-0.5137,-0.5043,-0.4955,-0.4868,-0.4677,-0.481,-0.481,-0.4561,-0.4823,-0.5015,-0.5148,-0.5114,-0.5049,-0.497,-0.4793,-0.4634,-0.4367,-0.4283,-0.4283,0.0,-0.4283,-0.4308,-0.4311,-0.4384,-0.4466,-0.4559,-0.4632,-0.4517,-0.4226,-0.4226,-0.3935,-0.3646,-0.3935,-0.3789,-0.35,-0.3354,-0.3209,-0.2771,0.0,0.0,0.0,0.0,0.0,0.0,0.0,0.0,0.0,0.0,0.0,0.0,0.0,0.0,0.0,0.0,0.0,0.0,0.0,0.0,0.0,0.0,0.0,0.0,0.0,0.0,0.0,0.0,0.0,0.0,-0.5855,-0.5865,-0.5788,-0.5722,-0.6103,-0.6221,-0.6147,-0.6451,-0.6569,-0.6544,-0.6532,-0.6532,-0.6544,-0.6361,-0.6404,-0.6544,-0.6404,0.0,0.0,0.0,0.0,0.0,0.0,0.0,-0.618,-0.6744,-0.6256,-0.5575,-0.5673,-0.5299,-0.4694,-0.4274,-0.4778,-0.5318,-0.5338,-0.5398,-0.5465,-0.5174,-0.5287,-0.5396,-0.5218,-0.5499,-0.5545,-0.5258,-0.5154,-0.5186,-0.5043,-0.494,-0.4984,-0.5108,-0.4766,-0.4554,-0.4626,-0.4635,-0.4526,-0.4435,-0.4564,-0.4732,-0.4842,-0.4684,-0.46,-0.4478,-0.4481,-0.435,-0.4215,-0.4278,-0.4292,-0.4262,-0.4292,-0.4308,-0.4311,-0.4371,-0.4447,-0.4534,-0.4594,-0.4477,-0.4047,-0.4361,-0.3935,-0.3209,-0.3646,-0.35,-0.2917,-0.2917,-0.2771,-0.2624,0.0,0.0,0.0,0.0,0.0,0.0,0.0,0.0,0.0,0.0,0.0,0.0,0.0,0.0,0.0,0.0,0.0,0.0,0.0,0.0,0.0,0.0,0.0,0.0,0.0,0.0,0.0,0.0,0.0,-0.5628,-0.5624,-0.5836,-0.5872,-0.5738,-0.6259,-0.6361,-0.6131,-0.6439,-0.647,-0.6276,-0.6361,-0.6361,-0.6331,-0.619,-0.6233,-0.6331,-0.619,-0.6233,-0.6361,-0.6319,0.0,0.0,0.0,0.0,-0.6506,-0.6766,-0.6454,-0.6053,-0.5997,-0.549,-0.4918,-0.4487,-0.4787,-0.5082,-0.4831,-0.4882,-0.5023,-0.5105,-0.5085,-0.503,-0.5226,-0.5206,-0.5154,-0.4931,-0.4819,-0.4845,-0.4929,-0.47,-0.4721,-0.528,-0.4705,-0.4381,-0.4574,-0.4469,-0.4377,-0.4435,-0.4438,-0.4468,-0.4536,-0.4153,-0.4057,-0.4139,-0.418,-0.4207,-0.4215,-0.4278,-0.4303,-0.4292,-0.4303,-0.4308,-0.4308,-0.436,-0.4414,-0.4471,-0.4542,-0.429,-0.3866,-0.4351,-0.3935,-0.2917,-0.3354,-0.3063,-0.2333,-0.2333,-0.2333,-0.2333,0.0,0.0,0.0,0.0,0.0,0.0,0.0,0.0,0.0,0.0,-0.5701,-0.5701,0.0,0.0,0.0,0.0,0.0,0.0,0.0,0.0,0.0,0.0,0.0,0.0,0.0,0.0,0.0,0.0,-0.5309,-0.5324,-0.5282,-0.5821,-0.5961,-0.5808,-0.6307,-0.6191,-0.5702,-0.5962,-0.6013,-0.5879,-0.5847,-0.589,-0.6019,-0.5922,-0.5922,-0.6019,-0.5879,-0.6007,-0.6179,-0.5964,-0.6105,0.0,0.0,0.0,-0.644,-0.6522,-0.6433,-0.6236,-0.6063,-0.5366,-0.4574,-0.4339,-0.4118,-0.4106,-0.4563,-0.4512,-0.4422,-0.4518,-0.4671,-0.4813,-0.5118,-0.4875,-0.4704,-0.4819,-0.4704,-0.4508,-0.4243,-0.4202,-0.4098,-0.3989,-0.3886,-0.3911,-0.3973,-0.427,-0.4429,-0.4438,-0.4438,-0.4468,-0.4536,-0.4114,-0.4036,-0.4199,-0.4161,-0.4164,-0.4215,-0.4278,-0.4281,-0.4229,-0.4283,-0.4308,-0.4308,-0.4316,-0.4352,-0.4417,-0.4526,-0.4147,-0.358,-0.4059,-0.3644,-0.2917,-0.3354,-0.3209,-0.2771,-0.2771,-0.2624,-0.2333,0.0,0.0,0.0,0.0,0.0,0.0,0.0,0.0,0.0,0.0,0.0,-0.5606,0.0,0.0,0.0,0.0,0.0,0.0,0.0,0.0,0.0,0.0,0.0,0.0,0.0,0.0,0.0,0.0,-0.5182,-0.5169,-0.5227,-0.5624,-0.5782,-0.5708,-0.6075,-0.6055,-0.5708,-0.5887,-0.5871,-0.5728,-0.5593,-0.566,-0.5804,-0.5534,-0.5491,-0.5576,-0.5363,-0.543,-0.5566,-0.5464,-0.561,-0.5912,-0.5869,0.0,0.0,0.0,-0.6268,-0.6063,-0.5905,-0.5351,-0.4813,-0.472,-0.4603,-0.4555,-0.4628,-0.458,-0.4498,-0.4343,-0.4191,-0.4228,-0.4676,-0.4618,-0.4436,-0.4365,-0.426,-0.4158,-0.4076,-0.3942,-0.3833,-0.4116,-0.3896,-0.3819,-0.4035,-0.407,-0.4116,-0.4066,-0.4071,-0.4083,-0.4111,-0.3965,-0.3986,-0.4316,-0.4232,-0.4268,-0.4426,-0.4395,-0.4294,-0.4267,-0.4294,-0.4308,-0.4308,-0.4308,-0.4322,-0.4354,-0.4192,-0.3817,-0.34,-0.3616,-0.3352,-0.2624,-0.3063,-0.2917,-0.2624,-0.2624,-0.2478,-0.2333,0.0,0.0,0.0,0.0,0.0,0.0,0.0,0.0,0.0,0.0,0.0,0.0,0.0,0.0,0.0,0.0,0.0,0.0,0.0,0.0,0.0,0.0,0.0,0.0,0.0,0.0,0.0,-0.5182,-0.5055,-0.5034,-0.5152,-0.5384,-0.5551,-0.5706,-0.5977,-0.5956,-0.581,-0.5741,-0.5758,-0.57,-0.5368,-0.5413,-0.5644,-0.5199,-0.518,-0.5279,-0.4948,-0.4978,-0.5162,-0.5118,-0.5262,-0.5545,-0.5609,-0.5726,0.0,0.0,0.0,-0.5882,-0.5662,-0.5375,-0.5065,-0.4983,-0.4886,-0.4728,-0.4633,-0.4486,-0.4394,-0.4182,-0.3827,-0.3742,-0.4079,-0.4131,-0.4173,-0.4003,-0.3916,-0.3924,-0.3924,-0.3701,-0.381,-0.4257,-0.3936,-0.376,-0.4082,-0.3892,-0.3831,-0.3921,-0.3943,-0.3951,-0.3951,-0.3951,-0.408,-0.4339,-0.4181,-0.424,-0.4514,-0.4364,-0.4292,-0.4308,-0.4308,-0.4308,-0.4308,-0.4308,-0.4308,-0.4313,-0.4003,-0.3634,-0.3371,-0.3307,-0.3054,-0.2478,-0.2771,-0.2771,-0.2624,-0.2624,-0.2624,-0.2624,0.0,0.0,0.0,0.0,0.0,0.0,0.0,0.0,0.0,0.0,0.0,0.0,0.0,0.0,0.0,-0.5417,-0.5467,-0.5561,-0.5701,-0.5701,-0.5669,-0.5529,-0.5404,0.0,-0.5201,-0.5201,-0.5106,-0.4915,-0.4992,-0.5,-0.5001,-0.5143,-0.5489,-0.6005,-0.601,-0.5911,-0.579,-0.5455,-0.5521,-0.5731,-0.503,-0.5149,-0.5653,-0.5043,-0.5076,-0.5426,-0.4755,-0.487,-0.5345,-0.5095,-0.5293,-0.5608,-0.5682,-0.5817,-0.599,0.0,0.0,0.0,-0.5485,-0.5206,-0.499,-0.4785,-0.4317,-0.3997,-0.4274,-0.4039,-0.3745,-0.3603,-0.3589,-0.3561,-0.3422,-0.3422,-0.3608,-0.3829,-0.3772,-0.3589,-0.3589,-0.3589,-0.3589,-0.3589,-0.3638,-0.3676,-0.3681,-0.3788,-0.3858,-0.3864,-0.3918,-0.3951,-0.3951,-0.3951,-0.3976,-0.4027,-0.4036,-0.4065,-0.4125,-0.4188,-0.4251,-0.4308,-0.4308,-0.4308,-0.4308,-0.4308,-0.4308,-0.4311,-0.3964,-0.3742,-0.3227,-0.2989,-0.2885,-0.2917,-0.2917,-0.3063,-0.35,-0.35,-0.35,-0.3354,0.0,0.0,0.0,0.0,0.0,0.0,0.0,0.0,0.0,0.0,0.0,0.0,0.0,-0.5246,-0.5246,-0.5309,-0.5404,-0.5515,-0.5763,-0.5732,-0.5669,-0.5638,-0.5467,-0.5295,-0.5201,-0.5119,-0.5023,-0.4884,-0.4915,-0.5034,-0.5276,-0.533,-0.562,-0.6133,-0.5891,-0.5779,-0.5701,-0.5333,-0.5241,-0.5376,-0.4857,-0.4951,-0.5404,-0.4953,-0.49,-0.4923,-0.4426,-0.4399,-0.4599,-0.4267,-0.433,-0.4606,-0.4899,-0.5075,-0.5179,-0.5333,-0.5295,-0.5227,-0.5289,-0.5239,-0.5241,-0.5311,-0.5109,-0.4855,-0.4733,-0.4426,-0.4059,-0.3905,-0.3811,-0.3788,-0.3758,-0.3638,-0.3619,-0.3594,-0.3734,-0.3763,-0.358,-0.3589,-0.3589,-0.3589,-0.3608,-0.3635,-0.3676,-0.3717,-0.376,-0.3798,-0.3858,-0.3894,-0.3894,-0.3929,-0.3959,-0.4226,-0.4139,-0.4063,-0.4125,-0.4185,-0.4229,-0.4248,-0.4289,-0.4308,-0.4308,-0.4308,-0.4174,-0.4039,-0.3924,-0.3689,-0.3605,-0.3119,-0.3011,-0.3171,-0.3052,-0.2917,-0.3063,-0.2771,-0.2771,-0.277,0.0,0.0,0.0,0.0,0.0,0.0,0.0,0.0,0.0,0.0,0.0,0.0,0.0,0.0,-0.5196,-0.5294,-0.5359,-0.5435,-0.5561,-0.5595,-0.5623,-0.5575,-0.534,-0.5169,-0.5106,-0.496,-0.4864,-0.4864,-0.495,-0.513,-0.534,-0.5359,-0.5651,-0.6132,-0.5731,-0.5673,-0.5864,-0.5433,-0.5366,-0.543,-0.4882,-0.4967,-0.5303,-0.4845,-0.471,-0.467,-0.4187,-0.4103,-0.4177,-0.3876,-0.3918,-0.4187,-0.4609,-0.4784,-0.4833,-0.5005,-0.4959,-0.4927,-0.5039,-0.5174,-0.5304,-0.5468,-0.5399,-0.5237,-0.4963,-0.4708,-0.4402,-0.4108,-0.408,-0.3995,-0.3949,-0.394,-0.3836,-0.3633,-0.3775,-0.3808,-0.3523,-0.3545,-0.3556,-0.3556,-0.3575,-0.361,-0.3673,-0.3679,-0.3703,-0.3763,0.0,0.0,-0.3858,-0.3899,-0.4052,-0.4195,-0.4111,-0.4036,-0.4095,-0.4136,-0.4177,-0.4218,-0.4259,-0.4289,-0.4308,-0.4308,-0.4174,-0.3902,-0.3902,-0.3796,-0.3577,-0.3221,-0.312,-0.3437,-0.3177,-0.305,-0.3063,-0.2771,-0.277,-0.2624,0.0,0.0,0.0,0.0,0.0,0.0,0.0,0.0,0.0,0.0,0.0,0.0,0.0,0.0,0.0,-0.5295,-0.5352,-0.5329,-0.51,-0.5357,-0.5417,-0.5291,-0.4972,-0.4832,-0.4884,-0.4692,-0.4672,-0.478,0.0,0.0,0.0,-0.5319,-0.5598,-0.5962,-0.5467,-0.5606,-0.6277,-0.5802,-0.5727,-0.5908,-0.5128,-0.5109,-0.5424,-0.4607,-0.4571,-0.4797,-0.4065,-0.4004,-0.4266,-0.4052,-0.4127,-0.4373,-0.4841,-0.4985,-0.5063,-0.4901,-0.4849,-0.4849,0.0,0.0,0.0,-0.51,-0.5055,-0.4956,-0.4831,-0.4763,-0.4589,-0.4034,-0.4188,-0.4277,-0.3908,-0.4132,-0.4257,-0.3817,-0.3785,-0.3725,-0.3412,-0.3461,-0.3493,-0.3493,-0.3548,-0.3608,-0.3668,-0.3676,-0.37,-0.376,-0.3766,-0.3793,-0.3853,-0.3858,-0.3888,-0.3948,-0.3951,-0.3976,-0.4033,-0.4033,-0.4093,-0.421,-0.4215,-0.4248,-0.4305,-0.4308,-0.4308,-0.4308,-0.3902,-0.3661,-0.3293,-0.3296,-0.3349,-0.3428,-0.3432,-0.3459,-0.3498,-0.35,-0.35,-0.3354,0.0,0.0,0.0,0.0,0.0,0.0,0.0,0.0,0.0,0.0,0.0,0.0,0.0,0.0,-0.5125,-0.5224,-0.5298,-0.53,-0.5172,-0.5233,-0.5248,-0.5151,-0.4928,-0.4812,-0.4832,-0.4768,-0.4704,-0.4672,0.0,0.0,0.0,0.0,0.0,-0.5782,-0.5626,-0.5719,-0.5898,-0.5553,-0.5487,-0.5608,-0.5159,-0.5044,-0.513,-0.4751,-0.4533,-0.4409,-0.4111,-0.4113,-0.4108,-0.388,-0.3912,-0.4065,-0.4193,-0.4205,-0.4274,-0.4352,-0.434,-0.4301,-0.4454,0.0,0.0,0.0,0.0,0.0,-0.5313,-0.5122,-0.4915,-0.467,-0.4615,-0.4611,-0.4442,-0.4473,-0.4555,-0.4178,-0.4092,-0.3988,-0.3722,-0.3532,-0.3436,-0.3436,-0.3488,-0.3529,-0.3545,-0.3586,-0.3619,0.0,-0.3679,-0.3711,-0.3728,-0.3812,-0.3888,-0.3948,-0.3951,-0.3959,-0.3973,-0.4014,-0.4052,-0.4085,-0.4174,-0.4226,-0.4243,-0.4286,-0.4174,-0.3902,-0.4037,-0.3912,-0.3656,-0.3693,-0.3725,-0.376,-0.355,-0.3297,-0.3023,-0.2762,-0.2624,-0.2624,0.0,0.0,0.0,0.0,0.0,0.0,0.0,0.0,0.0,0.0,0.0,0.0,0.0,0.0,0.0,-0.5142,-0.5259,-0.5273,-0.5204,-0.5228,-0.5215,-0.5168,-0.4904,-0.4804,-0.4883,-0.4876,-0.4865,-0.4854,0.0,0.0,0.0,0.0,0.0,0.0,-0.5504,-0.5553,-0.5712,-0.5435,-0.5387,-0.5478,-0.5229,-0.5003,-0.4791,-0.4643,-0.4431,-0.4208,-0.404,-0.4033,-0.4028,-0.3856,-0.3908,-0.4068,-0.3956,-0.4033,-0.4152,-0.4074,-0.4051,-0.4096,-0.4235,-0.4584,-0.4874,-0.4874,0.0,0.0,-0.5411,-0.537,-0.5249,-0.5079,-0.5046,-0.4984,-0.4696,-0.4849,-0.4869,-0.4626,-0.4434,-0.4171,-0.373,-0.3462,-0.3373,-0.3373,-0.3425,-0.348,-0.3529,-0.3542,-0.357,-0.3621,-0.3635,-0.3651,-0.3676,-0.3771,-0.385,-0.391,-0.3913,-0.3924,-0.3951,-0.3984,-0.4011,-0.4036,-0.4106,-0.4166,-0.4218,-0.4253,-0.415,-0.4037,-0.4037,-0.4037,-0.377,-0.3666,-0.3689,-0.3579,-0.3235,-0.2989,-0.2579,-0.2322,-0.2333,-0.2333,0.0,0.0,0.0,0.0,0.0,0.0,0.0,0.0,0.0,0.0,0.0,0.0,0.0,0.0,0.0,0.0,-0.5229,-0.5283,-0.5197,-0.5261,0.0,-0.5297,-0.4922,-0.4817,-0.5016,-0.5004,-0.5077,-0.5179,0.0,0.0,0.0,0.0,0.0,0.0,0.0,-0.5327,-0.5564,-0.5426,-0.5396,-0.5362,-0.5283,-0.4901,-0.4539,-0.4516,-0.4302,-0.409,-0.3934,-0.3895,-0.3916,-0.3928,-0.4078,-0.425,-0.3961,-0.408,-0.4278,-0.3849,-0.3924,-0.4115,-0.4069,-0.4307,-0.458,-0.4586,-0.4813,0.0,-0.5186,-0.5369,-0.5491,-0.52,-0.5271,-0.5323,-0.4743,-0.4939,-0.5114,-0.4863,-0.463,-0.4318,-0.3775,-0.3454,-0.3289,-0.3308,-0.336,-0.3436,-0.3548,-0.3521,-0.3542,-0.3649,-0.3613,-0.3613,-0.3676,-0.373,-0.3788,-0.3847,-0.3856,-0.3886,-0.394,-0.3948,-0.3976,-0.4025,-0.4033,-0.409,-0.4196,-0.421,-0.4245,-0.4297,-0.39,-0.3768,-0.3768,-0.3365,-0.3117,-0.3156,-0.2925,-0.2543,-0.2289,-0.2322,-0.2333,-0.2333,0.0,0.0,0.0,0.0,0.0,0.0,0.0,0.0,0.0,0.0,0.0,0.0,0.0,0.0,0.0,0.0,-0.5214,-0.525,-0.5276,-0.5214,0.0,-0.5234,-0.5085,-0.5048,-0.5085,-0.5092,-0.5077,-0.5114,0.0,0.0,0.0,0.0,0.0,0.0,0.0,-0.5274,-0.5278,-0.5336,-0.5093,-0.4773,-0.5109,-0.4742,-0.4133,-0.4232,-0.4101,-0.3843,-0.3864,-0.3883,-0.4022,-0.4095,-0.3934,-0.3698,-0.3663,-0.3552,-0.3379,-0.3507,-0.3586,-0.3661,-0.3967,-0.418,-0.4394,-0.4587,-0.4686,0.0,-0.4889,-0.5024,-0.5072,-0.477,-0.4977,-0.5007,-0.4457,-0.4598,-0.4777,-0.455,-0.4435,-0.4291,-0.4296,-0.3721,-0.3373,-0.3534,-0.3361,-0.3294,-0.3365,-0.3447,-0.3507,-0.3529,-0.3567,-0.3613,-0.3676,-0.3689,-0.3725,-0.3785,-0.3834,-0.3867,-0.3877,-0.3927,-0.3956,-0.3967,-0.4014,-0.4046,-0.4074,-0.4172,-0.4224,-0.4237,-0.3882,-0.3768,-0.3768,-0.3096,-0.2832,-0.2846,-0.2777,-0.2527,-0.226,-0.2313,-0.2333,-0.2333,-0.5168,0.0,0.0,0.0,0.0,0.0,0.0,0.0,0.0,0.0,0.0,0.0,0.0,-0.5208,-0.5138,0.0,0.0,0.0,0.0,0.0,-0.4998,-0.5147,-0.5097,-0.5107,-0.5186,-0.5254,-0.5319,-0.5319,0.0,0.0,0.0,0.0,0.0,0.0,0.0,-0.5086,-0.5045,-0.5064,-0.4769,-0.4403,-0.4855,-0.4561,-0.3946,-0.4152,-0.4064,-0.3838,-0.3883,-0.3989,-0.4116,-0.4035,-0.3976,-0.3835,-0.358,-0.35,-0.3495,-0.3447,-0.3535,-0.3686,-0.3727,-0.3966,-0.411,-0.4094,-0.4357,0.0,0.0,-0.4637,-0.478,-0.4759,-0.4856,-0.4821,-0.4625,-0.4758,-0.4849,-0.4604,-0.4555,-0.4475,-0.4389,-0.3871,-0.338,-0.3323,-0.3338,-0.3276,-0.3267,-0.3459,-0.3538,-0.3491,-0.3416,-0.3445,-0.3586,-0.3393,-0.3319,-0.3722,-0.3635,-0.368,-0.3858,-0.3891,-0.3921,-0.3951,-0.3978,-0.4008,-0.4036,-0.4098,-0.4028,-0.3955,-0.3585,-0.3343,-0.323,-0.2694,-0.2425,-0.2429,-0.248,-0.2371,-0.2251,-0.2296,-0.232,-0.2333,-0.5166,-0.5104,0.0,0.0,0.0,0.0,0.0,0.0,0.0,0.0,0.0,-0.5375,-0.4997,-0.5047,-0.5026,-0.4813,-0.4718,0.0,-0.5033,-0.4883,-0.4886,-0.5129,-0.5072,-0.5157,-0.5303,-0.5386,-0.5448,-0.5448,0.0,0.0,0.0,0.0,0.0,0.0,-0.4897,-0.49,-0.484,-0.4805,-0.45,-0.4121,-0.4552,-0.4378,-0.3909,-0.4141,-0.4152,-0.3916,-0.3938,-0.4022,-0.4098,-0.392,-0.3894,-0.3968,-0.3643,-0.3668,-0.3754,-0.3491,-0.3509,-0.3674,-0.3505,-0.3659,-0.375,-0.3591,-0.3904,-0.4136,0.0,0.0,0.0,-0.4697,-0.4625,-0.4563,-0.4675,-0.485,-0.4885,-0.4567,0.0,0.0,0.0,-0.3871,0.0,-0.3155,-0.326,-0.3308,-0.3134,-0.3407,-0.352,-0.3469,-0.3245,-0.3247,-0.3496,-0.2992,-0.3038,-0.3545,-0.3327,-0.326,-0.3704,-0.3727,-0.3762,-0.3809,-0.3822,-0.3976,-0.4019,-0.3904,-0.384,-0.3672,-0.3161,-0.2926,-0.2694,-0.229,-0.2155,-0.2158,-0.2188,-0.2215,-0.224,-0.2271,-0.23,-0.2324,-0.53,-0.5124,-0.4915,0.0,0.0,0.0,0.0,0.0,0.0,0.0,0.0,-0.5346,-0.4847,-0.4915,-0.4977,-0.49,-0.4504,-0.4525,-0.5148,-0.4943,-0.4935,-0.52,-0.532,-0.5353,-0.5409,-0.5287,-0.5241,-0.5241,0.0,0.0,0.0,0.0,0.0,0.0,-0.4973,-0.4861,-0.4629,-0.4653,-0.4374,-0.4037,-0.4298,-0.4087,-0.3726,-0.4095,-0.4053,-0.3924,-0.3836,-0.3815,-0.3834,-0.365,-0.3449,-0.3283,-0.3542,-0.3471,-0.3287,-0.342,-0.3419,-0.3258,-0.3303,-0.3209,-0.3174,-0.3479,-0.3448,-0.3507,-0.3726,0.0,-0.3848,-0.3895,0.0,-0.4278,-0.3991,0.0,0.0,-0.3929,-0.4082,-0.4121,-0.3798,-0.3634,-0.3572,-0.3387,-0.3159,-0.3019,-0.2828,-0.3026,-0.3214,-0.3401,-0.3322,-0.333,-0.3488,-0.3179,-0.3095,-0.3145,-0.2963,-0.2877,-0.2888,-0.3329,-0.35,-0.3507,-0.3801,-0.3954,-0.3962,-0.3638,-0.3565,-0.362,-0.2884,-0.2658,-0.2694,-0.229,-0.2155,-0.2158,-0.2188,-0.2202,-0.2208,-0.224,-0.227,-0.2296,-0.5309,-0.5151,-0.496,-0.4788,0.0,0.0,0.0,0.0,0.0,0.0,-0.5107,-0.522,-0.4672,-0.4934,-0.4989,-0.4763,-0.446,-0.4418,-0.4741,-0.4628,-0.4562,-0.4619,-0.4833,-0.4988,-0.4995,-0.4953,-0.4933,0.0,-0.4736,0.0,0.0,0.0,0.0,0.0,-0.4702,-0.4545,-0.4433,-0.4345,-0.4153,-0.3887,-0.3825,-0.3747,-0.3585,-0.3854,-0.3882,-0.3648,-0.3678,-0.3717,-0.3632,-0.3396,-0.3358,-0.3293,-0.3349,-0.329,-0.3289,-0.331,-0.3267,-0.3172,-0.302,-0.2996,-0.3013,-0.2921,-0.3088,-0.3286,-0.3231,-0.345,-0.3675,-0.3728,0.0,0.0,0.0,0.0,0.0,0.0,-0.3866,-0.3891,-0.3601,0.0,-0.335,-0.337,0.0,0.0,-0.2941,0.0,0.0,0.0,-0.2813,-0.2745,-0.2974,-0.2519,-0.2473,-0.276,-0.2559,-0.2592,-0.2756,-0.2911,-0.3078,-0.3134,-0.3277,-0.3302,-0.3332,-0.3231,-0.3139,-0.2929,-0.2692,-0.2605,-0.2394,-0.2261,-0.2139,-0.2157,-0.2169,-0.2184,-0.2204,-0.2234,-0.2264,-0.2293,-0.5151,-0.5023,-0.4864,-0.4788,0.0,0.0,0.0,0.0,-0.4725,-0.4517,-0.4991,-0.5147,-0.4565,-0.4802,-0.4884,-0.4615,-0.4295,-0.4209,-0.4329,-0.4427,-0.4348,-0.4121,-0.4515,-0.47,-0.4569,-0.4562,-0.4618,0.0,0.0,0.0,0.0,0.0,0.0,0.0,-0.4381,-0.4299,-0.4235,-0.3998,-0.3834,-0.3718,-0.3597,-0.3432,-0.3309,-0.3643,-0.356,-0.3423,-0.3476,-0.3496,-0.3406,-0.3138,-0.3184,0.0,-0.3126,-0.3162,-0.3183,-0.3134,-0.304,-0.2945,-0.2653,-0.2653,-0.2661,-0.2324,-0.2638,-0.292,-0.2706,-0.2987,-0.3209,-0.3397,-0.3359,0.0,0.0,0.0,-0.3668,-0.3596,0.0,-0.36,-0.3401,-0.323,-0.3127,-0.3167,-0.2989,0.0,0.0,0.0,-0.2681,-0.2984,-0.2611,-0.2387,-0.2716,-0.221,-0.208,-0.2477,-0.2176,-0.2213,-0.2493,-0.2631,-0.268,-0.2755,-0.2887,-0.2917,-0.296,-0.296,-0.2736,-0.2523,-0.2523,-0.231,-0.2109,-0.2109,-0.2127,-0.2155,-0.2155,-0.2169,-0.2191,-0.2213,-0.2245,-0.2281,-0.4844,-0.4704,-0.4576,-0.4447,-0.4253,-0.4108,0.0,-0.4586,-0.4834,-0.4468,-0.4946,-0.5121,-0.4631,-0.4579,-0.4496,-0.4539,-0.4091,-0.3895,-0.4128,-0.4442,-0.4367,-0.3831,-0.4481,-0.47,-0.4215,-0.4198,-0.4271,-0.4388,0.0,0.0,0.0,0.0,0.0,0.0,-0.4263,-0.4128,-0.4009,-0.3678,-0.3479,-0.3494,-0.3571,-0.3313,-0.2863,-0.3293,-0.3426,-0.3224,-0.3227,0.0,0.0,-0.2872,-0.2834,0.0,0.0,0.0,0.0,-0.2944,-0.2773,-0.2519,-0.2265,0.0,-0.2069,-0.2024,-0.2014,-0.2072,-0.2215,-0.2153,-0.2251,-0.256,-0.2614,-0.2684,-0.2907,-0.3134,-0.3217,-0.3078,-0.3283,0.0,0.0,-0.3017,-0.2842,-0.2659,-0.2387,-0.2443,0.0,-0.2604,-0.2469,-0.2932,-0.2759,-0.2656,-0.2657,-0.243,-0.2198,-0.2075,-0.1934,-0.186,-0.1861,-0.2151,-0.2321,-0.2478,-0.2753,-0.2917,-0.296,-0.2714,-0.2488,-0.2523,-0.2145,-0.2053,-0.2109,-0.2109,-0.2127,-0.2155,-0.2155,-0.2155,-0.2157,-0.2157,-0.2195,-0.2247,-0.4604,-0.4657,-0.4672,-0.4448,-0.4426,-0.4402,-0.4362,-0.4575,-0.4699,-0.4628,-0.4847,-0.4914,-0.4477,-0.4539,-0.4535,-0.4341,-0.433,-0.4297,-0.4307,-0.4223,-0.4082,-0.3762,-0.3939,-0.3973,-0.3652,-0.3831,-0.3969,-0.3987,-0.3993,0.0,0.0,0.0,0.0,0.0,-0.3996,-0.3935,-0.3875,-0.3487,-0.3385,-0.3429,-0.3531,-0.3306,-0.2928,-0.3016,-0.2914,-0.273,-0.2767,-0.2806,0.0,-0.2929,-0.2943,-0.2959,-0.2772,-0.2736,-0.27,-0.2463,-0.2359,0.0,0.0,0.0,-0.1934,-0.1893,0.0,0.0,-0.2159,-0.2287,-0.2402,-0.2417,-0.2452,-0.2471,-0.2425,-0.2639,-0.2772,-0.2538,-0.2781,-0.2863,0.0,-0.2296,-0.219,-0.2128,-0.2271,-0.2446,-0.2437,0.0,0.0,-0.2549,-0.2408,-0.2322,-0.2399,-0.2192,-0.202,-0.1999,-0.1764,-0.1711,-0.1749,-0.188,-0.2032,-0.1971,-0.2099,-0.2252,-0.231,-0.2188,-0.2084,-0.2116,-0.199,-0.2012,-0.205,-0.2071,-0.2097,-0.2127,-0.2147,-0.2155,-0.2157,-0.2177,-0.2198,-0.2221,-0.4558,-0.4627,-0.4665,-0.4307,-0.4413,-0.4529,-0.4446,-0.4534,-0.4612,-0.4613,-0.4689,-0.4622,-0.4544,-0.4463,-0.4384,-0.4325,-0.4267,-0.4172,-0.4122,-0.4081,-0.3846,-0.3432,-0.3624,-0.3646,-0.3299,-0.3479,-0.3686,-0.3788,-0.3731,-0.3887,0.0,0.0,0.0,0.0,-0.3804,-0.3716,-0.3623,-0.3244,-0.3156,-0.3238,-0.3241,-0.3087,-0.2753,0.0,-0.2608,-0.2405,0.0,-0.2757,-0.2896,-0.2989,-0.3111,-0.3049,-0.2666,-0.2645,-0.2536,-0.2204,-0.2103,-0.2088,-0.1826,-0.1841,0.0,-0.1681,-0.1751,0.0,-0.1913,0.0,-0.2127,-0.2115,-0.2133,-0.2135,-0.204,-0.2238,-0.2344,-0.2177,-0.2411,-0.2405,0.0,-0.1838,-0.1808,-0.185,-0.2154,-0.2357,-0.2239,-0.2231,-0.2265,-0.2369,-0.2192,-0.2118,0.0,0.0,-0.1923,-0.1826,-0.1709,-0.1674,-0.1733,-0.1745,-0.178,-0.184,-0.184,-0.1866,-0.1915,-0.1926,-0.1941,-0.196,-0.1973,-0.1993,-0.202,-0.2052,-0.2082,-0.2112,-0.1875,-0.175,-0.1887,-0.2041,-0.2191,-0.2208,-0.4627,-0.4646,-0.4603,-0.4115,-0.4226,-0.4361,-0.4307,-0.452,-0.4684,-0.455,-0.44,-0.4467,-0.4675,-0.4414,-0.4272,-0.4281,-0.4026,-0.3765,-0.3575,-0.3874,-0.3764,-0.2956,-0.3557,-0.3626,-0.3037,-0.3221,-0.3418,-0.3646,-0.3574,0.0,0.0,0.0,0.0,0.0,-0.3736,-0.3599,-0.3314,-0.3117,-0.2976,-0.3018,-0.2953,-0.2751,-0.2536,-0.2645,-0.2502,-0.2317,-0.278,-0.2906,-0.2766,-0.3052,-0.3055,-0.3057,-0.2676,-0.2578,-0.2489,-0.2054,-0.1868,-0.1866,-0.1671,-0.1595,-0.1596,-0.1509,0.0,0.0,0.0,0.0,-0.1441,0.0,-0.1772,-0.1746,-0.174,-0.1899,-0.2035,-0.2054,-0.2104,-0.2064,-0.1822,-0.1676,-0.1595,-0.1676,-0.1903,-0.2127,-0.2256,-0.2255,-0.2251,-0.2446,-0.2315,-0.2177,-0.2177,0.0,-0.1902,-0.184,-0.166,-0.1639,-0.1699,-0.173,-0.1776,-0.1838,-0.1838,-0.1854,-0.1887,-0.1915,-0.1929,-0.1933,-0.1963,-0.1992,-0.1893,-0.1921,-0.1949,-0.1978,-0.1338,-0.1076,-0.1212,-0.1885,-0.2174,-0.2208,-0.4302,-0.406,-0.3966,-0.4202,-0.4236,-0.4289,-0.4408,-0.4762,-0.4846,-0.4527,-0.4839,-0.4965,-0.4484,-0.4481,-0.4457,-0.4214,-0.435,-0.4449,-0.428,-0.4342,-0.4185,-0.3667,-0.389,-0.3688,-0.2914,-0.3575,-0.3722,-0.3197,-0.3597,-0.3695,-0.353,0.0,0.0,0.0,-0.3475,-0.3407,-0.3301,-0.3078,-0.3047,-0.3237,-0.316,-0.295,-0.2853,0.0,-0.2893,-0.2553,-0.2741,-0.2872,-0.302,-0.3117,-0.3049,-0.2785,-0.2584,-0.2267,-0.2056,-0.1796,-0.1689,-0.1674,-0.1599,-0.1611,-0.1611,-0.1588,-0.157,-0.1555,0.0,0.0,0.0,0.0,0.0,0.0,0.0,0.0,-0.1527,-0.1497,-0.1469,-0.1385,-0.1404,-0.1374,-0.1361,-0.1379,-0.156,-0.1805,-0.2127,-0.2091,-0.2069,-0.2044,-0.2191,-0.2239,-0.2022,0.0,0.0,-0.1895,-0.156,-0.1555,-0.1639,-0.167,-0.1726,-0.1919,-0.1806,-0.1835,-0.1887,-0.1894,-0.191,-0.1933,-0.1963,-0.1733,-0.1243,-0.1262,-0.0897,-0.0649,-0.1581,-0.16,-0.1212,-0.1885,-0.2174,-0.2068,-0.4357,-0.4119,-0.4045,-0.425,-0.4206,-0.422,-0.4416,-0.4569,-0.4573,-0.439,-0.4646,-0.4746,-0.4387,-0.4506,-0.4476,-0.4401,-0.4427,-0.4448,-0.4279,-0.4189,-0.397,-0.3542,-0.3774,-0.3571,-0.304,-0.3493,-0.3567,-0.3156,-0.3411,-0.3451,-0.3423,0.0,0.0,0.0,-0.3398,-0.3361,-0.3234,-0.307,-0.3031,-0.3125,-0.3117,-0.3089,0.0,-0.3099,-0.2962,-0.2704,-0.2728,-0.2855,-0.2981,-0.2981,-0.28,-0.2624,-0.2322,-0.2106,-0.1994,-0.1712,-0.1605,-0.1595,-0.1613,-0.1617,-0.1617,-0.1617,-0.1605,-0.1492,-0.1293,-0.1293,-0.1285,0.0,-0.146,-0.1356,0.0,0.0,-0.1396,-0.1277,-0.1181,-0.1115,-0.1235,-0.1193,-0.1175,-0.1274,-0.1326,-0.1511,-0.1904,-0.1961,-0.1917,-0.1886,-0.2149,0.0,0.0,0.0,0.0,-0.2068,-0.1873,-0.1708,-0.1696,-0.1845,-0.1912,-0.1886,-0.1789,-0.1813,-0.1847,-0.1888,-0.1907,-0.1914,-0.1713,-0.1482,-0.136,-0.0126,0.0637,0.0905,-0.066,-0.0936,-0.0539,-0.0404,-0.1083,-0.2047,-0.4455,-0.4361,-0.4313,-0.4221,-0.4146,-0.4094,-0.4183,-0.4142,-0.417,-0.419,-0.4297,-0.4389,-0.4519,-0.4521,-0.4501,-0.4615,-0.4374,-0.4141,-0.3974,-0.3875,-0.3658,-0.322,-0.3433,-0.3487,-0.3153,-0.3218,-0.3301,-0.3328,-0.3105,-0.3161,-0.3459,0.0,0.0,-0.3159,-0.3364,-0.3309,-0.3078,-0.302,-0.2989,-0.2974,-0.2981,-0.2962,-0.2981,-0.2999,-0.2845,-0.2654,-0.2707,-0.2725,-0.2725,-0.2725,-0.2523,-0.2322,-0.2122,-0.2021,-0.192,-0.1718,-0.1617,-0.1617,-0.1516,-0.1516,-0.1618,-0.152,-0.1518,-0.1517,-0.1013,-0.081,-0.0909,-0.1516,-0.1396,-0.1084,0.0,0.0,-0.1229,-0.1294,-0.1201,-0.1142,-0.1134,-0.1017,-0.1062,-0.1227,-0.1159,0.0,-0.1699,-0.1837,-0.1831,-0.1884,-0.2026,0.0,0.0,0.0,0.0,-0.2182,-0.2112,-0.2063,-0.1956,0.0,-0.2002,-0.175,-0.1776,-0.1795,-0.1809,-0.1889,-0.1911,-0.1889,-0.1219,-0.1111,-0.1233,0.1127,0.2164,0.2072,0.0798,0.0269,0.0269,0.1616,0.0539,-0.1619,-0.4058,-0.3774,-0.3679,-0.4077,-0.3724,-0.3462,-0.3699,-0.4092,-0.4259,-0.4082,-0.4719,-0.5019,-0.4447,-0.478,-0.4921,-0.4614,-0.458,-0.4547,-0.425,-0.4274,-0.4131,-0.3636,-0.3921,-0.3842,-0.312,-0.3565,-0.3579,-0.3109,-0.3121,-0.311,-0.3095,-0.3096,-0.309,-0.3025,-0.3092,-0.2895,-0.2668,-0.2758,0.0,-0.2779,-0.2907,-0.2893,-0.2659,-0.2723,-0.2647,-0.2359,-0.2404,-0.2421,-0.2421,-0.2421,-0.2322,-0.2021,-0.2021,-0.1819,-0.1617,-0.1617,-0.1617,-0.1516,-0.1011,-0.1314,-0.1521,-0.1029,-0.1226,-0.1624,-0.1442,-0.0817,-0.0404,-0.1415,-0.1512,-0.15,-0.1477,0.0,0.0,-0.1208,-0.1314,-0.1253,-0.1127,-0.1093,-0.1083,-0.1111,-0.1166,-0.1222,-0.1438,-0.151,-0.1624,-0.1619,-0.1856,0.0,0.0,0.0,0.0,0.0,-0.178,0.0,0.0,0.0,-0.177,-0.1749,-0.1755,-0.1797,-0.187,-0.1887,-0.1891,-0.1889,-0.0731,0.0368,0.1335,0.1232,0.1637,0.2197,0.1972,0.1466,0.0943,0.1212,0.1346,0.1079,-0.3996,-0.388,-0.3857,-0.3949,-0.3717,-0.3568,-0.3644,-0.3732,-0.3777,-0.3855,-0.4536,-0.4822,-0.4406,-0.461,-0.4668,-0.4573,-0.4522,-0.4415,-0.4227,-0.4269,-0.4043,-0.3635,-0.3761,-0.3675,-0.3185,-0.3547,-0.3568,-0.3193,-0.3144,-0.3062,-0.3114,-0.2965,-0.2959,-0.2884,-0.2785,-0.2599,-0.2431,0.0,0.0,-0.2534,-0.267,-0.2661,-0.2423,-0.247,-0.239,-0.2195,-0.2213,-0.212,-0.2019,-0.212,-0.2021,-0.1819,-0.1819,-0.1718,-0.1516,-0.1314,-0.1415,-0.1516,-0.091,-0.0808,-0.081,-0.1124,-0.1017,-0.0812,-0.0724,-0.0412,-0.0103,-0.0623,-0.0728,-0.0928,-0.1503,-0.0958,0.0,0.0,0.0,-0.0885,-0.0854,-0.0907,-0.0971,-0.1135,-0.1198,-0.1264,-0.1413,-0.1397,-0.1426,-0.1756,-0.1976,0.0,0.0,0.0,0.0,0.0,0.0,0.0,0.0,0.0,0.0,-0.1705,-0.175,-0.1805,-0.1864,-0.1895,-0.1909,-0.1792,-0.0611,0.0741,0.2105,0.1758,0.1783,0.2196,0.2229,0.1995,0.1616,0.1616,0.1346,0.0808,-0.406,-0.3966,-0.3887,-0.3832,-0.365,-0.3575,-0.3538,-0.333,-0.3387,-0.3707,-0.4148,-0.4431,-0.4471,-0.4442,-0.4411,-0.4442,-0.4461,-0.4281,-0.4057,-0.397,-0.3833,-0.3534,-0.3483,-0.3381,-0.3229,-0.3332,-0.337,-0.3358,-0.3095,-0.3013,-0.317,-0.2914,-0.2788,-0.2707,0.0,0.0,0.0,0.0,-0.2423,-0.2242,-0.2445,-0.2425,-0.2273,-0.2308,-0.212,-0.192,-0.192,-0.1819,-0.1617,-0.1819,-0.1819,-0.1617,-0.1617,-0.1617,-0.1517,-0.1116,-0.1114,-0.1214,-0.071,-0.0304,-0.0202,-0.1015,-0.0608,-0.0,-0.0,-0.0,-0.0,-0.0,-0.0,-0.021,-0.1124,-0.0879,0.0,0.0,0.0,-0.0498,-0.0484,-0.0551,-0.0775,-0.1163,-0.1235,-0.1305,-0.1452,-0.1343,-0.1438,-0.1772,-0.1959,-0.2023,-0.2036,0.0,0.0,0.0,0.0,-0.1915,-0.1685,0.0,-0.184,-0.1671,-0.164,-0.1695,-0.1851,-0.178,-0.1564,-0.1449,-0.0245,0.0995,0.2139,0.2164,0.2053,0.2067,0.222,0.2123,0.2155,0.2019,0.1212,0.0135,-0.4167,-0.3574,-0.3256,-0.3733,-0.3224,-0.289,-0.3005,-0.3235,-0.3497,-0.3941,-0.416,-0.4361,-0.4679,-0.4765,-0.4622,-0.4414,-0.4429,-0.4232,-0.3717,-0.3629,-0.3534,-0.3232,-0.3226,-0.3226,-0.3232,-0.3218,-0.3185,-0.3131,-0.2771,-0.2788,-0.3089,-0.2744,-0.2434,-0.2331,0.0,0.0,0.0,-0.1989,-0.2087,-0.2041,-0.2245,-0.2178,-0.2016,-0.2019,-0.192,-0.1617,-0.1617,-0.1617,-0.1617,-0.1617,-0.1617,-0.1617,-0.1617,-0.1617,-0.1622,-0.1546,-0.0921,-0.0101,-0.0103,-0.0,-0.0,-0.0103,-0.0102,-0.0,-0.0,-0.0,-0.0,-0.0,-0.0,-0.0,-0.0104,-0.0102,0.0198,0.0,0.0,0.0,-0.0087,-0.0085,-0.0417,-0.1168,-0.1311,-0.1283,-0.1334,-0.1379,-0.1479,-0.1472,-0.1433,-0.1428,0.0,0.0,0.0,-0.1608,0.0,-0.1753,-0.1512,-0.1583,-0.1645,-0.17,-0.1303,-0.1461,-0.1881,-0.1297,-0.0714,-0.0121,0.0613,0.136,0.1981,0.1984,0.2016,0.2064,0.2067,0.2104,0.2154,0.1481,0.1077,0.0673,-0.3867,-0.3507,-0.3227,-0.3436,-0.32,0.0,0.0,-0.3243,-0.3484,-0.4235,-0.4338,-0.4411,-0.4708,-0.4587,-0.4518,-0.4567,-0.431,-0.4097,-0.4006,-0.3726,-0.3573,-0.3436,-0.3403,-0.3322,-0.3286,-0.3286,-0.3256,-0.3194,-0.2838,-0.2739,-0.2777,-0.2416,-0.2095,0.0,0.0,-0.1648,-0.1564,-0.184,-0.1888,-0.1768,-0.1963,-0.1987,-0.1718,-0.1718,-0.1718,-0.1617,-0.1617,-0.1617,-0.162,-0.1637,-0.1644,-0.1644,-0.1644,-0.1553,-0.1461,-0.0832,-0.031,-0.0,-0.0,-0.0,-0.0,-0.0,-0.0,-0.0,-0.0,-0.0,-0.0,-0.0,-0.0,-0.0,-0.0,-0.0,0.0099,0.0,0.0,0.0,0.0089,-0.0,-0.0171,-0.0506,-0.0743,-0.0811,-0.0804,-0.0931,-0.0976,-0.0809,-0.1271,0.0,0.0,0.0,0.0,-0.1557,0.0,-0.1589,-0.1405,-0.1595,-0.1665,-0.16,-0.1096,-0.0907,-0.1061,-0.0589,0.0358,0.1591,0.1863,0.2126,0.2253,0.2253,0.2164,0.209,0.2071,0.1838,0.1481,0.1212,0.0404,-0.0673,-0.3659,0.0,-0.3213,0.0,-0.322,-0.3225,-0.3316,-0.3218,-0.3436,-0.4223,-0.4201,-0.4252,-0.4552,-0.4503,-0.4407,-0.4422,-0.4267,-0.4065,-0.3978,-0.3823,-0.3699,-0.3594,-0.3473,-0.3384,-0.3218,-0.3218,-0.3086,-0.2927,-0.2688,-0.2533,-0.2548,0.0,0.0,0.0,-0.1693,-0.1563,-0.1539,-0.1731,-0.1751,-0.1584,-0.1784,-0.1698,-0.1617,-0.1617,-0.1617,-0.1618,-0.1626,-0.1529,-0.143,-0.1562,-0.1576,-0.1582,-0.1573,-0.1374,-0.0959,-0.0212,-0.0,-0.0,-0.0,-0.0,-0.0,-0.0,-0.0,-0.0,-0.0,-0.0,-0.0,-0.0,-0.0,-0.0,-0.0,0.0307,0.0397,0.03,0.0,0.0,0.0,0.009,-0.0,-0.0,-0.0254,-0.0415,-0.0332,-0.0481,-0.0626,-0.0626,0.0,0.0,0.0,0.0,0.0,0.0,0.0,0.0,0.0,-0.1319,-0.1479,-0.1613,-0.1218,-0.0913,-0.0943,0.0357,0.1571,0.2592,0.2746,0.2764,0.265,0.2523,0.2439,0.2239,0.1955,0.1449,0.1077,0.0673,-0.0404,-0.1481,-0.3524,-0.3217,-0.3049,-0.3442,-0.3241,-0.3074,-0.3206,-0.3155,-0.3263,-0.3811,-0.3688,-0.3836,-0.4336,-0.4437,-0.4303,-0.3925,-0.4118,-0.4055,-0.3629,-0.3833,-0.3795,0.0,-0.3412,-0.3279,-0.2907,-0.2905,-0.2776,-0.2421,-0.2122,0.0,-0.2407,0.0,-0.1905,-0.176,-0.1605,-0.1542,-0.157,-0.157,-0.1588,-0.1615,-0.1615,-0.1617,-0.1617,-0.1617,-0.1617,-0.1621,-0.1651,-0.1245,-0.0937,-0.1378,-0.1619,-0.1637,-0.1609,-0.0854,-0.0,-0.0,-0.0,-0.0,-0.0,-0.0,-0.0,-0.0,-0.0,-0.0,-0.0,-0.0,-0.0,-0.0,-0.0,-0.0,-0.0,0.0828,0.1405,0.0887,0.0,0.0,0.0,0.0281,-0.0,-0.0,-0.0,-0.0,-0.0,-0.0,-0.0336,-0.1261,0.0,0.0,0.0,0.0,0.0,-0.1343,-0.158,0.0,-0.1513,-0.0943,-0.1075,-0.1749,-0.178,-0.1827,-0.1652,0.1459,0.2837,0.2467,0.2837,0.2987,0.303,0.265,0.2568,0.2506,0.1449,0.1064,0.0943,-0.0539,-0.1077,-0.1212,-0.3254,-0.2992,-0.2924,-0.3096,-0.3005,-0.3005,-0.331,-0.3251,-0.334,-0.3936,-0.3759,-0.3635,-0.3836,-0.4034,-0.4104,0.0,-0.397,-0.3791,0.0,-0.3693,-0.3476,-0.3412,-0.3488,-0.3395,-0.3014,-0.3014,-0.2881,-0.2515,0.0,0.0,0.0,-0.1736,-0.1725,-0.1641,-0.1575,-0.1605,-0.1635,-0.1654,-0.1656,-0.1648,-0.1648,-0.1636,-0.1517,-0.123,-0.1029,-0.1135,-0.1472,-0.1482,-0.1379,-0.1513,-0.1636,-0.1426,-0.0771,-0.0884,-0.1103,-0.0219,-0.0,-0.0,-0.0,-0.0,-0.0,-0.0,-0.0,-0.0,-0.0,-0.0,-0.0,-0.0,0.0535,0.1052,0.1064,0.1036,0.1114,0.1326,0.1198,0.0,0.0292,0.0378,0.037,-0.0,0.0361,0.0442,-0.0,0.0086,0.0,0.0,0.0,0.0,0.0,0.0,0.0,0.0,-0.0461,0.0,-0.1572,-0.0858,-0.033,0.0113,-0.0341,-0.0116,0.0719,0.1835,0.2469,0.2837,0.296,0.3111,0.3408,0.3282,0.3083,0.2901,0.1845,0.1064,0.0539,-0.0673,-0.1481,-0.1885,-0.2982,-0.297,-0.2967,-0.3008,-0.3014,-0.312,-0.3348,-0.3266,-0.3257,-0.3888,-0.3682,-0.3534,-0.3635,-0.3632,0.0,-0.397,-0.381,-0.3736,-0.3843,-0.3764,-0.3538,-0.3257,-0.3326,-0.3226,-0.2736,-0.2736,0.0,-0.2238,-0.2023,-0.179,-0.165,-0.163,-0.1622,-0.1624,-0.1643,-0.1662,-0.1681,-0.1697,-0.1689,-0.1663,-0.1465,-0.1453,-0.1535,-0.1251,-0.0839,-0.0526,-0.0857,-0.097,-0.0972,-0.0989,-0.0995,-0.0886,-0.0224,-0.0561,-0.112,-0.0776,-0.0332,-0.0,-0.0,-0.0,-0.0,-0.0,-0.0,-0.0,-0.0,0.0329,0.0654,0.0662,0.1081,0.1379,0.1599,0.1355,0.1227,0.1541,0.1613,0.139,0.0695,0.0676,0.0661,0.0562,0.0643,0.0,0.0,0.0535,0.0626,0.0,0.0,0.0,0.0,0.0,0.0,0.0178,0.0193,0.0,-0.0323,-0.0328,0.0112,0.1035,0.0931,0.1184,0.1932,0.2329,0.2725,0.3111,0.3216,0.3496,0.369,0.3563,0.3484,0.3167,0.1989,0.0935,-0.0135,-0.1077,-0.175,-0.2155,-0.2875,-0.3002,-0.3045,0.0,-0.3051,0.0,-0.323,-0.3208,-0.3195,-0.3519,-0.3332,-0.3332,-0.3534,-0.3332,-0.3234,-0.3549,0.0,0.0,0.0,-0.3934,-0.3775,-0.3122,-0.3131,-0.2777,-0.2188,-0.2189,-0.2064,-0.1707,-0.1707,-0.1707,-0.1704,-0.1704,-0.1705,-0.1708,-0.1603,-0.1604,-0.1604,-0.1711,-0.1693,-0.1667,-0.1058,-0.1159,-0.1458,-0.1484,-0.0854,-0.0,-0.0,-0.0,-0.0,-0.0,-0.0,-0.0,-0.0,-0.0,-0.0224,-0.1346,-0.0897,-0.0112,-0.0,-0.0,-0.0,0.0112,0.0112,0.0112,0.0112,0.0897,0.1795,0.1795,0.1328,0.1087,0.1498,0.1682,0.1652,0.1622,0.1617,0.1615,0.1614,0.1191,0.0975,0.0,0.0,0.0,0.0,0.1117,0.0857,0.0,0.0,0.0,0.0,0.0,0.0448,0.093,0.0401,0.0636,0.1752,0.0668,0.0453,0.1155,0.1787,0.2055,0.2057,0.2944,0.3235,0.3154,0.3608,0.4022,0.4125,0.3739,0.3641,0.343,0.2005,0.0672,-0.0672,-0.175,-0.2155,-0.2155,0.0,0.0,-0.2953,-0.2998,-0.3007,-0.3049,-0.3175,-0.3109,-0.3144,-0.3321,-0.3232,-0.3232,-0.3332,-0.3027,-0.3063,-0.3467,-0.3386,-0.3363,-0.3442,-0.3236,-0.3163,-0.3017,-0.2841,-0.2525,-0.2188,-0.2215,-0.2101,-0.1738,-0.1738,-0.1727,-0.1704,-0.1704,-0.1705,-0.1708,-0.1189,-0.0979,-0.1087,-0.1522,-0.1723,-0.1802,-0.1575,-0.1042,-0.0416,-0.0424,-0.0215,-0.0,-0.0,-0.0,-0.0,-0.0,-0.0,-0.0,-0.0,-0.0,-0.0112,-0.0336,-0.0897,-0.1121,-0.0224,-0.0,0.0224,0.1121,0.1346,0.1234,0.0785,0.0897,0.1234,0.1683,0.166,0.1523,0.1604,0.1681,0.1652,0.1622,0.1617,0.1609,0.1585,0.1477,0.1462,0.0,0.1444,0.1453,0.155,0.157,0.1494,0.0,0.0,0.0,0.0,0.14,0.1395,0.1485,0.1468,0.1528,0.1783,0.1588,0.1741,0.2268,0.2433,0.2578,0.2823,0.3079,0.336,0.3408,0.3522,0.3807,0.4125,0.4131,0.401,0.3899,0.2504,0.1855,0.1194,-0.134,-0.2155,-0.2155,-0.2693,-0.2603,-0.2613,-0.2731,-0.2759,-0.2899,-0.3085,-0.3023,-0.2964,-0.302,-0.2927,-0.2826,-0.2826,-0.2725,-0.2746,-0.2907,-0.2983,-0.3205,-0.3395,-0.306,-0.2955,-0.277,-0.2582,-0.2277,-0.2077,-0.1986,-0.1995,-0.177,-0.177,-0.1761,-0.1746,-0.1746,-0.1637,-0.1311,-0.0661,-0.0442,-0.0442,-0.0774,-0.1315,-0.1729,-0.1186,-0.0536,-0.0,-0.0,-0.0,-0.0,-0.0,-0.0,-0.0,-0.0,-0.0,-0.0,-0.0,-0.0,0.0112,0.0673,-0.0,-0.0673,0.0449,0.0785,0.0897,0.1346,0.157,0.1683,0.1346,0.1346,0.1458,0.1683,0.1782,0.1757,0.1712,0.1692,0.1667,0.1624,0.1606,0.1591,0.1575,0.1572,0.1565,0.1645,0.1573,0.1698,0.1811,0.183,0.1854,0.1885,0.1993,0.0,0.1783,0.2041,0.2038,0.1763,0.1718,0.1771,0.1814,0.1859,0.2135,0.2533,0.2573,0.2714,0.2962,0.3231,0.3394,0.357,0.3697,0.3855,0.4166,0.4142,0.4134,0.4007,0.3386,0.2359,0.1055,-0.0665,-0.1606,-0.2155,-0.2435,-0.2339,-0.2249,-0.2445,-0.2484,-0.2626,-0.297,-0.2828,-0.2674,-0.2718,-0.2523,-0.2425,-0.2431,-0.2326,-0.2326,-0.2441,-0.2671,-0.2931,-0.3342,-0.2986,-0.275,-0.2537,-0.2231,-0.2038,-0.1742,-0.1752,-0.1767,-0.1789,-0.1793,-0.1793,-0.1789,-0.1793,-0.157,-0.1009,-0.0336,-0.0,-0.0,-0.0,-0.0554,-0.1426,-0.0443,-0.0,-0.0,-0.0,-0.0,-0.0,-0.0,-0.0,-0.0,-0.0,-0.0,-0.0,-0.0,-0.0,0.0224,0.1458,0.1121,0.0449,0.1458,0.1683,0.1683,0.1121,0.1458,0.1795,0.1795,0.1795,0.1795,0.1795,0.1795,0.1778,0.1722,0.1707,0.1792,0.1633,0.1598,0.1577,0.1572,0.0,0.1579,0.1579,0.1605,0.1843,0.2094,0.2204,0.2238,0.2317,0.2545,0.2435,0.1991,0.2498,0.2489,0.1951,0.1867,0.1909,0.1853,0.1904,0.2173,0.254,0.2574,0.2714,0.3086,0.3385,0.3563,0.3739,0.4005,0.4174,0.4226,0.4161,0.4134,0.4002,0.3737,0.2206,-0.0,-0.0,-0.0798,-0.1885,-0.2212,-0.2181,-0.2268,-0.2349,-0.237,-0.2404,-0.2487,-0.2506,-0.2414,-0.2421,-0.2421,-0.2437,-0.2474,-0.2243,-0.2149,-0.2529,-0.227,-0.2238,-0.2553,-0.2347,-0.2141,-0.214,-0.1888,-0.1707,-0.1711,-0.1761,-0.1778,-0.1757,-0.1782,-0.1782,-0.1757,-0.1783,-0.1795,-0.157,-0.0449,-0.0,-0.0,-0.0,-0.011,-0.0219,-0.0108,-0.0,-0.0,-0.0,-0.0,-0.0,-0.0,-0.0,-0.0,-0.0,-0.0,-0.0,-0.0,-0.0,0.0224,0.1458,0.1683,0.1458,0.1121,0.1458,0.1795,0.1683,0.1683,0.1795,0.1795,0.1795,0.1795,0.1795,0.202,0.2119,0.1858,0.1937,0.201,0.1764,0.1629,0.16,0.1575,0.0,0.161,0.161,0.184,0.2106,0.2208,0.244,0.2699,0.2786,0.2795,0.2795,0.2678,0.2807,0.2805,0.2669,0.2444,0.2351,0.2273,0.2284,0.2669,0.3321,0.3081,0.3209,0.3704,0.3883,0.3941,0.3999,0.418,0.4237,0.4286,0.4308,0.4263,0.3999,0.1655,0.0384,-0.0,-0.0,-0.0133,-0.0404,-0.2071,-0.1945,-0.1842,-0.2088,-0.2099,-0.212,-0.2277,-0.2206,-0.2221,-0.2221,-0.2019,-0.2034,-0.2072,-0.1941,-0.1839,-0.2097,-0.1951,-0.1819,-0.1918,-0.2021,-0.2029,-0.205,-0.177,-0.1484,-0.1188,-0.1329,-0.1341,-0.1441,-0.1676,-0.1787,-0.1775,-0.1789,-0.1795,-0.1795,-0.0561,-0.0,-0.0,-0.0,-0.0,-0.0,-0.0,-0.0,-0.0,-0.0,-0.0,-0.0,-0.0,-0.0,-0.0,-0.0,-0.0,-0.0,-0.0,0.0449,0.1121,0.1683,0.157,0.1346,0.1346,0.157,0.1795,0.1795,0.1795,0.1795,0.1795,0.1795,0.18,0.1816,0.1919,0.1903,0.1776,0.1858,0.1934,0.1689,0.175,0.0,0.0,0.1908,0.2026,0.1842,0.2224,0.2524,0.2719,0.2979,0.3014,0.3058,0.3296,0.3296,0.2943,0.3206,0.3219,0.2862,0.2743,0.2633,0.2409,0.2674,0.294,0.3455,0.3332,0.347,0.3997,0.4057,0.3989,0.3917,0.4105,0.388,0.3224,0.4052,0.3373,0.1823,0.051,-0.0,-0.0,-0.0,-0.0,-0.0,-0.1824,-0.1606,-0.1595,-0.1818,-0.1824,-0.1934,-0.2068,-0.2002,-0.192,-0.192,-0.1725,-0.1639,-0.1669,-0.1645,-0.164,-0.1669,-0.1536,-0.1516,-0.1617,-0.1725,-0.1842,-0.197,-0.178,-0.1387,-0.0989,-0.078,-0.0785,-0.0897,-0.1458,-0.1795,-0.1795,-0.1795,-0.1683,-0.1346,-0.0449,-0.0,-0.0,-0.0,-0.0,-0.0,-0.0,-0.0,-0.0,0.0336,0.0449,0.0449,0.0224,0.0112,-0.0,-0.0,-0.0,-0.0,0.0336,0.1009,0.1795,0.1683,0.1346,0.1234,0.1683,0.1795,0.1795,0.1795,0.1795,0.1795,0.1908,0.1795,0.1802,0.1825,0.1925,0.1908,0.1795,0.1882,0.1851,0.1719,0.0,0.0,0.0,0.2163,0.2394,0.2217,0.2637,0.2956,0.3248,0.3408,0.344,0.3453,0.369,0.3572,0.3215,0.3615,0.3638,0.303,0.303,0.2909,0.2665,0.2944,0.3332,0.3579,0.3579,0.373,0.4036,0.397,0.3899,0.3692,0.388,0.3367,0.2284,0.3397,0.2343,-0.0,-0.0,-0.0,-0.0,-0.0,-0.0,-0.0,-0.1666,-0.1543,-0.1532,-0.1562,-0.1666,-0.1677,-0.1609,-0.1615,-0.1617,-0.1617,-0.1641,-0.167,-0.1697,-0.1675,-0.167,-0.1699,-0.1133,-0.1112,-0.1617,-0.1129,-0.1141,-0.1662,-0.1609,-0.165,-0.1679,-0.0672,-0.0112,-0.0112,-0.1234,-0.1795,-0.1795,-0.1795,-0.1234,-0.0112,-0.0,-0.0,-0.0,-0.0,-0.0,-0.0,-0.0,-0.0,0.0112,0.1234,0.1683,0.157,0.1009,0.0449,-0.0,-0.0,-0.0,0.0224,0.1346,0.1683,0.1683,0.1121,0.1346,0.1795,0.1795,0.1795,0.1795,0.1795,0.1795,0.1908,0.2132,0.202,0.1908,0.2135,0.2133,0.2132,0.1795,0.1992,0.2077,0.1855,0.0,0.0,0.2128,0.2292,0.2451,0.2678,0.3063,0.3253,0.3355,0.373,0.3877,0.3809,0.3937,0.3815,0.3815,0.3817,0.382,0.3451,0.3451,0.3451,0.3448,0.3453,0.3579,0.3828,0.3579,0.373,0.4036,0.3712,0.3639,0.3692,0.3345,0.2828,0.215,0.2222,0.1302,-0.0,-0.0,-0.0,-0.0,-0.0,-0.0,-0.0,-0.1499,-0.1575,-0.1564,-0.1594,-0.1584,-0.1581,-0.1613,-0.1617,-0.1617,-0.1617,-0.1643,-0.1673,-0.1701,-0.168,-0.1569,-0.1277,-0.0929,-0.0913,-0.1129,-0.1255,-0.138,-0.161,-0.1647,-0.1449,-0.0673,-0.0224,-0.0,-0.0,-0.0449,-0.1121,-0.1795,-0.1009,-0.0449,-0.0,-0.0,-0.0,-0.0,0.0785,0.0673,-0.0,0.0449,0.0785,0.1121,0.1234,0.1458,0.1795,0.157,0.1346,0.1009,0.0224,-0.0,0.0224,0.1458,0.1795,0.1795,0.157,0.157,0.1795,0.1795,0.1795,0.1795,0.1795,0.1908,0.202,0.2132,0.2244,0.2363,0.2502,0.2487,0.2478,0.2388,0.2474,0.2453,0.2142,0.0,0.2557,0.2347,0.2826,0.3188,0.3075,0.3381,0.369,0.3735,0.3772,0.3927,0.3948,0.3951,0.3951,0.3951,0.3951,0.3828,0.3704,0.3704,0.3702,0.3455,0.3702,0.3948,0.4195,0.3984,0.4033,0.4351,0.3894,0.3555,0.3337,0.309,0.2546,0.1592,0.1042,0.0911,0.1184,0.0387,-0.0,-0.0,-0.0,-0.0,-0.0,-0.1011,-0.1199,-0.1393,-0.1613,-0.1599,-0.1592,-0.1614,-0.1617,-0.1621,-0.1629,-0.1658,-0.1581,-0.1394,-0.1587,-0.158,-0.1173,-0.083,-0.0717,-0.1038,-0.1062,-0.1084,-0.1103,-0.1227,-0.0897,-0.0,-0.0,-0.0,-0.0,-0.0,-0.0449,-0.1234,-0.0336,-0.0,-0.0,0.0449,0.0561,0.0561,0.1234,0.1121,0.0561,0.0785,0.1234,0.1795,0.1346,0.1458,0.1795,0.1795,0.1795,0.1683,0.0897,0.0561,0.0673,0.1346,0.1683,0.1795,0.1795,0.1795,0.1795,0.1908,0.1908,0.1908,0.1908,0.202,0.2244,0.2468,0.258,0.2703,0.2847,0.2715,0.2707,0.2752,0.2735,0.2727,0.2543,0.2766,0.299,0.2663,0.3155,0.3638,0.3503,0.3706,0.3888,0.3888,0.3927,0.3951,0.3951,0.3951,0.3951,0.3951,0.3951,0.3951,0.4071,0.4071,0.3948,0.3825,0.3828,0.4071,0.4438,0.413,0.4195,0.4386,0.3796,0.332,0.3096,0.2828,0.2271,0.158,0.0909,0.1042,0.1711,0.0909,0.0394,-0.0,-0.0,-0.0,-0.0,-0.0101,-0.0404,-0.1011,-0.1516,-0.1617,-0.1617,-0.1617,-0.1617,-0.1628,-0.1554,-0.1688,-0.1503,-0.0873,-0.14,-0.1815,-0.1815,-0.0734,-0.0416,-0.1559,-0.0645,-0.0,-0.0,-0.0,-0.0,-0.0,-0.0,-0.0,-0.0,-0.0,-0.0,-0.0,-0.0,-0.0,-0.0,0.1234,0.1795,0.1795,0.1121,0.1234,0.1795,0.1121,0.1234,0.1795,0.1795,0.1795,0.1795,0.1795,0.1795,0.1795,0.1795,0.1795,0.1683,0.1121,0.1346,0.1795,0.1795,0.1795,0.1908,0.2132,0.2244,0.2244,0.2244,0.2244,0.2356,0.2914,0.2917,0.2805,0.3026,0.2917,0.2707,0.275,0.2756,0.2772,0.2937,0.2864,0.2998,0.3305,0.3389,0.3559,0.3867,0.3913,0.3951,0.3951,0.3951,0.3951,0.3951,0.3951,0.3951,0.3951,0.3951,0.4071,0.4438,0.4438,0.4438,0.4438,0.4071,0.4071,0.4441,0.413,0.4068,0.4128,0.3406,0.2924,0.2694,0.229,0.2138,0.2106,0.2076,0.1691,0.1184,0.1816,0.1181,-0.0,-0.0,-0.0,-0.0269,-0.0,-0.0101,-0.0303,-0.0404,-0.0808,-0.1213,-0.1516,-0.1314,-0.1215,-0.1527,-0.1571,-0.1384,-0.0845,-0.1381,-0.1815,-0.1815,-0.0734,-0.0105,-0.0431,-0.022,-0.0,-0.0,-0.0,-0.0,-0.0,-0.0,-0.0,-0.0,-0.0,-0.0,-0.0,-0.0,-0.0,-0.0,0.1234,0.1795,0.1795,0.157,0.1683,0.1795,0.157,0.1683,0.1795,0.1795,0.1795,0.1795,0.1795,0.1795,0.1795,0.1795,0.1795,0.1795,0.157,0.1683,0.1795,0.1795,0.1795,0.1795,0.1908,0.202,0.2244,0.2468,0.2692,0.2914,0.3026,0.325,0.3365,0.3474,0.3365,0.338,0.3436,0.3446,0.3364,0.3217,0.3487,0.3505,0.3405,0.3681,0.382,0.3927,0.394,0.3951,0.3951,0.3951,0.3951,0.3951,0.3951,0.4074,0.4564,0.4318,0.4441,0.4687,0.481,0.481,0.481,0.4687,0.471,0.4883,0.4579,0.4517,0.4449,0.3585,0.295,0.2694,0.229,0.2125,0.2079,0.2091,0.1958,0.1817,0.2067,0.1826,0.1458,0.0394,-0.0654,-0.1441,0.0706,0.0301,-0.0,-0.0,-0.0303,-0.0606,-0.091,-0.0909,-0.0811,-0.0919,-0.1363,-0.1275,-0.0525,-0.0848,-0.1067,-0.1067,-0.0425,-0.0,-0.0,-0.0,-0.0,-0.0,-0.0,-0.0,-0.0,-0.0,-0.0,-0.0,-0.0,-0.0,-0.0,-0.0,-0.0,-0.0,0.1009,0.157,0.1795,0.1795,0.1795,0.1795,0.1795,0.1795,0.1795,0.1795,0.1795,0.1795,0.1795,0.1683,0.1458,0.157,0.1683,0.1795,0.1795,0.1795,0.1795,0.1795,0.1908,0.202,0.2132,0.2356,0.2692,0.2917,0.3026,0.3138,0.325,0.3474,0.3589,0.3589,0.3589,0.3613,0.3698,0.3714,0.3752,0.3633,0.3772,0.3786,0.3699,0.3828,0.3951,0.3951,0.3951,0.3951,0.3951,0.3951,0.3951,0.4071,0.4195,0.4564,0.5056,0.493,0.493,0.5302,0.5425,0.5425,0.5302,0.5425,0.5447,0.5247,0.4881,0.4559,0.4441,0.3599,0.2961,0.2425,0.229,0.212,0.2065,0.2083,0.2074,0.2046,0.2046,0.2064,0.1959,0.0906,-0.0646,-0.2071,0.1607,0.0795,0.0099,0.0101,0.0101,0.0101,0.0101,-0.0303,-0.0508,-0.0103,-0.0842,-0.1064,-0.0106,-0.0,-0.0,-0.0,-0.0,-0.0,-0.0,-0.0,-0.0,-0.0,-0.0,-0.0,-0.0,-0.0,-0.0,-0.0,-0.0,-0.0,-0.0,-0.0,0.0112,0.0224,0.0673,0.1234,0.1795,0.1795,0.1795,0.1795,0.1795,0.1795,0.1795,0.1795,0.1795,0.1795,0.1795,0.1458,0.1009,0.1234,0.1458,0.1795,0.1795,0.1795,0.1795,0.1795,0.202,0.2244,0.258,0.2917,0.3138,0.3474,0.3362,0.325,0.3474,0.3589,0.3589,0.3589,0.3589,0.3624,0.3747,0.3768,0.3809,0.3932,0.3951,0.3951,0.3951,0.3951,0.3951,0.3951,0.3951,0.3951,0.3951,0.3951,0.4071,0.4438,0.4687,0.5056,0.5421,0.5421,0.5544,0.5916,0.6158,0.6158,0.5916,0.6166,0.6048,0.5436,0.5023,0.4568,0.4007,0.345,0.2823,0.229,0.2151,0.2117,0.2064,0.2064,0.2046,0.2019,0.2019,0.2035,0.206,0.1285,-0.0257,-0.2064,0.1284,0.0985,0.079,0.0604,0.0606,0.0606,0.0606,0.0505,0.0303,-0.0,-0.0207,-0.0209,-0.0,-0.0,-0.0,-0.0,-0.0,-0.0,-0.0,-0.0,-0.0,-0.0,-0.0,-0.0,-0.0,-0.0,-0.0,-0.0,-0.0,-0.0,-0.0,-0.0,0.0449,0.1346,0.1009,0.1234,0.1795,0.1795,0.1795,0.1795,0.1795,0.1795,0.1795,0.1795,0.1795,0.1795,0.1795,0.1458,0.1234,0.157,0.1683,0.1795,0.1795,0.1795,0.1795,0.1795,0.202,0.2244,0.2244,0.269,0.3138,0.3138,0.3362,0.3474,0.3586,0.3589,0.3589,0.3589,0.3589,0.3624,0.3747,0.3768,0.3809,0.3932,0.3951,0.3951,0.3951,0.3951,0.3951,0.4318,0.4318,0.4441,0.4687,0.4687,0.481,0.5176,0.5056,0.5179,0.5794,0.5544,0.5544,0.5916,0.5916,0.5794,0.5544,0.5733,0.5644,0.5522,0.5192,0.4631,0.4196,0.3433,0.2931,0.2558,0.2262,0.2098,0.2064,0.2064,0.2046,0.2019,0.2019,0.2023,0.2029,0.1253,-0.0249,-0.2004,0.1373,0.1365,0.1271,0.1207,0.1213,0.1213,0.1213,0.1213,0.1114,0.0818,0.0516,0.0416,0.0416,0.0106,-0.0,-0.0,-0.0,-0.0,-0.0,-0.0,-0.0,-0.0,-0.0,-0.0,-0.0,-0.0,-0.0,-0.0,-0.0,-0.0,-0.0,0.0561,0.1234,0.1795,0.1458,0.1458,0.1795,0.1795,0.1795,0.1795,0.1795,0.1795,0.1795,0.1795,0.1795,0.1795,0.1795,0.1683,0.157,0.1683,0.1795,0.1795,0.1795,0.1908,0.202,0.1795,0.2244,0.258,0.2468,0.2917,0.3362,0.3362,0.3474,0.3589,0.3589,0.3589,0.3589,0.3589,0.3589,0.3616,0.3709,0.3749,0.379,0.3853,0.3888,0.3907,0.3907,0.3907,0.4041,0.4312,0.4438,0.4561,0.481,0.5056,0.5176,0.5421,0.5425,0.5548,0.6162,0.5912,0.5912,0.5916,0.6039,0.5912,0.5421,0.5466,0.5485,0.5236,0.4969,0.4655,0.4174,0.3706,0.3208,0.2959,0.2653,0.2615,0.258,0.2433,0.2277,0.2247,0.2123,0.2,0.1999,0.1363,0.0372,-0.075,0.1656,0.164,0.1643,0.1606,0.1617,0.1617,0.1617,0.1617,0.1626,0.1651,0.124,0.0931,0.0934,0.0423,-0.0,-0.0,-0.0,-0.0,-0.0,-0.0,-0.0,-0.0,-0.0,-0.0,-0.0,-0.0,-0.0,-0.0,-0.0,-0.0,-0.0,0.1234,0.1795,0.1795,0.1795,0.1795,0.1795,0.1795,0.1795,0.1795,0.1795,0.1795,0.1795,0.1795,0.1795,0.1795,0.1795,0.1795,0.1908,0.1908,0.1908,0.1908,0.1908,0.202,0.2244,0.202,0.2466,0.3026,0.2805,0.3141,0.3589,0.3589,0.3589,0.3589,0.3589,0.3589,0.3591,0.36,0.3602,0.3624,0.381,0.3866,0.3903,0.4021,0.4076,0.3993,0.3982,0.399,0.4137,0.4432,0.4561,0.4807,0.5056,0.5298,0.5544,0.5544,0.5794,0.6039,0.628,0.628,0.6158,0.5794,0.6039,0.5912,0.5298,0.5298,0.5053,0.4807,0.475,0.4426,0.4128,0.3833,0.361,0.3216,0.3181,0.3134,0.3083,0.2664,0.2501,0.259,0.2222,0.2099,0.2099,0.1729,0.137,0.1009,0.1908,0.1816,0.1836,0.1606,0.1617,0.1617,0.1617,0.1617,0.1618,0.1622,0.1624,0.1531,0.1452,0.0642,-0.0,-0.0,-0.0,-0.0,-0.0,-0.0,-0.0,-0.0,-0.0,-0.0,-0.0,-0.0,-0.0,-0.0,-0.0,-0.0,-0.0,0.1234,0.1795,0.1795,0.1795,0.1795,0.1795,0.1795,0.1795,0.1795,0.1795,0.1795,0.1795,0.1795,0.1795,0.1795,0.1795,0.1908,0.2132,0.2132,0.2356,0.258,0.2244,0.2356,0.2582,0.2582,0.2805,0.3138,0.3026,0.3362,0.3589,0.3589,0.3589,0.3589,0.3589,0.3589,0.3602,0.3654,0.3665,0.3816,0.4166,0.4199,0.4324,0.4564,0.4747,0.4651,0.4346,0.4267,0.4429,0.481,0.5302,0.5671,0.5794,0.5794,0.5794,0.5794,0.5916,0.5916,0.5916,0.5667,0.5544,0.5421,0.5179,0.5056,0.4933,0.4687,0.4561,0.4438,0.4273,0.4082,0.4125,0.3754,0.3656,0.3567,0.3299,0.3118,0.3038,0.2653,0.2751,0.2837,0.259,0.2467,0.259,0.2714,0.274,0.265,0.2187,0.2192,0.222,0.2106,0.192,0.1819,0.1819,0.1718,0.1622,0.164,0.1628,0.1628,0.1659,0.0956,0.0327,-0.0,0.0561,0.1009,0.1009,0.0336,-0.0,-0.0,-0.0,-0.0,-0.0,-0.0,-0.0,-0.0,-0.0,-0.0,-0.0,0.0561,0.1121,0.1795,0.1795,0.1795,0.1795,0.1795,0.1795,0.1795,0.1795,0.1795,0.1795,0.1795,0.1795,0.1795,0.1795,0.202,0.2244,0.2244,0.2468,0.2694,0.258,0.2692,0.2917,0.2692,0.3029,0.3362,0.3362,0.3589,0.3813,0.3813,0.3921,0.4033,0.3813,0.3951,0.4101,0.4017,0.4137,0.4281,0.4499,0.4551,0.4551,0.4708,0.4756,0.4674,0.4522,0.4545,0.4717,0.5165,0.5548,0.5916,0.5916,0.5916,0.5916,0.5916,0.5916,0.5916,0.5916,0.5544,0.5298,0.5179,0.481,0.4564,0.4564,0.4438,0.4438,0.4687,0.4345,0.4142,0.4076,0.3981,0.3881,0.3904,0.3744,0.3591,0.3572,0.3262,0.312,0.3247,0.297,0.296,0.3086,0.3209,0.3346,0.3491]},{"header":{"parameterUnit":"m.s-1","parameterCategory":1,"la1":30.6,"la2":28.766,"lo1":-90.7593,"lo2":-88.6598,"dy":0.0162,"dx":0.0183,"nx":116,"ny":114,"refTime":"2023-10-20T06:00:00:Z","depth":0,"parameterNumber":3,"parameterNumberName":"V-component_of_WINDS"},"data":[0.0,0.0,0.0,0.0,0.0,0.0,0.0,0.0,0.0,0.0,0.0,0.0,0.0,0.0,0.0,0.0,0.0,0.0,0.0,0.0,0.0,0.0,0.0,0.0,0.0,0.0,0.0,0.0,0.0,0.0,0.0,0.0,0.0,0.0,0.0,0.0,0.0,0.0,0.0,0.0,0.0,0.0,0.0,0.0,0.0,0.0,0.0,0.0,0.0,0.0,0.0,0.0,0.0,0.0,0.0,0.0,0.0,0.0,0.0,0.0,0.0,0.0,0.0,0.0,0.0,0.0,0.0,0.0,0.0,0.0,0.0,0.0,0.0,0.0,0.0,0.0,0.0,0.0,0.0,0.0,0.0,0.0,0.0,0.0,0.0,0.0,0.0,0.0,0.0,0.0,0.0,0.0,0.0,0.0,0.0,0.0,0.0,0.0,0.0,0.0,0.0,0.0,0.0,0.0,0.0,0.0,0.0,0.0,0.0,0.0,0.0,0.0,0.0,0.0,0.0,0.0,0.0,0.0,0.0,0.0,0.0,0.0,0.0,0.0,0.0,0.0,0.0,0.0,0.0,0.0,0.0,0.0,0.0,0.0,0.0,0.0,0.0,0.0,0.0,0.0,0.0,0.0,0.0,0.0,0.0,0.0,0.0,0.0,0.0,0.0,0.0,0.0,0.0,0.0,0.0,0.0,0.0,0.0,0.0,0.0,0.0,0.0,0.0,0.0,0.0,0.0,0.0,0.0,0.0,0.0,0.0,0.0,0.0,0.0,0.0,0.0,0.0,0.0,0.0,0.0,0.0,0.0,0.0,0.0,0.0,0.0,0.0,0.0,0.0,0.0,0.0,0.0,0.0,0.0,0.0,0.0,0.0,0.0,0.0,0.0,0.0,0.0,0.0,0.0,0.0,0.0,0.0,0.0,0.0,0.0,0.0,0.0,0.0,0.0,0.0,0.0,0.0,0.0,0.0,0.0,0.0,0.0,0.0,0.0,0.0,0.0,0.0,0.0,0.0,0.0,0.0,0.0,0.0,0.0,0.0,0.0,0.0,0.0,0.0,0.0,0.0,0.0,0.0,0.0,0.0,0.0,0.0,0.0,0.0,0.0,0.0,0.0,0.0,0.0,0.0,0.0,0.0,0.0,0.0,0.0,0.0,0.0,0.0,0.0,0.0,0.0,0.0,0.0,0.0,0.0,0.0,0.0,0.0,0.0,0.0,0.0,0.0,0.0,0.0,0.0,0.0,0.0,0.0,0.0,0.0,0.0,0.0,0.0,0.0,0.0,0.0,0.0,0.0,0.0,0.0,0.0,0.0,0.0,0.0,0.0,0.0,0.0,0.0,0.0,0.0,0.0,0.0,0.0,0.0,0.0,0.0,0.0,0.0,0.0,0.0,0.0,0.0,0.0,0.0,0.0,0.0,0.0,0.0,0.0,0.0,0.0,0.0,0.0,0.0,0.0,0.0,0.0,0.0,0.0,0.0,0.0,0.0,0.0,0.0,0.0,0.0,0.0,0.0,0.0,0.0,0.0,0.0,0.0,0.0,0.0,0.0,0.0,0.0,0.0,0.0,0.0,0.0,0.0,0.0,0.0,0.0,0.0,0.0,0.0,0.0,0.0,0.0,0.0,0.0,0.0,0.0,0.0,0.0,0.0,0.0,0.0,0.0,0.0,0.0,0.0,0.0,0.0,0.0,0.0,0.0,0.0,0.0,0.0,0.0,0.0,0.0,0.0,0.0,0.0,0.0,0.0,0.0,0.0,0.0,0.0,0.0,0.0,0.0,0.0,0.0,0.0,0.0,0.0,0.0,0.0,0.0,0.0,0.0,0.0,0.0,0.0,0.0,0.0,0.0,0.0,0.0,0.0,0.0,0.0,0.0,0.0,0.0,0.0,0.0,0.0,0.0,0.0,0.0,0.0,0.0,0.0,0.0,0.0,0.0,0.0,0.0,0.0,0.0,0.0,0.0,0.0,0.0,0.0,0.0,0.0,0.0,0.0,0.0,0.0,0.0,0.0,0.0,0.0,0.0,0.0,0.0,0.0,0.0,0.0,0.0,0.0,0.0,0.0,0.0,0.0,0.0,0.0,0.0,0.0,0.0,0.0,0.0,0.0,0.0,0.0,0.0,0.0,0.0,0.0,0.0,0.0,0.0,0.0,0.0,0.0,0.0,0.0,0.0,0.0,0.0,0.0,0.0,0.0,0.0,0.0,0.0,0.0,0.0,0.0,0.0,0.0,0.0,0.0,0.0,0.0,0.0,0.0,0.0,0.0,0.0,0.0,0.0,0.0,0.0,0.0,0.0,0.0,0.0,0.0,0.0,0.0,0.0,0.0,0.0,0.0,0.0,0.0,0.0,0.0,0.0,0.0,0.0,0.0,0.0,0.0,0.0,0.0,0.0,0.0,0.0,0.0,0.0,0.0,0.0,0.0,0.0,0.0,0.0,0.0,0.0,0.0,0.0,0.0,0.0,0.0,0.0,0.0,0.0,0.0,0.0,0.0,0.0,0.0,0.0,0.0,0.0,0.0,0.0,0.0,0.0,0.0,0.0,0.0,0.0,0.0,0.0,0.0,0.0,0.0,0.0,0.0,0.0,0.0,0.0,0.0,0.0,0.0,0.0,0.0,0.0,0.0,0.0,0.0,0.0,0.0,0.0,0.0,0.0,0.0,0.0,0.0,0.0,0.0,0.0,0.0,0.0,0.0,0.0,0.0,0.0,0.0,0.0,0.0,0.0,0.0,0.0,0.0,0.0,0.0,0.0,0.0,0.0,0.0,0.0,0.0,0.0,0.0,0.0,0.0,0.0,0.0,0.0,0.0,0.0,0.0,0.0,0.0,0.0,0.0,0.0,0.0,0.0,0.0,0.0,0.0,0.0,0.0,0.0,0.0,0.0,0.0,0.0,0.0,0.0,0.0,0.0,0.0,0.0,0.0,0.0,0.0,0.0,0.0,0.0,0.0,0.0,0.0,0.0,0.0,0.0,0.0,0.0,0.0,0.0,0.0,0.0,0.0,0.0,0.0,0.0,0.0,0.0,0.0,0.0,0.0,0.0,0.0,0.0,0.0,0.0,0.0,0.0,0.0,0.0,0.0,0.0,0.0,0.0,0.0,0.0,0.0,0.0,0.0,0.0,0.0,0.0,0.0,0.0,0.0,0.0,0.0,0.0,0.0,0.0,0.0,0.0,0.0,0.0,0.0,0.0,0.0,0.0,0.0,0.0,0.0,0.0,0.0,0.0,0.0,0.0,0.0,0.0,0.0,0.0,0.0,0.0,0.0,0.0,0.0,0.0,0.0,0.0,0.0,0.0,0.0,0.0,0.0,0.0,0.0,0.0,0.0,0.0,0.0,0.0,0.0,0.0,0.0,0.0,0.0,0.0,0.0,0.0,0.0,0.0,0.0,0.0,0.0,0.0,0.0,0.0,0.0,0.0,0.0,0.0,0.0,0.0,0.0,0.0,0.0,0.0,0.0,0.0,0.0,0.0,0.0,0.0,0.0,0.0,0.0,0.0,0.0,0.0,0.0,0.0,0.0,0.0,0.0,0.0,0.0,0.0,0.0,0.0,0.0,0.0,0.0,0.0,0.0,0.0,0.0,0.0,0.0,0.0,0.0,0.0,0.0,0.0,0.0,0.0,0.0,0.0,0.0,0.0,0.0,0.0,0.0,0.0,0.0,0.0,0.0,0.0,0.0,0.0,0.0,0.0,0.0,0.0,0.0,0.0,0.0,0.0,0.0,0.0,0.0,0.0,0.0,0.0,0.0,0.0,0.0,0.0,0.0,0.0,0.0,0.0,0.0,0.0,0.0,0.0,0.0,0.0,0.0,0.0,0.0,0.0,0.0,0.0,0.0,0.0,0.0,0.0,0.0,0.0,0.0,0.0,0.0,0.0,0.0,0.0,0.0,0.0,0.0,0.0,0.0,0.0,0.0,0.0,0.0,0.0,0.0,0.0,0.0,0.0,0.0,0.0,0.0,0.0,0.0,0.0,0.0,0.0,0.0,0.0,0.0,0.0,0.0,0.0,0.0,0.0,0.0,0.0,0.0,0.0,0.0,0.0,0.0,0.0,0.0,0.0,0.0,0.0,0.0,0.0,0.0,0.0,0.0,0.0,0.0,0.0,0.0,0.0,0.0,0.0,0.0,0.0,0.0,0.0,0.0,0.0,0.0,0.0,0.0,0.0,0.0,0.0,0.0,0.0,0.0,0.0,0.0,0.0,0.0,0.0,0.0,0.0,0.0,0.0,0.0,0.0,0.0,0.0,0.0,0.0,0.0,0.0,0.0,0.0,0.0,0.0,0.0,0.0,0.0,0.0,0.0,0.0,0.0,0.0,0.0,0.0,0.0,0.0,0.0,0.0,0.0,0.0,0.0,0.0,0.0,0.0,0.0,0.0,0.0,0.0,0.0,0.0,0.0,0.0,0.0,0.0,0.0,0.0,0.0,0.0,0.0,0.0,0.0,0.0,0.0,0.0,0.0,0.0,0.0,0.0,0.0,0.0,0.0,0.0,0.0,0.0,0.0,0.0,0.0,0.0,0.0,0.0,0.0,0.0,0.0,0.0,0.0,0.0,0.0,0.0,0.0,0.0,0.0,0.0,0.0,0.0,0.0,0.0,0.0,0.0,0.0,0.0,0.0,0.0,0.0,0.0,0.0,0.0,0.0,0.0,0.0,0.0,0.0,0.0,0.0,0.0,0.0,0.0,0.0,0.0,0.0,0.0,0.0,0.0,0.0,0.0,0.0,0.0,0.0,0.0,0.0,0.0,0.0,0.0,0.0,0.0,0.0,0.0,0.0,0.0,0.0,0.0,0.0,0.0,0.0,0.0,0.0,0.0,0.0,0.0,0.0,0.0,0.0,0.0,0.0,0.0,0.0,0.0,0.0,0.0,0.0,0.0,0.0,0.0,0.0,0.0,0.0,0.0,0.0,0.0,0.0,0.0,0.0,0.0,0.0,0.0,0.0,0.0,0.0,0.0,0.0,0.0,0.0,0.0,0.0,0.0,0.0,0.0,0.0,0.0,0.0,0.0,0.0,0.0,0.0,0.0,0.0,0.0,0.0,0.0,0.0,0.0,0.0,0.0,0.0,0.0,0.0,0.0,0.0,0.0,0.0,0.0,0.0,0.0,0.0,0.0,0.0,0.0,0.0,0.0,0.0,0.0,0.0,0.0,0.0,0.0,0.0,0.0,0.0,0.0,0.0,0.0,0.0,0.0,0.0,0.0,0.0,0.0,0.0,0.0,0.0,0.0,0.0,0.0,0.0,0.0,0.0,0.0,0.0,0.0,0.0,0.0,0.0,0.0,0.0,0.0,0.0,0.0,0.0,0.0,0.0,0.0,0.0,0.0,0.0,0.0,0.0,0.0,0.0,0.0,0.0,0.0,0.0,0.0,0.0,0.0,0.0,0.0,0.0,0.0,0.0,0.0,0.0,0.0,0.0,0.0,0.0,0.0,0.0,0.0,0.0,0.0,0.0,0.0,0.0,0.0,0.0,0.0,0.0,0.0,0.0,0.0,0.0,0.0,0.0,0.0,0.0,0.0,0.0,0.0,0.0,0.0,0.0,0.0,0.0,0.0,0.0,0.0,0.0,0.0,0.0,0.0,0.0,0.0,0.0,0.0,0.0,0.0,0.0,0.0,0.0,0.0,0.0,0.0,0.0,0.0,0.0,0.0,0.0,0.0,0.0,0.0,0.0,0.0,0.0,0.0,0.0,0.0,0.0,0.0,0.0,0.0,0.0,0.0,0.0,0.0,0.0,0.0,0.0,0.0,0.0,0.0,0.0,0.0,0.0,0.0,0.0,0.0,0.0,0.0,0.0,0.0,0.0,0.0,0.0,0.0,0.0,0.0,0.0,0.0,0.0,0.0,0.0,0.0,0.0,0.0,0.0,0.0,0.0,0.0,0.0,0.0,0.0,0.0,0.0,0.0,0.0,0.0,0.0,0.0,0.0,0.0,0.0,0.0,0.0,0.0,0.0,0.0,0.0,0.0,0.0,0.0,0.0,0.0,0.0,0.0,0.0,0.0,0.0,0.0,0.0,0.0,0.0,0.0,0.0,0.0,0.0,0.0,0.0,0.0,0.0,0.0,0.0,-3.2034,0.0,0.0,0.0,0.0,0.0,0.0,0.0,0.0,0.0,0.0,0.0,0.0,0.0,0.0,0.0,0.0,0.0,0.0,0.0,0.0,0.0,0.0,0.0,0.0,0.0,0.0,0.0,0.0,0.0,0.0,0.0,0.0,0.0,0.0,0.0,0.0,0.0,0.0,0.0,0.0,0.0,0.0,0.0,0.0,0.0,0.0,0.0,0.0,0.0,0.0,0.0,0.0,0.0,0.0,0.0,0.0,0.0,0.0,0.0,0.0,0.0,0.0,0.0,0.0,0.0,0.0,0.0,0.0,0.0,0.0,0.0,0.0,0.0,0.0,0.0,0.0,0.0,0.0,0.0,0.0,0.0,0.0,0.0,0.0,0.0,0.0,0.0,0.0,0.0,0.0,0.0,0.0,0.0,0.0,0.0,0.0,0.0,0.0,0.0,0.0,0.0,0.0,0.0,0.0,0.0,0.0,0.0,0.0,0.0,0.0,0.0,0.0,0.0,0.0,0.0,0.0,-3.6334,0.0,0.0,0.0,0.0,0.0,0.0,0.0,0.0,0.0,0.0,0.0,0.0,0.0,0.0,0.0,0.0,0.0,0.0,0.0,0.0,0.0,0.0,0.0,0.0,0.0,0.0,0.0,0.0,0.0,0.0,0.0,0.0,0.0,0.0,0.0,0.0,0.0,0.0,0.0,0.0,0.0,0.0,0.0,0.0,0.0,0.0,0.0,0.0,0.0,0.0,0.0,0.0,0.0,0.0,0.0,0.0,0.0,0.0,0.0,0.0,0.0,0.0,0.0,0.0,0.0,0.0,0.0,0.0,0.0,0.0,0.0,0.0,0.0,0.0,0.0,0.0,0.0,0.0,0.0,0.0,0.0,0.0,0.0,0.0,0.0,0.0,0.0,0.0,0.0,0.0,0.0,0.0,0.0,0.0,0.0,0.0,0.0,0.0,0.0,0.0,0.0,0.0,0.0,0.0,0.0,0.0,0.0,0.0,-4.3595,-4.5015,-4.734,-4.823,-4.872,-4.8681,-4.5064,-4.2986,-4.2067,-4.087,0.0,0.0,0.0,0.0,0.0,0.0,0.0,0.0,0.0,0.0,0.0,0.0,0.0,0.0,0.0,0.0,0.0,0.0,0.0,0.0,0.0,0.0,0.0,0.0,0.0,0.0,0.0,0.0,0.0,0.0,0.0,0.0,0.0,0.0,0.0,0.0,0.0,0.0,-3.1398,-3.1507,-3.2175,-3.3192,-3.0923,0.0,0.0,0.0,0.0,0.0,0.0,0.0,0.0,0.0,0.0,0.0,0.0,0.0,0.0,0.0,0.0,0.0,0.0,0.0,0.0,0.0,0.0,0.0,0.0,0.0,0.0,0.0,0.0,0.0,0.0,0.0,0.0,0.0,0.0,0.0,0.0,0.0,0.0,0.0,0.0,0.0,0.0,0.0,-2.752,-2.7791,0.0,0.0,0.0,0.0,0.0,0.0,0.0,0.0,0.0,0.0,0.0,0.0,0.0,-4.0385,-4.2241,-4.5186,-4.6947,-4.7526,-4.9784,-5.1455,-5.2613,-5.3507,-5.4349,-5.5087,-5.4427,0.0,-4.7287,-4.4899,0.0,0.0,0.0,0.0,0.0,0.0,0.0,0.0,0.0,0.0,0.0,0.0,0.0,0.0,0.0,0.0,0.0,0.0,0.0,0.0,0.0,0.0,0.0,0.0,0.0,0.0,0.0,0.0,0.0,0.0,0.0,0.0,0.0,0.0,0.0,0.0,-3.0917,-3.2803,-3.4059,-3.4533,-3.5435,-3.6569,-3.5426,-3.3934,-3.218,-3.1689,0.0,0.0,0.0,0.0,0.0,0.0,0.0,0.0,0.0,0.0,0.0,0.0,0.0,0.0,0.0,0.0,0.0,0.0,0.0,0.0,0.0,0.0,0.0,0.0,0.0,0.0,0.0,0.0,0.0,0.0,0.0,0.0,0.0,0.0,0.0,0.0,0.0,0.0,0.0,-2.7052,-2.9984,-3.1499,-3.2313,-3.2693,0.0,0.0,0.0,0.0,0.0,0.0,0.0,0.0,0.0,-4.1532,-4.3689,-4.5423,-4.6706,-4.8707,-5.0223,-5.1231,-5.2423,-5.3693,-5.5055,-5.5938,-5.6587,-5.6964,-5.6936,-5.5913,-5.3984,-5.0918,-4.9276,-4.8424,0.0,0.0,0.0,0.0,-4.2302,-4.3065,0.0,0.0,0.0,0.0,0.0,0.0,0.0,0.0,0.0,0.0,0.0,0.0,0.0,0.0,0.0,-2.1434,0.0,0.0,0.0,0.0,0.0,0.0,0.0,0.0,0.0,0.0,0.0,0.0,-3.347,-3.5194,-3.6057,-3.692,-3.7783,-3.8646,-3.8646,-3.7336,-3.5124,-3.4235,-3.2812,0.0,0.0,0.0,0.0,0.0,0.0,0.0,0.0,0.0,0.0,0.0,0.0,0.0,0.0,0.0,0.0,0.0,0.0,0.0,0.0,0.0,0.0,0.0,0.0,0.0,0.0,0.0,0.0,0.0,0.0,0.0,0.0,0.0,0.0,0.0,0.0,0.0,0.0,-2.94,-3.2299,-3.4533,-3.5581,-3.6133,0.0,0.0,0.0,0.0,0.0,0.0,-4.0346,-4.1826,-4.3651,-4.602,-4.8111,-4.9616,-5.0499,-5.1421,-5.263,-5.4149,-5.4622,-5.566,-5.7149,-5.8032,-5.8489,-5.8503,-5.8474,-5.8692,-5.8777,-5.5583,-5.3243,-5.1639,-5.0689,-4.9475,-4.8159,-4.7851,-4.826,-4.9048,0.0,0.0,0.0,0.0,0.0,0.0,0.0,0.0,0.0,0.0,0.0,0.0,0.0,0.0,-2.1537,-2.2462,-2.3225,-2.4038,0.0,0.0,0.0,0.0,0.0,0.0,0.0,0.0,0.0,-3.1835,-3.4399,-3.6084,-3.6939,-3.7771,-3.8623,-3.9547,-3.9547,-3.8588,-3.691,-3.595,-3.4565,-3.2822,0.0,0.0,0.0,0.0,0.0,0.0,0.0,0.0,0.0,0.0,0.0,0.0,0.0,0.0,0.0,0.0,0.0,0.0,0.0,0.0,0.0,0.0,0.0,0.0,0.0,0.0,0.0,0.0,0.0,0.0,0.0,0.0,0.0,0.0,0.0,0.0,0.0,0.0,0.0,-3.5524,-3.8558,0.0,0.0,0.0,0.0,-4.0256,-4.1158,-4.3118,-4.6565,-4.7487,-4.8763,-5.0622,-5.1486,-5.2343,-5.3282,-5.4094,-5.4984,-5.5913,-5.7572,-5.8861,-5.984,-6.0724,-6.1143,-6.1211,-6.1136,-6.0638,-5.9708,-5.7063,-5.6355,-5.6863,-5.5977,-5.5088,-5.4216,-5.3356,-5.3623,-5.4293,0.0,0.0,0.0,0.0,0.0,0.0,0.0,0.0,0.0,0.0,0.0,0.0,0.0,-2.217,-2.346,-2.4777,-2.5716,-2.6378,-2.6683,0.0,0.0,0.0,0.0,0.0,0.0,0.0,-3.2328,-3.4352,-3.6334,-3.7738,-3.8623,-4.0045,-4.0897,-4.1219,-4.1203,-4.0865,-4.0216,-3.8792,-3.7201,-3.5476,-3.3742,-3.198,0.0,0.0,0.0,0.0,0.0,0.0,0.0,0.0,0.0,0.0,0.0,0.0,0.0,0.0,0.0,0.0,0.0,0.0,0.0,0.0,0.0,0.0,0.0,0.0,0.0,0.0,0.0,0.0,0.0,0.0,0.0,0.0,0.0,0.0,0.0,0.0,0.0,-3.7981,-4.0173,0.0,-4.1962,-4.221,-4.3078,-4.477,-4.5647,-4.7171,-4.9575,-5.0463,-5.1401,-5.2578,-5.3414,-5.4233,-5.5088,-5.599,-5.7108,-5.8501,-5.9171,-6.0234,-6.1608,-6.1966,-6.2463,-6.2967,-6.2409,-6.195,-6.1491,-6.0007,-5.8906,-5.8109,-5.7172,-5.7035,-5.7218,-5.6265,-5.648,-5.7134,0.0,0.0,0.0,0.0,0.0,0.0,0.0,0.0,0.0,0.0,0.0,-2.0651,-2.2627,-2.3638,-2.4726,-2.6086,-2.703,-2.7542,-2.7518,0.0,0.0,0.0,0.0,0.0,0.0,-3.2231,-3.3963,-3.5707,-3.7649,-3.8926,-3.9542,-4.1272,-4.2073,-4.2073,-4.2369,-4.2509,-4.2443,-4.133,-3.9723,-3.7705,-3.596,-3.4206,-3.2403,0.0,0.0,0.0,0.0,0.0,0.0,0.0,0.0,0.0,0.0,0.0,0.0,0.0,0.0,0.0,0.0,0.0,0.0,0.0,0.0,0.0,0.0,0.0,0.0,0.0,0.0,0.0,0.0,0.0,0.0,0.0,0.0,0.0,0.0,-3.5598,-3.88,-4.0539,-4.2783,-4.4525,-4.5402,-4.6009,-4.69,-4.836,-4.9262,-5.0361,-5.1809,-5.267,-5.3391,-5.3948,-5.4785,-5.5636,-5.6527,-5.7102,-5.8257,-5.9995,-6.0011,-6.0918,-6.2587,-6.2618,-6.3123,-6.3899,-6.3301,-6.3014,-6.2887,-6.2331,-6.1458,-6.0305,-5.8755,-5.8192,-5.8141,-5.7207,-5.7056,-5.7366,0.0,0.0,0.0,0.0,0.0,0.0,0.0,0.0,0.0,0.0,-1.9383,-2.0927,-2.3474,-2.4482,-2.5315,-2.6199,-2.71,-2.757,-2.7494,-2.77,0.0,0.0,0.0,0.0,-3.0646,-3.3953,-3.5753,-3.5824,-3.8268,-3.9518,-3.958,-4.1248,-4.2048,-4.2086,-4.2937,-4.3337,-4.3337,-4.3298,-4.1928,-3.9547,-3.781,-3.6024,-3.4251,0.0,0.0,0.0,0.0,0.0,0.0,0.0,0.0,0.0,0.0,0.0,0.0,0.0,0.0,0.0,0.0,0.0,0.0,0.0,0.0,0.0,0.0,0.0,0.0,0.0,0.0,0.0,0.0,0.0,0.0,0.0,0.0,0.0,-3.5545,-3.8581,-4.144,-4.3096,-4.6366,-4.8125,-4.7312,-4.8783,-5.0177,-5.1029,-5.1881,-5.2709,-5.3507,-5.4404,-5.4917,-5.4943,-5.5691,-5.6559,-5.7612,-5.7543,-5.8396,-6.0176,-6.0137,-6.1031,-6.2779,-6.2701,-6.3168,-6.4061,-6.3938,-6.389,-6.3856,-6.3804,-6.3839,-6.3635,-6.1018,-5.9022,-5.7498,-5.6549,-5.5702,-5.5354,0.0,0.0,0.0,0.0,0.0,0.0,0.0,0.0,0.0,0.0,-2.0401,-2.2425,-2.4299,-2.5859,-2.7144,-2.8017,-2.9414,-3.003,-2.9479,0.0,0.0,0.0,0.0,0.0,-3.4152,-3.5118,-3.6571,-3.8462,-3.9134,-3.9792,-4.0474,-4.2164,-4.2937,-4.2976,-4.3866,-4.4253,-4.4189,-4.3569,-4.2898,-4.211,-4.0432,-3.8694,-3.7023,0.0,0.0,0.0,0.0,0.0,0.0,0.0,0.0,0.0,0.0,0.0,0.0,0.0,0.0,0.0,0.0,0.0,0.0,0.0,0.0,0.0,0.0,0.0,0.0,0.0,0.0,0.0,0.0,0.0,0.0,0.0,-3.7302,-3.9554,-3.8324,-4.1754,-4.4568,-4.4947,-4.805,-5.0052,-4.9821,-5.1327,-5.2408,-5.264,-5.3524,-5.4138,-5.4365,-5.5852,-5.6372,-5.5714,-5.7211,-5.8118,-5.8296,-5.8993,-6.024,-6.1963,-6.0692,-6.1662,-6.445,-6.2556,-6.3177,-6.5732,-6.4443,-6.42,-6.4709,-6.3997,-6.3783,-6.3701,-6.2331,-6.1918,-6.2012,-6.1112,-6.0251,-5.9675,0.0,0.0,0.0,0.0,0.0,0.0,0.0,0.0,0.0,0.0,-2.1004,-2.3156,-2.5114,-2.6616,-2.7812,-2.8669,-2.9984,-3.0632,-3.018,0.0,0.0,0.0,0.0,-3.4067,-3.5558,-3.6639,-3.7938,-3.9507,-3.9805,-4.0436,-4.1376,-4.2731,-4.3531,-4.3866,-4.4769,-4.5117,-4.5065,-4.4548,-4.4136,-4.3776,-4.2757,-4.0887,-3.8709,-3.8168,-3.6598,-3.4643,-3.4881,-3.4174,-3.2971,-3.1725,0.0,0.0,0.0,0.0,0.0,0.0,0.0,0.0,0.0,0.0,0.0,0.0,0.0,0.0,0.0,0.0,0.0,0.0,0.0,0.0,0.0,0.0,0.0,0.0,-4.0351,-4.2497,-4.3359,-4.5401,-4.7069,-4.7713,-4.9872,-5.1432,-5.1817,-5.3012,-5.3995,-5.4342,-5.5209,-5.5921,-5.6286,-5.7306,-5.7499,-5.6592,-5.8269,-5.921,-5.9171,-6.0111,-6.1298,-6.2663,-6.1274,-6.2065,-6.4644,-6.3114,-6.393,-6.6431,-6.5413,-6.5209,-6.5601,-6.5043,-6.4811,0.0,0.0,0.0,0.0,0.0,-6.0328,-6.0351,0.0,0.0,0.0,0.0,0.0,0.0,0.0,0.0,0.0,0.0,0.0,-2.3194,-2.5672,-2.6715,-2.7562,-2.8504,-2.933,-2.9878,0.0,0.0,0.0,-3.1965,-3.425,-3.5612,-3.5868,-3.8182,-3.9457,-3.9649,-4.0346,-4.1171,-4.2124,-4.2976,-4.3815,-4.4639,-4.5492,-4.588,-4.58,-4.581,-4.5385,-4.4742,-4.466,-4.2742,-3.9932,-3.9828,-3.8783,-3.7235,-3.66,-3.6706,-3.6897,-3.533,0.0,0.0,0.0,0.0,0.0,0.0,0.0,0.0,0.0,0.0,0.0,0.0,0.0,0.0,0.0,0.0,0.0,0.0,0.0,0.0,0.0,0.0,0.0,0.0,-4.2905,-4.5111,-4.899,-4.9142,-4.9314,-5.0683,-5.1703,-5.2627,-5.3514,-5.4323,-5.519,-5.6117,-5.6908,-5.7661,-5.8452,0.0,0.0,0.0,0.0,-6.0131,-6.0134,-6.0971,-6.1818,-6.2701,-6.1808,-6.2352,-6.4139,-6.3945,-6.4799,-6.6508,-6.6345,-6.6295,-6.6376,-6.6322,-6.6225,-6.5895,-6.2951,-6.1375,-6.0561,-5.8994,-5.8845,-5.9542,0.0,0.0,0.0,0.0,0.0,0.0,0.0,0.0,0.0,-1.8708,-2.0301,-2.226,-2.4716,-2.5242,-2.6254,-2.8428,-2.8222,-2.8646,0.0,0.0,-3.2119,-3.3673,-3.4801,-3.6084,-3.75,-3.8733,-3.9687,-4.0462,-4.0604,-4.1171,-4.206,-4.2912,-4.3788,-4.4639,-4.5465,-4.5814,-4.58,-4.581,-4.5718,-4.5563,-4.548,-4.4312,-4.2473,-4.1777,-4.09,-4.0048,-3.9867,-3.9054,-3.7909,-3.7588,-3.6818,-3.5932,-3.5083,-3.4248,0.0,0.0,0.0,0.0,0.0,0.0,0.0,0.0,0.0,0.0,0.0,0.0,0.0,0.0,0.0,0.0,0.0,0.0,0.0,-4.2522,-4.6302,-4.9431,-5.0258,-5.1352,-5.2005,-5.1682,-5.3049,-5.4339,-5.5147,-5.5994,-5.6862,-5.7772,-5.8004,-5.8199,-5.8491,-5.9167,-5.9534,-5.9395,-6.1074,-6.1668,-6.1042,-6.1943,-6.2517,-6.2701,0.0,0.0,-6.4916,-6.3526,-6.4186,-6.647,-6.5691,-6.5773,-6.6376,-6.6284,-6.5858,-6.5351,-6.5386,-6.539,-6.5256,-6.4831,-6.4333,-6.389,0.0,0.0,0.0,0.0,0.0,0.0,0.0,0.0,0.0,0.0,-2.0123,-2.1746,-2.3352,-2.3973,-2.4946,-2.6563,-2.7578,0.0,0.0,-3.1155,-3.2498,-3.3454,-3.5499,-3.7049,-3.7939,-3.9208,-4.0085,-4.0598,-4.0598,-4.1051,-4.1956,-4.2447,-4.3336,-4.4573,-4.5026,-4.5413,-4.581,-4.5781,-4.575,-4.575,-4.5703,-4.5233,-4.439,-4.3554,-4.2717,-4.1944,-4.1596,-4.0861,-4.0036,-3.9635,-3.8914,-3.8066,-3.7665,-3.6636,-3.5326,0.0,0.0,0.0,0.0,0.0,0.0,0.0,0.0,0.0,0.0,0.0,0.0,0.0,0.0,-3.8767,-3.9643,0.0,-4.5263,-4.6588,-4.8932,-5.1003,-5.2312,-5.3174,-5.3558,-5.3178,-5.4276,-5.5412,-5.628,-5.7126,-5.7841,-5.8286,-5.8736,-5.9009,-5.9109,-5.9978,-6.0287,-5.9841,-6.1578,-6.2095,-6.1314,-6.2215,-6.2672,-6.2701,-6.2221,-6.292,-6.4566,-6.4124,-6.4862,-6.647,-6.5946,-6.5989,-6.6376,-6.6303,-6.6032,-6.5795,-6.6234,-6.5934,-6.5319,-6.563,-6.5209,-6.4494,0.0,0.0,0.0,0.0,0.0,0.0,0.0,0.0,0.0,0.0,0.0,-2.1216,-2.1984,-2.2716,-2.3574,0.0,0.0,0.0,0.0,-3.1126,-3.2592,-3.2972,-3.5959,-3.7682,-3.7836,-3.9346,-4.0257,-4.0492,-4.0508,-4.0977,-4.1899,-4.1942,-4.2767,-4.4221,-4.4496,-4.4843,-4.5302,-4.558,-4.5488,-4.5202,-4.5362,-4.5324,-4.5125,-4.4461,-4.3796,-4.3115,-4.2357,-4.1828,-4.1377,-4.0742,-4.006,-3.9444,-3.9286,-3.8268,-3.6907,-3.583,-3.4379,0.0,0.0,0.0,0.0,0.0,0.0,0.0,0.0,-3.494,-3.7219,-3.7682,-4.0296,-4.2919,-4.4509,-4.6317,-4.8259,-5.0356,-5.1027,-5.2001,-5.4117,-5.454,-5.4617,-5.4617,-5.5346,-5.6236,-5.7165,-5.8011,-5.8588,-5.8803,-5.9507,-5.9917,-5.9958,-6.0829,-6.1041,-6.0363,-6.1908,-6.2388,-6.1562,-6.2238,-6.2618,-6.2701,-6.2857,-6.3401,-6.4255,-6.5071,-6.5848,-6.6508,-6.6428,-6.6376,-6.6358,-6.6322,-6.634,-6.6394,-6.6389,-6.5623,-6.4551,-6.5131,-6.4903,-6.4399,0.0,0.0,0.0,0.0,0.0,0.0,0.0,0.0,0.0,0.0,0.0,0.0,0.0,0.0,0.0,0.0,0.0,0.0,-2.8722,-3.0424,-3.2036,-3.362,-3.547,-3.686,-3.7715,-3.872,-3.9614,-4.0394,-4.0508,-4.1031,-4.1817,-4.1885,-4.2401,-4.3297,-4.4137,-4.4099,-4.3489,-4.5054,-4.4823,-4.3458,-4.4157,-4.4025,-4.3371,-4.3304,-4.325,-4.3115,-4.2304,-4.1015,-3.9675,-3.9573,-3.943,-3.9224,-3.8556,-3.8221,-3.7732,-3.601,-3.4828,-3.3673,-3.1872,-3.1768,-3.2504,-3.3919,-3.5096,-3.6217,0.0,-3.8842,-4.0196,-4.1781,-4.3731,-4.547,-4.6432,-4.8623,-5.0336,-5.0645,-5.2549,-5.4045,-5.4348,-5.4956,-5.5393,-5.5462,-5.6275,-5.7203,-5.8088,-5.8896,-5.9749,-6.0629,-6.074,-6.0843,-6.0944,-6.1717,-6.2182,-6.2198,-6.3166,-6.3296,-6.2447,-6.2564,-6.2618,-6.2701,-6.3478,-6.4294,-6.511,-6.5965,-6.6392,-6.6508,-6.6428,-6.6358,-6.6322,-6.6303,-6.634,-6.6394,-6.6389,-6.6306,-6.6221,-6.6256,-6.6179,-6.6101,0.0,0.0,0.0,0.0,0.0,0.0,0.0,0.0,0.0,0.0,0.0,0.0,0.0,0.0,0.0,0.0,0.0,0.0,-2.7196,-2.9666,-3.1672,-3.2931,-3.5021,-3.6407,-3.6881,-3.8214,-3.9146,-3.958,-4.013,-4.0603,-4.0998,-4.1014,-4.1492,-4.2316,-4.2717,-4.2948,-4.3085,-4.3816,-4.3701,-4.3085,-4.3415,-4.3376,-4.3085,-4.3096,-4.251,-4.1692,-4.1846,-4.1099,0.0,0.0,-3.896,-3.8474,-3.8194,-3.7398,-3.6575,-3.6238,-3.485,-3.3182,-3.2333,-3.3413,-3.4884,-3.5571,-3.7148,-3.8803,-4.0022,-4.1398,-4.2795,-4.4153,-4.5819,-4.7317,-4.8126,-5.0029,-5.1607,-5.2028,-5.3454,-5.4629,-5.5147,-5.5493,-5.5724,-5.5724,-5.6032,-5.6802,-5.8171,-5.8616,-5.9216,-6.0187,-6.0689,-6.0769,-6.0384,-6.1621,-6.2162,-6.1772,-6.305,-6.3356,-6.2571,-6.3091,-6.3394,-6.341,-6.4279,-6.4862,-6.5235,-6.6105,-6.6493,-6.6422,-6.6389,-6.6394,-6.6358,-6.6376,-6.6355,-6.6389,-6.6422,-6.6508,-6.6538,-6.6428,-6.6394,-6.6394,0.0,0.0,0.0,0.0,0.0,0.0,0.0,0.0,0.0,0.0,0.0,0.0,0.0,0.0,0.0,0.0,0.0,0.0,0.0,-2.8638,-3.0677,-3.1598,-3.4055,-3.5531,-3.5855,-3.7318,-3.8232,-3.8575,-3.9222,-3.9697,-3.9998,-4.0015,-4.0509,-4.1332,-4.1579,-4.1925,-4.2291,-4.2769,-4.2693,-4.2309,-4.2539,-4.2518,-4.2321,-4.2085,-4.1239,-4.0261,-4.1139,-4.0562,0.0,0.0,-3.7724,-3.7141,-3.6695,-3.5864,-3.521,-3.5699,-3.4527,-3.315,-3.3527,-3.5092,-3.6767,-3.7262,-3.9299,-4.1396,-4.2296,-4.3634,-4.5053,-4.632,-4.7568,-4.8625,-4.924,-5.0798,-5.2184,-5.27,-5.3723,-5.4785,-5.5691,-5.5653,-5.5499,-5.5458,-5.4955,-5.5416,-5.7405,-5.8021,-5.8775,-5.9976,-6.0634,-6.0732,-6.0172,-6.1563,-6.2143,-6.156,-6.2954,-6.3398,-6.2831,-6.3524,-6.3984,-6.4272,-6.4885,-6.5312,-6.5552,-6.6167,-6.6477,-6.6422,-6.6406,-6.6389,-6.6394,-6.6389,-6.6406,-6.6406,-6.6454,-6.6524,-6.6577,-6.6411,-6.6376,-6.6358,0.0,0.0,0.0,0.0,0.0,0.0,0.0,0.0,0.0,0.0,0.0,0.0,0.0,0.0,0.0,0.0,0.0,0.0,0.0,-2.714,-2.8891,-2.9664,-3.2184,-3.3938,-3.4747,-3.5758,-3.6671,-3.7468,-3.7661,-3.8226,-3.9029,-3.9116,-3.9593,-4.0384,-4.128,-4.1203,-4.0498,-4.22,-4.1949,-4.0569,-4.1412,-4.1221,-4.0377,-3.9533,-3.9155,-3.9179,-4.0197,0.0,0.0,-3.5665,-3.531,-3.5005,-3.3387,-3.3417,-3.4044,-3.3983,-3.3887,-3.4127,-3.5759,-3.6843,-3.7985,-3.9662,-4.199,-4.4111,-4.4908,-4.5812,-4.7026,-4.8736,-4.9221,-4.9356,-4.9394,-5.0818,-5.1992,-5.1953,-5.3378,-5.4843,-5.5769,-5.5111,-5.4549,-5.4549,-5.3007,-5.2951,-5.5614,-5.7324,-5.9023,-6.0828,-6.1002,-6.1022,-6.1079,-6.193,-6.2394,-6.2356,-6.3207,-6.3709,-6.3669,-6.3761,-6.4278,-6.5164,-6.5203,-6.5591,-6.6367,-6.6406,-6.6422,-6.6508,-6.6422,-6.6406,-6.6406,-6.6406,-6.6406,-6.6406,-6.6454,-6.6508,-6.6493,-6.6358,-6.6301,-6.6281,0.0,0.0,0.0,0.0,0.0,0.0,0.0,0.0,0.0,0.0,0.0,0.0,0.0,0.0,0.0,0.0,0.0,0.0,0.0,-2.5672,-2.7586,-2.9514,-3.0899,-3.2064,-3.2972,-3.386,-3.4809,-3.576,-3.6388,-3.7129,-3.8004,-3.8097,-3.8267,-3.8536,-3.8876,-3.9144,-3.9338,-4.0023,-3.9983,-3.9524,-3.9827,-3.9823,-3.9457,-3.8525,-3.784,-3.7309,0.0,0.0,0.0,-3.4451,-3.3823,-3.3304,-3.2749,-3.24,-3.2203,-3.2172,-3.3342,-3.4753,-3.5391,-3.7448,-3.968,-4.0844,-4.2642,-4.4346,-4.513,-4.5591,-4.632,-4.8048,-4.8029,-4.8084,-4.9163,-4.9894,-5.0506,-5.1029,-5.2608,-5.411,-5.5032,-5.5362,-5.5498,-5.5498,-5.442,-5.4477,-5.6598,-5.5653,-5.5882,-5.8298,-5.8954,-5.9283,-5.9283,-6.1834,-6.3013,-6.2433,-6.4329,-6.5122,-6.458,-6.5141,-6.5661,-6.6023,-6.6001,-6.6134,-6.6406,-6.6406,-6.6422,-6.6508,-6.6493,-6.6493,-6.6493,-6.6493,-6.6493,-6.6493,-6.6508,-6.6439,-6.6373,-6.6264,-6.6185,-6.6084,0.0,0.0,0.0,0.0,0.0,0.0,0.0,0.0,0.0,0.0,0.0,0.0,0.0,0.0,0.0,0.0,0.0,-2.1358,0.0,0.0,-2.6112,-2.7718,-2.9137,-3.0148,-3.0752,-3.1636,-3.258,-3.3507,-3.4074,-3.4965,-3.6103,-3.6216,-3.6425,-3.6672,-3.6708,-3.7147,-3.787,-3.8004,-3.8365,-3.8899,-3.8613,-3.8687,-3.8876,-3.7621,-3.6631,0.0,0.0,0.0,0.0,-3.2882,-3.2389,-3.1986,-3.202,-3.2129,-3.2238,-3.2509,-3.3937,-3.5683,-3.6705,-3.8802,-4.0998,-4.224,-4.3599,-4.4844,-4.5669,-4.586,-4.6263,-4.7684,-4.7375,-4.7086,-4.7779,-4.824,-4.8831,-4.9624,-5.1277,-5.291,-5.4138,-5.474,-5.5032,-5.5032,-5.4514,-5.4727,-5.6191,-5.4458,-5.4612,-5.7931,-5.8317,-5.8703,-5.9341,-6.1524,-6.2781,-6.2859,-6.4464,-6.5354,-6.5451,-6.6032,-6.634,-6.6358,-6.6338,-6.6373,-6.6389,-6.6389,-6.6461,-6.6508,-6.6508,-6.6508,-6.6508,-6.6508,-6.6508,-6.6508,-6.6508,-6.6439,-6.6373,-6.6245,-6.6337,-6.6483,0.0,0.0,0.0,0.0,0.0,0.0,0.0,0.0,0.0,0.0,0.0,0.0,0.0,0.0,0.0,0.0,0.0,0.0,0.0,0.0,0.0,-2.4442,-2.6857,-2.8183,-2.8185,-2.9156,-3.0038,-3.0866,-3.0938,-3.1785,-3.3412,-3.3449,-3.3941,-3.4718,-3.4717,-3.5192,-3.5989,-3.6084,-3.7053,-3.8459,-3.7564,-3.7735,-3.8345,-3.6653,0.0,0.0,0.0,0.0,-3.096,-3.1051,-3.1142,-3.1197,-3.1248,-3.2454,-3.3951,-3.4698,-3.5609,-3.6938,-3.9433,-4.0768,-4.1934,-4.3752,-4.4787,-4.5609,-4.6454,-4.6589,-4.6819,-4.7684,-4.7204,-4.634,-4.5438,-4.5994,-4.6876,-4.7818,-4.9507,-5.131,-5.3172,-5.3353,-5.3338,-5.3377,-5.3378,-5.3745,-5.465,-5.3957,-5.5229,-5.9571,0.0,-5.9167,-6.079,-6.1079,-6.193,-6.3632,-6.3806,-6.4637,-6.6264,-6.6358,-6.6358,-6.6303,-6.6303,-6.634,-6.6376,-6.6394,-6.6428,-6.6508,-6.6508,-6.6508,-6.6508,-6.6508,-6.6508,-6.6508,-6.6508,-6.6508,-6.6477,-6.6264,-6.6766,-6.7343,0.0,0.0,0.0,0.0,0.0,0.0,0.0,0.0,0.0,0.0,0.0,0.0,0.0,0.0,0.0,0.0,0.0,0.0,0.0,0.0,0.0,0.0,0.0,0.0,0.0,0.0,0.0,0.0,0.0,-2.9662,-3.0622,-3.0751,-3.0846,-3.0998,-3.1069,-3.19,-3.3125,-3.3261,-3.3904,-3.485,0.0,-3.4812,-3.4963,0.0,0.0,0.0,0.0,0.0,-3.0132,-3.0864,-3.1576,-3.2134,-3.22,-3.3026,-3.4105,-3.4961,-3.6239,-3.7823,-3.9809,-4.1397,-4.2794,-4.3943,-4.4825,-4.5457,-4.5706,-4.5227,-4.4997,-4.5757,-4.4766,-4.3675,-4.3405,-4.3578,-4.4288,-4.597,-4.7681,-4.9679,-5.2166,-5.3056,-5.3696,-5.4353,-5.4431,-5.4993,-5.648,-5.5825,-5.6598,-5.9687,-5.8414,-5.7699,-5.8042,-6.0616,-6.2588,-6.3671,-6.4348,-6.5219,-6.6303,-6.6358,-6.634,-6.6244,-6.632,-6.6355,-6.6376,-6.6445,-6.6493,-6.6508,-6.6508,-6.6508,-6.6508,-6.6508,-6.6508,-6.6508,-6.6508,-6.6439,-6.6316,-6.6245,-6.6664,-6.7309,0.0,0.0,0.0,0.0,0.0,0.0,0.0,0.0,0.0,0.0,0.0,0.0,0.0,0.0,0.0,0.0,0.0,0.0,0.0,0.0,0.0,0.0,0.0,0.0,0.0,0.0,0.0,0.0,0.0,0.0,0.0,-2.8162,-2.8219,-2.8521,-2.8573,-2.9305,-3.0489,-3.0528,0.0,0.0,0.0,0.0,0.0,0.0,0.0,0.0,0.0,-3.0394,-3.0469,-3.1389,-3.21,-3.2695,-3.35,-3.4388,-3.5321,-3.6544,-3.7555,-3.8797,-4.0881,-4.2163,-4.3159,-4.4403,-4.5055,-4.5245,-4.488,-4.4421,-4.396,-4.3569,-4.2425,-4.1378,-4.0992,-4.1627,-4.2699,-4.4166,-4.6562,-4.8883,-5.0813,-5.2144,-5.3265,-5.4116,-5.4581,-5.5316,-5.6592,-5.5938,-5.6346,-5.851,-5.8085,-5.8066,-5.876,-6.0713,-6.2259,-6.3129,-6.3651,-6.454,-6.5795,-6.6183,-6.6358,-6.6303,-6.632,-6.6355,-6.6411,-6.6461,-6.6454,-6.6508,0.0,-6.6508,-6.6508,-6.6508,-6.6508,-6.6508,-6.6493,-6.6406,-6.6316,-6.6225,-6.6703,-6.7386,0.0,0.0,0.0,0.0,0.0,0.0,0.0,0.0,0.0,0.0,0.0,0.0,0.0,0.0,0.0,0.0,0.0,0.0,0.0,0.0,0.0,0.0,0.0,0.0,0.0,0.0,0.0,0.0,0.0,0.0,0.0,0.0,0.0,0.0,0.0,0.0,0.0,0.0,0.0,0.0,0.0,0.0,0.0,0.0,0.0,0.0,-2.9338,-3.0127,-3.0956,-3.21,-3.2623,-3.307,-3.483,-3.5971,-3.6986,-3.8478,-3.9031,-3.9679,-4.2011,-4.2661,-4.3043,-4.4651,-4.5013,-4.4743,-4.3864,-4.3538,-4.2962,-4.114,-4.0072,-3.9157,-3.8234,-3.9584,-4.1187,-4.2315,-4.5307,-4.7944,-4.9289,-5.0735,-5.2089,-5.3188,-5.4116,-5.5006,-5.5896,-5.532,-5.5593,-5.7333,-5.8124,-5.9205,-6.0828,-6.1041,-6.1523,-6.2469,-6.2637,-6.3485,-6.5164,-6.5907,-6.6278,-6.6376,-6.634,-6.6338,-6.6406,-6.6406,-6.6439,-6.6508,-6.6508,0.0,-6.6338,-6.647,-6.6415,-6.6322,-6.6367,-6.6406,-6.6389,-6.6245,-6.6784,-6.7686,0.0,0.0,0.0,0.0,0.0,0.0,0.0,0.0,0.0,0.0,0.0,0.0,0.0,0.0,0.0,0.0,0.0,0.0,0.0,0.0,0.0,0.0,0.0,0.0,0.0,0.0,0.0,-2.2418,-2.229,0.0,0.0,0.0,0.0,0.0,0.0,0.0,0.0,0.0,0.0,0.0,0.0,0.0,0.0,0.0,0.0,0.0,-2.8487,-2.8952,-2.9472,-3.1825,-3.3037,-3.3908,-3.5692,-3.6922,-3.7852,-3.8772,-3.9576,-4.0419,-4.1532,-4.1819,-4.2049,-4.3005,-4.3194,-4.2924,-4.2044,-4.1199,-4.0106,-3.8288,-3.7219,-3.6324,-3.5364,-3.6136,-3.7667,-4.002,-4.1666,-4.3981,-4.7923,-4.8711,-4.9765,-5.2144,-5.3188,-5.431,-5.5857,-5.5861,-5.6771,-5.9243,-5.8858,-5.8916,-5.9881,-6.0693,-6.1523,-6.2469,-6.3253,-6.4123,-6.5114,-6.5303,-6.5713,-6.6376,-6.6411,-6.6389,-6.6406,-6.6439,-6.6493,-6.6508,-6.6508,0.0,-6.5403,-6.6167,-6.6018,-6.5351,-6.6101,-6.6406,-6.6389,-6.6301,-6.7251,-6.8566,0.0,0.0,0.0,0.0,0.0,0.0,0.0,0.0,0.0,0.0,0.0,0.0,0.0,0.0,0.0,0.0,0.0,0.0,0.0,0.0,0.0,0.0,0.0,0.0,0.0,-2.0544,-2.0886,-2.1237,0.0,-2.1137,-2.1951,-2.1893,-2.2115,-2.2527,-2.2967,-2.3321,0.0,0.0,0.0,0.0,0.0,0.0,0.0,0.0,0.0,0.0,0.0,-2.7829,-2.8785,-3.0078,-3.1341,-3.2873,-3.5637,-3.7045,-3.7885,-3.8687,-3.9584,-4.0482,-4.1245,-4.1514,-4.1743,-4.2545,-4.2695,-4.2311,-4.095,-3.9857,-3.8515,-3.6197,-3.5019,-3.4128,-3.3321,-3.4614,-3.6314,-3.7735,-3.9909,-4.2546,-4.5753,-4.6959,-4.8497,-5.1151,-5.2232,-5.343,-5.5091,-5.4862,-5.5884,-5.899,-5.8335,-5.8568,-6.0345,-6.0886,-6.1366,-6.1845,-6.2765,-6.3418,-6.3845,-6.4737,-6.5397,-6.5785,-6.6212,-6.6422,-6.6439,-6.6493,-6.6508,-6.6508,-6.6508,0.0,-6.5791,-6.6267,-6.6157,-6.5777,-6.62,-6.6411,-6.645,-6.6824,-6.7465,-6.8218,0.0,0.0,0.0,0.0,0.0,0.0,0.0,0.0,0.0,0.0,0.0,0.0,0.0,0.0,0.0,0.0,0.0,0.0,0.0,0.0,0.0,0.0,0.0,0.0,0.0,0.0,0.0,-2.0278,-1.9752,0.0,0.0,0.0,0.0,0.0,-2.1861,-2.1885,-2.1855,-2.241,0.0,0.0,0.0,-2.3543,0.0,0.0,0.0,0.0,0.0,-2.686,-2.8022,-2.8433,-2.9448,-3.1087,-3.4258,-3.6082,-3.7186,-3.7985,-3.8899,-3.9756,-4.0549,-4.0822,-4.1112,-4.195,-4.2006,-4.1431,-3.9726,-3.8483,-3.6933,-3.4367,-3.3096,-3.2292,-3.1675,-3.3275,-3.4953,-3.5702,-3.8366,-4.1169,-4.3662,-4.5312,-4.7328,-5.0212,-5.1275,-5.2471,-5.4205,-5.3706,-5.4612,-5.7794,-5.766,-5.851,-6.0963,-6.1173,-6.1264,-6.1297,-6.1966,-6.2478,-6.2701,-6.3992,-6.4846,-6.5226,-6.584,-6.6267,-6.6493,-6.6493,-6.6477,-6.6477,-6.6477,-6.6329,0.0,-6.6312,-6.6278,-6.6108,-6.6281,-6.6358,-6.6493,-6.7307,-6.7677,-6.8006,0.0,0.0,0.0,0.0,0.0,0.0,0.0,0.0,0.0,0.0,0.0,0.0,0.0,0.0,0.0,0.0,0.0,0.0,0.0,0.0,0.0,0.0,0.0,0.0,0.0,0.0,0.0,-1.9597,-1.9457,0.0,0.0,0.0,0.0,0.0,0.0,-2.1849,-2.1799,-2.1858,0.0,0.0,0.0,0.0,0.0,0.0,0.0,0.0,0.0,-2.6161,-2.6547,-2.793,-2.8535,-2.8968,-3.0753,-3.3072,-3.5306,-3.6121,-3.6975,-3.7849,-3.8801,-3.9031,-3.9261,-4.0117,-3.9754,-3.8895,-3.7785,-3.6222,-3.4395,-3.2411,-3.1355,-3.0672,-3.0485,-3.0806,-3.1859,-3.4277,-3.5706,-3.8019,-4.2409,-4.3733,-4.5649,-4.9351,-5.037,-5.149,-5.3404,-5.3378,-5.4033,-5.6001,-5.7468,-5.909,-6.1002,-6.1203,-6.1291,-6.1297,-6.1453,-6.1886,-6.2701,-6.2857,-6.3711,-6.5188,-6.5258,-6.5708,-6.6406,-6.6411,-6.6394,-6.6394,-6.6394,-6.5875,0.0,-6.601,-6.5838,-6.5139,-6.5974,-6.6322,-6.6399,-6.7289,-6.8121,-6.8917,0.0,0.0,0.0,0.0,0.0,0.0,0.0,0.0,0.0,0.0,0.0,0.0,0.0,0.0,0.0,0.0,0.0,0.0,0.0,0.0,0.0,0.0,0.0,0.0,0.0,0.0,-1.9545,-1.9501,-1.953,0.0,0.0,0.0,0.0,0.0,0.0,-2.023,-2.0079,-2.0677,0.0,0.0,0.0,0.0,0.0,0.0,0.0,0.0,0.0,0.0,-2.5951,-2.6014,-2.6707,-2.7587,-2.7662,-2.9081,-3.1236,-3.3627,-3.545,-3.6687,-3.6965,-3.7543,-3.8137,-3.8441,-3.8269,-3.7601,-3.6075,-3.4701,-3.3194,-3.1333,-3.0212,-2.9568,-2.9636,-3.0539,-3.1831,-3.359,-3.5526,-3.7869,-4.0863,-4.245,-4.4479,-4.7527,-4.899,-5.0702,-5.3145,-5.3745,-5.4957,-5.7294,-5.907,-6.0345,-6.1079,-6.1134,-6.1225,-6.1297,-6.133,-6.1531,-6.1924,-6.2429,-6.3284,-6.4488,-6.4978,-6.5607,-6.6406,-6.6389,-6.6411,-6.6376,-6.6376,-6.5818,0.0,-6.5915,-6.578,-6.5005,-6.5973,-6.6687,-6.7247,-6.8191,-6.9045,-6.9882,0.0,0.0,0.0,0.0,0.0,0.0,0.0,0.0,0.0,0.0,0.0,0.0,0.0,0.0,0.0,0.0,0.0,0.0,0.0,0.0,0.0,0.0,0.0,0.0,0.0,0.0,-1.9217,-1.9189,-1.9453,-1.9587,0.0,0.0,-1.9442,-1.9308,0.0,0.0,0.0,0.0,0.0,0.0,0.0,0.0,0.0,0.0,0.0,0.0,0.0,0.0,0.0,0.0,0.0,-2.5764,-2.5319,-2.6132,-2.789,-3.1064,-3.3168,-3.4593,-3.5199,-3.6012,-3.6765,-3.7275,-3.699,-3.6247,-3.4889,-3.3216,-3.166,-3.0545,-2.9389,-2.8659,-2.9075,-3.0146,-3.1533,0.0,-3.5266,-3.749,-3.987,-4.1778,-4.3673,-4.5707,-4.7684,-4.974,-5.1915,-5.3569,-5.536,-5.7564,-5.9302,-6.0288,-6.0307,-6.079,-6.1155,-6.1297,-6.1297,-6.1345,-6.1419,-6.1988,-6.2842,-6.3969,-6.4551,-6.5374,-6.6389,-6.6373,-6.6239,-6.601,-6.6224,-6.5509,0.0,-6.5703,-6.5625,-6.4658,-6.5914,-6.6916,-6.7803,-6.873,-6.9584,-7.0438,0.0,0.0,0.0,0.0,0.0,0.0,0.0,0.0,0.0,0.0,0.0,0.0,0.0,0.0,0.0,0.0,0.0,0.0,0.0,0.0,0.0,0.0,0.0,0.0,0.0,0.0,0.0,-1.8404,-1.9223,-1.9606,-1.9602,-1.9602,-1.9493,-1.9308,0.0,0.0,0.0,0.0,0.0,0.0,0.0,0.0,0.0,0.0,0.0,0.0,0.0,0.0,0.0,0.0,0.0,0.0,0.0,-2.4818,-2.6016,-2.8433,-2.9813,-3.1095,-3.3557,-3.4321,-3.4847,-3.6648,-3.5822,-3.4495,-3.4335,-3.1712,-2.9487,-3.0073,-2.8879,-2.7976,-2.8828,-2.9171,-3.0209,-3.2934,-3.4282,-3.6179,-3.9792,-4.1816,-4.3251,-4.411,-4.6529,-4.8471,-4.9336,-5.2431,-5.4797,-5.5748,-5.7387,0.0,-5.8412,-6.0133,-6.1155,-6.1297,-6.1297,-6.1345,-6.1419,-6.1337,-6.2176,-6.3883,-6.3922,-6.4799,-6.6376,-6.634,-6.5838,-6.5063,-6.5857,-6.4734,0.0,-6.518,-6.5277,-6.3884,-6.5681,-6.6916,-6.7803,-6.8657,-6.9545,-7.0393,0.0,0.0,0.0,0.0,0.0,0.0,0.0,0.0,0.0,0.0,0.0,0.0,0.0,0.0,0.0,0.0,0.0,0.0,0.0,0.0,0.0,0.0,0.0,0.0,0.0,0.0,0.0,0.0,0.0,-1.8994,-1.7839,-1.8933,-1.9081,-1.8416,-1.8963,-1.9101,0.0,0.0,0.0,0.0,0.0,0.0,-1.9433,0.0,0.0,0.0,0.0,0.0,0.0,0.0,0.0,0.0,0.0,0.0,0.0,-2.5761,-2.7457,-2.8889,-2.9628,-3.0346,-3.0974,-3.1619,-3.1358,-3.0793,-3.0145,-2.9153,-2.8402,-2.8574,-2.8176,-2.8066,-2.9045,-2.9789,-3.0947,-3.3107,-3.4774,-3.6844,-3.9833,-4.1743,-4.3369,-4.4863,-4.8414,-5.1299,-5.2762,-5.5478,-5.704,-5.6772,-5.8855,-6.0169,-6.0249,-6.079,-6.1155,-6.1247,-6.1281,-6.133,-6.1337,-6.1352,-6.226,-6.3969,-6.3969,-6.4831,-6.6389,-6.6373,-6.6239,-6.5971,-6.6224,-6.5161,0.0,-6.5508,-6.5333,-6.3902,-6.5696,-6.695,-6.7891,-6.8746,-6.9616,-7.0479,0.0,0.0,0.0,0.0,0.0,0.0,0.0,0.0,0.0,0.0,0.0,0.0,0.0,0.0,0.0,0.0,0.0,0.0,0.0,0.0,0.0,0.0,0.0,0.0,0.0,0.0,0.0,0.0,0.0,0.0,0.0,0.0,-1.9057,-1.8479,-1.8952,-1.9104,0.0,0.0,0.0,0.0,0.0,0.0,-1.9366,0.0,0.0,0.0,0.0,0.0,0.0,0.0,0.0,0.0,0.0,0.0,0.0,0.0,-2.4567,-2.5788,-2.7266,-2.8103,-2.8655,-2.903,-2.8883,-2.8513,-2.7948,-2.7395,-2.7159,-2.7785,-2.7659,-2.7869,-2.9122,-3.0146,-3.1317,-3.2769,-3.4585,-3.6595,-3.8899,-4.1303,-4.3981,-4.7126,-4.926,-5.1549,-5.4323,-5.5981,-5.7138,-5.7699,-5.9476,-6.0713,-6.1137,-6.1155,-6.1191,-6.1247,-6.1208,-6.1242,-6.1283,-6.1337,-6.223,-6.3969,-6.3983,-6.4862,-6.6406,-6.6406,-6.6234,-6.5946,-6.6278,0.0,0.0,-6.5523,-6.5347,-6.3934,-6.5746,-6.6998,-6.786,-6.8389,-6.9376,-7.0494,0.0,0.0,0.0,0.0,0.0,0.0,0.0,0.0,0.0,0.0,0.0,0.0,0.0,0.0,0.0,0.0,0.0,0.0,0.0,0.0,0.0,0.0,0.0,0.0,0.0,0.0,0.0,-1.582,-1.7546,-1.8259,-1.8066,0.0,0.0,-1.9146,-1.9101,-1.907,0.0,0.0,0.0,0.0,0.0,0.0,0.0,0.0,0.0,0.0,0.0,0.0,0.0,0.0,0.0,0.0,0.0,0.0,0.0,0.0,0.0,0.0,0.0,-2.7102,-2.7341,-2.8202,-2.7861,-2.7314,-2.7328,-2.6286,0.0,-2.7395,-2.7301,-2.7381,-2.9001,-3.0264,-3.1328,-3.2053,-3.3843,-3.5713,-3.7546,-4.0843,-4.4991,-5.019,-4.9163,-4.9797,-5.416,-5.4651,-5.5748,-5.8333,-5.9377,-6.0285,-6.1152,-6.1281,-6.1297,-6.1297,-6.1173,-6.1152,-6.1322,-6.1291,-6.2144,-6.3806,-6.393,-6.4823,-6.6329,-6.6367,-6.5979,0.0,-6.6023,0.0,0.0,-6.5303,-6.5413,-6.4148,-6.5833,-6.7005,-6.7695,-6.7772,-6.8861,-7.03,0.0,0.0,0.0,0.0,0.0,0.0,0.0,0.0,0.0,0.0,0.0,0.0,0.0,0.0,0.0,0.0,0.0,0.0,0.0,0.0,0.0,0.0,0.0,0.0,0.0,0.0,0.0,-1.5892,-1.8084,-1.8527,-1.7361,-1.8662,0.0,0.0,0.0,0.0,0.0,0.0,0.0,0.0,0.0,0.0,0.0,0.0,0.0,0.0,-1.9607,-1.9591,0.0,0.0,0.0,0.0,0.0,0.0,0.0,0.0,-2.1188,-2.1098,-2.318,0.0,-2.3862,-2.4671,-2.4787,-2.4722,0.0,-2.4543,-2.4661,-2.5829,-2.6484,-2.7138,-2.8294,-2.9907,-3.1334,-3.1992,-3.3715,-3.6045,-3.9147,-4.2622,-4.6033,-4.9279,-4.9856,-5.0702,-5.2545,-5.5689,-5.7637,-5.7688,-5.9663,-6.0997,-6.1242,-6.1297,-6.1297,-6.1297,-6.1281,-6.1259,-6.1283,-6.1337,-6.1934,-6.2998,-6.3673,-6.4527,-6.5522,-6.6182,-6.6392,-6.6227,-6.5716,0.0,-6.4629,-6.525,-6.525,-6.4993,-6.6081,-6.6669,-6.6958,-6.7553,-6.8486,-6.9564,0.0,0.0,0.0,0.0,0.0,0.0,0.0,0.0,0.0,0.0,0.0,0.0,0.0,0.0,0.0,0.0,0.0,0.0,0.0,0.0,0.0,0.0,0.0,0.0,0.0,0.0,0.0,0.0,0.0,-1.7992,0.0,0.0,0.0,0.0,0.0,0.0,0.0,0.0,0.0,0.0,-1.939,0.0,0.0,0.0,0.0,0.0,-1.9198,-1.9219,0.0,-2.1096,-2.1697,-2.1806,0.0,0.0,0.0,0.0,-2.0237,-2.0237,-2.1734,-2.2347,-2.2757,-2.353,-2.3789,-2.3852,-2.3935,-2.4036,-2.4354,-2.5316,-2.6246,-2.7177,-2.8091,-3.0185,-3.2024,-3.2675,-3.5058,-3.8323,-4.2621,-4.4881,-4.7222,-5.024,-5.0991,-5.1779,0.0,-5.5763,-5.7533,-5.8002,-5.9708,-6.0887,-6.1306,-6.1361,-6.1361,-6.1361,-6.1337,-6.1337,-6.1283,-6.1322,-6.1997,-6.3254,-6.372,-6.4575,-6.5778,-6.629,-6.6592,-6.6567,-6.5644,0.0,-6.5828,-6.5411,-6.5503,-6.5906,-6.6373,-6.6594,-6.6659,-6.7126,-6.7866,-6.8722,0.0,0.0,0.0,0.0,0.0,0.0,0.0,0.0,0.0,0.0,0.0,0.0,0.0,0.0,0.0,0.0,0.0,0.0,0.0,0.0,0.0,0.0,0.0,0.0,0.0,0.0,0.0,0.0,0.0,0.0,0.0,0.0,-1.9282,0.0,0.0,0.0,0.0,0.0,0.0,-1.9115,-1.9176,0.0,0.0,0.0,0.0,0.0,0.0,0.0,0.0,-2.095,-2.157,-2.166,-2.1551,0.0,0.0,0.0,0.0,0.0,-2.1204,-2.2062,-2.2712,-2.3806,-2.4121,-2.4218,-2.4424,-2.4522,-2.482,-2.556,-2.6488,-2.7475,-2.8334,-3.0949,-3.3179,-3.3693,-3.7101,-4.1349,-4.6088,-4.7083,-4.8386,-5.1334,-5.199,0.0,-5.4636,-5.5642,-5.6969,-5.8877,-5.9668,-6.0498,-6.1342,-6.1419,-6.1419,-6.1419,-6.1408,-6.1356,-6.1298,-6.1306,-6.2121,-6.3728,-6.386,-6.4714,-6.6228,-6.65,-6.662,-6.6581,0.0,0.0,-6.6555,-6.5661,-6.5816,-6.6594,-6.6581,-6.6633,-6.6606,-6.6669,-6.7202,-6.8034,0.0,0.0,0.0,0.0,0.0,0.0,0.0,0.0,0.0,0.0,0.0,0.0,0.0,0.0,0.0,0.0,0.0,0.0,0.0,0.0,0.0,0.0,0.0,0.0,0.0,0.0,0.0,0.0,0.0,0.0,-1.83,-1.8985,-1.9292,0.0,0.0,0.0,-1.925,-1.8632,-1.836,-1.8287,-1.8317,0.0,0.0,0.0,0.0,0.0,0.0,0.0,0.0,-2.0226,-2.1061,-2.1587,-2.0841,0.0,0.0,0.0,0.0,0.0,-2.1323,-2.1804,-2.2373,-2.4672,-2.5282,-2.5522,-2.6265,-2.6506,-2.6599,-2.6693,-2.7438,-2.839,-2.9251,-3.2345,-3.4737,-3.4642,-3.8955,-4.3328,-4.6244,-4.8066,-4.929,-4.9758,0.0,-5.3607,-5.47,-5.6325,-5.8051,-5.9774,-6.0021,-6.0487,-6.1342,-6.1419,-6.1419,-6.1419,-6.1381,-6.1394,-6.1383,-6.1369,-6.19,-6.2881,-6.3623,-6.4492,-6.5503,-6.6244,-6.6633,-6.6618,0.0,-6.5816,-6.6618,-6.5699,-6.5855,-6.6657,-6.6633,-6.6618,-6.6691,-6.6719,-6.7214,-6.8137,0.0,0.0,0.0,0.0,0.0,0.0,0.0,0.0,0.0,0.0,0.0,0.0,0.0,0.0,0.0,0.0,0.0,0.0,0.0,0.0,0.0,0.0,0.0,0.0,0.0,0.0,0.0,0.0,0.0,-1.7969,-1.8859,-1.9228,-1.9398,-1.9383,0.0,0.0,-1.8043,-1.7661,-1.7729,-1.8111,0.0,0.0,0.0,0.0,0.0,0.0,0.0,0.0,0.0,0.0,-2.0642,-2.0931,-2.0551,0.0,0.0,0.0,0.0,0.0,-2.1872,-2.2164,-2.2601,-2.5649,-2.641,-2.6667,-2.7657,-2.8644,-2.9288,-2.9259,-3.033,-3.1383,-3.1779,-3.4039,-3.6752,-3.9541,-4.3327,-4.6654,-4.8745,-4.9792,-5.0519,0.0,0.0,-5.456,-5.5467,-5.6781,-5.8259,-5.9982,-6.0099,-6.0487,-6.1342,-6.1394,-6.1394,-6.1419,-6.146,-6.1434,-6.1396,-6.1447,-6.1875,-6.273,-6.3546,-6.4415,-6.5323,-6.6231,-6.6657,-6.663,0.0,-6.5878,-6.663,-6.5723,-6.5878,-6.6708,-6.6669,-6.6691,-6.6712,-6.6702,-6.7509,-6.8756,0.0,0.0,0.0,0.0,0.0,0.0,0.0,0.0,0.0,0.0,0.0,0.0,0.0,0.0,0.0,0.0,0.0,0.0,0.0,0.0,0.0,0.0,0.0,0.0,0.0,0.0,-1.5711,-1.684,-1.7087,-1.7906,-1.9292,-1.9199,-1.9183,0.0,0.0,0.0,-1.6975,-1.6728,-1.7078,-1.7804,0.0,0.0,0.0,0.0,0.0,0.0,0.0,0.0,0.0,0.0,0.0,0.0,0.0,0.0,0.0,-2.0746,-2.0356,-2.0347,-2.2496,-2.2856,-2.3337,-2.6226,-2.6881,-2.7307,-2.889,-3.0342,-3.1401,-3.1721,-3.3026,-3.4235,-3.4665,-3.6332,-3.9342,-4.4538,-4.6922,-4.8811,-5.0815,-5.1449,-5.1928,-5.2545,-5.4163,-5.555,-5.6456,-5.6936,-5.8012,-5.9943,-5.9904,-6.0254,-6.1342,-6.1408,-6.1421,-6.1419,-6.1486,-6.1472,-6.1408,-6.146,-6.1888,-6.2731,-6.356,-6.4428,-6.535,-6.6268,-6.668,-6.6641,-6.5979,-6.6096,-6.6641,-6.5979,-6.6096,-6.668,-6.6702,-6.6712,-6.6712,-6.6712,-6.7686,-6.9011,0.0,0.0,0.0,0.0,0.0,0.0,0.0,0.0,0.0,0.0,0.0,0.0,0.0,0.0,0.0,0.0,0.0,0.0,0.0,0.0,0.0,0.0,0.0,0.0,0.0,-1.6373,-1.689,-1.7012,-1.7679,-1.8426,-1.9182,-1.8535,-1.8199,-1.8163,0.0,-1.7022,-1.6858,-1.6152,-1.6274,-1.6899,-1.6963,0.0,0.0,0.0,0.0,0.0,0.0,0.0,0.0,0.0,0.0,0.0,0.0,0.0,-2.1725,-2.1688,-2.1721,-2.1918,-2.293,-2.3822,-2.4798,-2.5899,-2.6178,-2.7009,-3.0196,-3.1156,-3.1783,-3.3232,-3.431,-3.5518,-3.7217,-3.9555,-4.2744,-4.7428,-4.755,-4.7951,-5.0642,0.0,-5.3507,-5.3519,-5.5087,-5.6563,-5.7418,-5.6835,-5.7418,-5.9904,-5.936,-5.9632,-6.1303,-6.1408,-6.1421,-6.1419,-6.1486,-6.1484,-6.1484,-6.1447,-6.1875,-6.2807,-6.3648,-6.4555,-6.5411,-6.6301,-6.6712,-6.6712,-6.6634,-6.6634,-6.6712,-6.6634,-6.6634,-6.6712,-6.6712,-6.6712,-6.6712,-6.6712,-6.7296,-6.8193,0.0,0.0,0.0,0.0,0.0,0.0,0.0,0.0,0.0,0.0,0.0,0.0,0.0,0.0,0.0,0.0,0.0,0.0,0.0,0.0,0.0,0.0,0.0,-1.4999,-1.4741,-1.5134,-1.5804,-1.674,-1.8079,-1.915,-1.9931,-1.8697,0.0,0.0,0.0,-1.6276,-1.6263,-1.5907,-1.6445,-1.7613,-1.7585,-1.8067,0.0,0.0,0.0,0.0,0.0,0.0,0.0,0.0,-1.9348,-1.9705,-1.9758,-2.0335,-2.1136,-2.1651,-2.1832,-2.2177,-2.358,-2.4236,-2.4912,-2.6293,-2.7188,-2.8343,-3.0784,-3.3087,-3.5028,-3.6151,-3.754,-3.8945,-4.01,-4.2932,-4.5725,-4.7391,-4.8748,-4.9937,-5.0985,-5.2602,-5.3702,-5.3663,-5.523,-5.6641,-5.7496,-5.6796,-5.7146,-5.9127,-5.9037,-5.94,-6.0592,-6.1175,-6.1447,-6.1421,-6.1396,-6.146,-6.146,-6.146,-6.1639,-6.1985,-6.2869,-6.3737,-6.4626,-6.5494,-6.6205,-6.6712,-6.6712,-6.6712,-6.6712,-6.6712,-6.6712,-6.6712,-6.6712,-6.6712,-6.6712,-6.6693,-6.7238,-6.8067,0.0,0.0,0.0,0.0,0.0,0.0,0.0,0.0,0.0,0.0,0.0,0.0,0.0,0.0,0.0,0.0,0.0,0.0,0.0,0.0,0.0,0.0,0.0,-1.4823,-1.4216,-1.4219,-1.5027,-1.6637,-1.829,-1.9299,-1.9603,0.0,0.0,0.0,-1.6288,-1.582,-1.5845,-1.603,-1.6875,-1.8096,-1.8053,-1.8535,0.0,0.0,0.0,0.0,0.0,0.0,0.0,0.0,-1.9198,-1.9408,-1.9916,-2.0515,-2.1168,-2.198,-2.2687,-2.3305,-2.3905,-2.4762,-2.5769,-2.6885,-2.838,-2.9961,-3.1527,-3.4197,-3.6716,-3.8103,-4.0036,-4.1828,-4.2908,-4.5351,-4.7416,-4.7946,-4.955,-5.0817,-5.1163,-5.264,-5.3689,-5.3689,-5.5242,-5.6524,-5.7107,-5.6641,-5.6874,-5.8325,-5.87,-5.9257,-6.0151,-6.1032,-6.146,-6.1421,-6.1408,-6.1421,-6.1408,-6.1484,-6.1518,-6.1539,-6.2102,-6.2852,-6.375,-6.488,-6.5738,-6.6283,-6.6595,-6.6712,-6.6712,-6.6712,-6.6712,-6.6712,-6.6712,-6.6712,-6.6712,-6.6702,-6.7062,-6.7647,0.0,0.0,0.0,0.0,0.0,0.0,0.0,0.0,0.0,0.0,0.0,0.0,0.0,0.0,0.0,0.0,0.0,0.0,0.0,0.0,0.0,0.0,0.0,-1.4123,-1.4216,-1.4136,-1.4966,-1.6675,-1.837,-1.8781,-1.7979,-1.7247,0.0,0.0,-1.5747,-1.5784,-1.576,-1.6645,-1.743,-1.8133,-1.819,-1.8654,-1.9323,0.0,0.0,0.0,0.0,0.0,0.0,0.0,-1.9282,-1.9591,-2.1267,-2.1849,-2.2066,-2.2913,-2.4522,-2.5589,-2.3866,-2.5442,-2.7586,-2.7546,-2.9508,-3.168,-3.2546,-3.4183,-3.6254,-3.8729,-4.1415,-4.3853,-4.5557,-4.6565,-4.7714,-4.9598,-4.9808,-5.0054,-5.1074,-5.264,-5.3689,-5.3689,-5.5242,-5.6291,-5.6291,-5.6291,-5.6654,-5.7495,-5.8402,-5.9257,-6.0151,-6.0993,-6.1447,-6.1419,-6.1445,-6.1518,-6.1484,-6.1518,-6.1549,-6.1607,-6.1549,-6.1977,-6.2971,-6.4647,-6.5387,-6.5465,-6.6322,-6.6712,-6.6712,-6.6712,-6.6712,-6.6712,-6.6712,-6.6712,-6.6712,-6.6702,-6.6711,-6.6837,0.0,0.0,0.0,0.0,0.0,0.0,0.0,0.0,0.0,0.0,0.0,0.0,0.0,0.0,0.0,0.0,0.0,0.0,0.0,0.0,0.0,0.0,0.0,0.0,0.0,0.0,-1.5232,-1.5699,-1.6863,-1.7321,0.0,0.0,0.0,-1.5772,0.0,-1.6115,-1.6744,-1.7507,-1.8292,-1.9007,-1.9022,-1.9169,-1.9323,0.0,0.0,0.0,0.0,0.0,0.0,0.0,0.0,0.0,-2.0025,-2.1087,-2.1995,-2.1559,-2.2802,-2.4299,-2.4322,-2.5901,-2.7826,-2.9039,-3.1366,-3.3722,-3.5062,-3.6815,-3.8929,-4.1531,-4.3221,-4.4537,-4.5674,-4.7081,-4.8477,-4.9676,-5.0363,-5.0855,-5.1163,-5.264,-5.3689,-5.3689,-5.5242,-5.6304,-5.629,-5.629,-5.6419,-5.6725,-5.7503,-5.8359,-5.9254,-6.0098,-6.0864,-6.1447,-6.1421,-6.1433,-6.1484,-6.1518,-6.15,-6.1539,-6.1549,-6.2026,-6.2932,-6.3984,-6.4803,-6.5465,-6.6322,-6.6712,-6.6712,-6.6693,-6.6702,-6.6702,-6.6702,-6.6702,-6.6702,-6.6767,-6.6775,-6.6822,0.0,0.0,0.0,0.0,0.0,0.0,0.0,0.0,0.0,0.0,-1.4393,-1.4393,0.0,0.0,0.0,0.0,0.0,0.0,0.0,0.0,0.0,0.0,0.0,0.0,0.0,-1.4958,-1.5274,0.0,0.0,0.0,0.0,0.0,-1.6042,-1.5833,0.0,-1.7423,-1.7633,-1.8781,-1.9308,-1.945,-1.9435,-1.942,-1.9405,0.0,0.0,0.0,0.0,0.0,0.0,0.0,0.0,0.0,-1.9849,-2.073,-2.1563,-2.1324,-2.2867,-2.4777,-2.5208,-2.6721,-2.8645,-3.0727,-3.275,-3.5111,-3.8479,-3.983,-4.0886,-4.2873,-4.4266,-4.5493,-4.6732,-4.8114,-4.9341,-5.027,-5.0853,-5.1319,-5.163,-5.2834,-5.3844,-5.4194,-5.5449,-5.6278,-5.6302,-5.6302,-5.6314,-5.6386,-5.7164,-5.7982,-5.8838,-5.976,-6.0616,-6.1484,-6.1484,-6.1445,-6.1507,-6.1528,-6.1549,-6.1549,-6.1559,-6.188,-6.2426,-6.3595,-6.4374,-6.4958,-6.6166,-6.6712,-6.6712,-6.6693,-6.6702,-6.6711,-6.6711,-6.672,-6.6728,-6.6791,-6.6798,-6.6798,0.0,0.0,0.0,0.0,0.0,0.0,0.0,0.0,0.0,0.0,-1.4405,-1.438,0.0,0.0,0.0,0.0,0.0,0.0,0.0,0.0,0.0,0.0,0.0,0.0,0.0,0.0,0.0,0.0,0.0,0.0,0.0,0.0,-1.652,-1.614,0.0,-1.9095,-1.8512,-2.0024,-2.0233,-1.9485,-1.9493,-1.9516,-1.9516,-1.9522,0.0,0.0,0.0,0.0,0.0,0.0,0.0,0.0,-2.0374,-2.0663,-2.0879,-2.163,-2.3785,-2.5996,-2.6046,-2.7543,-2.9704,-3.2276,-3.382,-3.6211,-4.1768,-4.2576,-4.2419,-4.3453,-4.4924,-4.6589,-4.8394,-4.9376,-5.0192,-5.1047,-5.1202,-5.1474,-5.229,-5.3079,-5.3934,-5.4905,-5.5707,-5.6236,-5.6314,-5.6314,-5.6325,-5.6386,-5.7086,-5.7904,-5.8838,-5.9638,-6.0495,-6.1484,-6.144,-6.1373,-6.1383,-6.152,-6.1568,-6.149,-6.1568,-6.1607,-6.1646,-6.3244,-6.4062,-6.4296,-6.5972,-6.6712,-6.6712,-6.6712,-6.6693,-6.6711,-6.6711,-6.6728,-6.6783,-6.6805,-6.6811,-6.6817,0.0,0.0,0.0,0.0,0.0,0.0,0.0,0.0,0.0,0.0,0.0,0.0,0.0,0.0,0.0,0.0,0.0,0.0,0.0,0.0,0.0,0.0,0.0,0.0,0.0,0.0,0.0,0.0,0.0,0.0,0.0,0.0,0.0,-1.787,0.0,-1.8872,-1.9335,-1.9704,-1.9722,-1.9479,-1.9508,-1.9493,-1.9516,-1.9573,-1.9559,0.0,0.0,0.0,0.0,0.0,0.0,0.0,-1.9707,-2.0331,-2.0889,-2.0166,-2.1618,-2.3519,-2.4117,-2.6672,-2.9651,-3.1622,-3.5271,-3.8706,-3.9971,-4.2215,-4.446,-4.6108,-4.6717,-4.7481,-4.9287,-4.973,-5.0105,-5.1035,-5.1202,-5.1486,-5.2364,-5.2636,-5.3347,-5.4886,-5.5247,-5.5647,-5.629,-5.6397,-5.6397,-5.6378,-5.6552,-5.732,-5.8838,-5.8448,-5.9199,-6.144,-6.0905,-6.0565,-6.0546,-6.1257,-6.1257,0.0,-6.1257,-6.1607,-6.1646,-6.2698,-6.3867,-6.5192,-6.6244,-6.6683,-6.6702,-6.6702,-6.672,-6.6775,-6.672,-6.6728,-6.6783,-6.6791,-6.6798,-6.6817,0.0,0.0,0.0,0.0,0.0,0.0,0.0,0.0,0.0,0.0,0.0,0.0,0.0,0.0,0.0,0.0,0.0,0.0,0.0,0.0,0.0,0.0,0.0,0.0,0.0,0.0,0.0,0.0,0.0,0.0,-1.566,-1.6114,-1.7052,-1.8429,-1.921,-1.9582,-1.9647,-2.0001,-1.9921,-1.9559,-1.9522,-1.9522,-1.9559,-1.9578,-1.9564,-1.9559,-1.9564,0.0,0.0,0.0,0.0,0.0,0.0,0.0,-2.0372,-2.0604,-2.1816,-2.3448,-2.5069,-2.7581,-3.05,-3.3596,-3.6919,-3.9724,-4.0548,-4.2431,-4.4509,-4.6313,-4.7323,-4.8293,-4.9648,-5.0207,-5.0635,-5.1097,-5.1186,-5.1497,-5.2375,-5.2502,-5.2969,-5.4291,-5.4479,-5.4811,-5.5667,-5.5784,-5.595,-5.6349,-5.6417,-5.6952,-5.8276,-5.7897,-5.8452,-6.0263,-6.0302,-6.0312,-6.0282,-6.1179,-6.1373,-6.0945,-6.1373,-6.1607,-6.1646,-6.2503,-6.3595,-6.4842,-6.5699,-6.6098,-6.6165,-6.6537,-6.672,-6.6798,-6.6775,-6.6783,-6.6811,-6.6811,-6.6817,-6.6784,0.0,0.0,0.0,0.0,0.0,0.0,0.0,0.0,0.0,0.0,0.0,0.0,0.0,0.0,0.0,0.0,0.0,0.0,0.0,0.0,0.0,0.0,0.0,0.0,0.0,0.0,0.0,0.0,0.0,-1.4953,-1.5993,-1.6829,-1.7807,-1.8914,-2.0471,-2.0644,-1.9897,-2.0579,-2.0364,-1.9606,-1.9578,-1.9578,-1.9629,-1.9633,-1.962,-1.9629,-1.9633,-1.962,-1.9578,-1.9592,0.0,0.0,0.0,0.0,-2.0024,-2.1459,-2.2694,-2.4055,-2.6237,-2.8579,-3.1493,-3.5892,-3.8296,-3.9951,-4.1595,-4.2848,-4.409,-4.5692,-4.7384,-4.8882,-4.9726,-5.0592,-5.1186,-5.1208,-5.1219,-5.1491,-5.2386,-5.2407,-5.264,-5.3608,-5.3779,-5.4159,-5.5045,-5.5249,-5.5609,-5.6349,-5.6388,-5.6777,-5.7634,-5.7585,-5.8022,-5.9191,-5.9776,-6.0165,-6.0282,-6.1179,-6.1529,-6.1373,-6.1529,-6.1607,-6.1607,-6.2348,-6.3127,-6.3945,-6.4958,-6.5445,-6.555,-6.6381,-6.672,-6.6811,-6.6791,-6.6805,-6.6795,-6.6795,-6.6795,-6.6795,0.0,0.0,0.0,0.0,0.0,0.0,0.0,0.0,0.0,0.0,-1.438,-1.438,0.0,0.0,0.0,0.0,0.0,0.0,0.0,0.0,0.0,0.0,0.0,0.0,0.0,0.0,0.0,0.0,-1.4488,-1.5353,-1.7011,-1.7782,-1.905,-2.0766,-2.1639,-2.1591,-2.0916,-2.0966,-2.0463,-1.9688,-1.9738,-1.9725,-1.9686,-1.9675,-1.9675,-1.9686,-1.9688,-1.9649,-1.9596,-1.9662,-1.966,0.0,0.0,0.0,-2.0742,-2.1003,-2.2253,-2.3685,-2.4093,-2.729,-3.1545,-3.5989,-3.8373,-3.9906,-4.084,-4.2928,-4.49,-4.5872,-4.7427,-4.8865,-4.9737,-5.0625,-5.119,-5.1219,-5.119,-5.1522,-5.2446,-5.194,-5.2065,-5.368,-5.3883,-5.4234,-5.5091,-5.5813,-5.6271,-5.6388,-5.6388,-5.6777,-5.7634,-5.7039,-5.7711,-6.0049,-5.9503,-5.9542,-6.0282,-6.1179,-6.1218,-6.0477,-6.1257,-6.1607,-6.1607,-6.1724,-6.2231,-6.3166,-6.4725,-6.5455,-6.5566,-6.636,-6.6736,-6.6811,-6.6791,-6.6798,-6.6817,-6.6817,-6.6784,-6.6795,0.0,0.0,0.0,0.0,0.0,0.0,0.0,0.0,0.0,0.0,0.0,-1.4417,0.0,0.0,0.0,0.0,0.0,0.0,0.0,0.0,0.0,0.0,0.0,0.0,0.0,0.0,0.0,0.0,-1.4533,-1.5447,-1.7232,-1.8541,-1.9838,-2.1117,-2.1907,-2.1832,-2.1117,-2.1595,-2.0991,-1.9814,-2.0339,-2.0239,-1.9751,-1.9788,-1.98,-1.9938,-2.0925,-2.0625,-1.99,-2.0939,-2.0577,-1.98,-2.0301,0.0,0.0,0.0,-2.2989,-2.4093,-2.6098,-2.8526,-3.1272,-3.468,-3.6823,-3.8481,-3.9849,-4.182,-4.3714,-4.5104,-4.6726,-4.8331,-4.9702,-5.0257,-5.0705,-5.1181,-5.1269,-5.1394,-5.1793,-5.1529,-5.1576,-5.2299,-5.2433,-5.2948,-5.4303,-5.4771,-5.5394,-5.6377,-5.6455,-5.6611,-5.7,-5.6697,-5.7009,-5.8082,-5.8676,-5.9182,-5.9562,-6.0935,-6.1412,-6.1023,-6.1412,-6.1607,-6.1607,-6.1607,-6.1802,-6.227,-6.3964,-6.4731,-6.4872,-6.6229,-6.6752,-6.6784,-6.6805,-6.6811,-6.6784,-6.6784,-6.679,-6.6795,0.0,0.0,0.0,0.0,0.0,0.0,0.0,0.0,0.0,0.0,0.0,0.0,0.0,0.0,0.0,0.0,0.0,0.0,0.0,0.0,0.0,0.0,0.0,0.0,0.0,0.0,0.0,-1.4533,-1.4578,-1.5492,-1.7255,-1.8775,-2.0188,-2.1482,-2.2501,-2.2425,-2.1494,-2.2401,-2.1872,-2.0552,-2.1528,-2.1315,-2.0527,-2.1047,-2.0971,-2.0785,-2.255,-2.2223,-2.1096,-2.2391,-2.1916,-2.0878,-2.1305,-2.1557,0.0,0.0,0.0,-2.474,-2.7828,-2.9356,-3.0678,-3.3341,-3.5328,-3.7161,-3.9141,-4.0966,-4.2704,-4.4452,-4.6052,-4.7548,-4.9089,-4.9711,-5.0217,-5.0858,-5.1178,-5.1295,-5.1295,-5.1312,-5.1265,-5.123,-5.1451,-5.213,-5.336,-5.3961,-5.4788,-5.6074,-5.6386,-5.6503,-5.6503,-5.6503,-5.6572,-5.6709,-5.7974,-5.8792,-5.9007,-6.0507,-6.1373,-6.1607,-6.1607,-6.1607,-6.1607,-6.1607,-6.1607,-6.1685,-6.3193,-6.3998,-6.4326,-6.5854,-6.661,-6.679,-6.6817,-6.6817,-6.6784,-6.6784,-6.6784,-6.6784,0.0,0.0,0.0,0.0,0.0,0.0,0.0,0.0,0.0,0.0,0.0,0.0,0.0,0.0,0.0,-1.4489,-1.4429,-1.4393,-1.438,-1.438,-1.4392,-1.4405,-1.4453,0.0,-1.4485,-1.4485,-1.4519,-1.4585,-1.46,-1.5503,-1.7299,-1.8234,-1.9962,-2.2412,-2.4106,-2.3929,-2.2388,-2.3396,-2.322,-2.2363,-2.3411,-2.3225,-2.2464,-2.4247,-2.3881,-2.26,-2.4464,-2.4481,-2.3622,-2.3717,-2.3633,-2.336,-2.2577,-2.2906,-2.3587,0.0,0.0,0.0,-2.7266,-2.8434,-2.982,-3.2501,-3.4536,-3.65,-3.9024,-4.1012,-4.2805,-4.4542,-4.5601,-4.6544,-4.7455,-4.8943,-5.0026,-5.0049,-5.0758,-5.132,-5.132,-5.132,-5.132,-5.132,-5.2021,-5.2567,-5.2645,-5.4164,-5.5178,-5.5256,-5.6035,-5.6503,-5.6503,-5.6503,-5.6853,-5.7594,-5.7711,-5.8139,-5.8996,-5.9893,-6.0789,-6.1607,-6.1607,-6.1607,-6.1607,-6.1607,-6.1607,-6.1646,-6.257,-6.3444,-6.4255,-6.5205,-6.607,-6.6811,-6.6811,-6.6805,-6.6783,-6.6783,-6.6783,-6.6791,0.0,0.0,0.0,0.0,0.0,0.0,0.0,0.0,0.0,0.0,0.0,0.0,0.0,-1.4511,-1.4511,-1.4488,-1.4453,-1.4368,-1.4355,-1.4367,-1.4392,-1.4405,-1.4429,-1.4451,-1.4485,-1.4556,-1.4589,-1.4595,-1.4585,-1.5492,-1.7258,-1.8139,-1.9601,-2.1567,-2.3411,-2.3841,-2.3297,-2.4305,-2.3885,-2.2612,-2.3607,-2.4066,-2.4129,-2.4345,-2.4356,-2.4471,-2.5755,-2.5601,-2.4812,-2.4831,-2.5534,-2.612,-2.4077,-2.44,-2.5455,-2.4824,-2.4912,-2.5405,-2.6588,-2.7593,-2.8626,-3.0121,-3.2254,-3.4543,-3.657,-3.885,-4.1207,-4.3536,-4.4681,-4.5585,-4.645,-4.7556,-4.8694,-4.9831,-5.0252,-5.0641,-5.1203,-5.132,-5.132,-5.132,-5.1593,-5.1982,-5.2567,-5.3151,-5.3775,-5.432,-5.5178,-5.5684,-5.5684,-5.6191,-5.6619,-5.6874,-5.739,-5.81,-5.8996,-5.9854,-6.0477,-6.075,-6.1334,-6.1607,-6.1607,-6.1607,-6.1616,-6.1625,-6.1946,-6.2547,-6.3491,-6.4925,-6.5673,-6.6017,-6.6571,-6.6811,-6.6805,-6.6817,-6.6817,-6.6778,0.0,0.0,0.0,0.0,0.0,0.0,0.0,0.0,0.0,0.0,0.0,0.0,0.0,0.0,-1.4984,-1.495,-1.4926,-1.4733,-1.4393,-1.4672,-1.4745,-1.4429,-1.4476,-1.4497,-1.4519,-1.4611,-1.4643,-1.4643,-1.4902,-1.5789,-1.7198,-1.809,-1.9388,-2.1039,-2.2363,-2.3183,-2.374,-2.4762,-2.4457,-2.3522,-2.5116,-2.5855,-2.6067,-2.6792,-2.7054,-2.718,-2.8443,-2.8298,-2.7537,-2.758,-2.8324,-2.8878,-2.6477,-2.6128,-2.6397,-2.545,-2.522,-2.5346,-2.5921,-2.6929,-2.7938,-2.8464,-3.0621,-3.3064,-3.4765,-3.7006,-3.9403,-4.1712,-4.3363,-4.4548,-4.514,-4.6199,-4.7423,-4.8889,-4.9348,-4.9776,-5.0385,-5.0696,-5.0852,-5.0852,-5.1125,-5.1632,-5.2528,-5.2606,-5.2957,-5.3814,0.0,0.0,-5.5178,-5.5762,-5.6182,-5.6446,-5.7,-5.7711,-5.8568,-5.9152,-5.9737,-6.0321,-6.0906,-6.1334,-6.1607,-6.1607,-6.1616,-6.1595,-6.1595,-6.2071,-6.2984,-6.4138,-6.4964,-6.5574,-6.6135,-6.6532,-6.6805,-6.6817,-6.6778,-6.6784,0.0,0.0,0.0,0.0,0.0,0.0,0.0,0.0,0.0,0.0,0.0,0.0,0.0,0.0,0.0,-1.594,-1.588,-1.5475,-1.4604,-1.5341,-1.5403,-1.4536,-1.4648,-1.4654,-1.4595,-1.4658,-1.4705,-1.4712,0.0,0.0,0.0,-1.8102,-1.9363,-2.0966,-2.114,-2.2073,-2.3634,-2.4639,-2.5057,-2.5336,-2.8011,-2.861,-2.8234,-3.1777,-3.2019,-3.0721,-3.252,-3.2607,-3.1864,-3.1853,-3.1882,-3.1613,-2.9725,-2.7918,-2.6354,-2.551,-2.5241,-2.5241,0.0,0.0,0.0,-2.7857,-2.9809,-3.2199,-3.3837,-3.5581,-3.7375,-3.9207,-4.1586,-4.3423,-4.3575,-4.4967,-4.6328,-4.7189,-4.8093,-4.8686,-4.8787,-4.9488,-4.9956,-4.9956,-5.0735,-5.1593,-5.245,-5.2567,-5.2918,-5.3775,-5.3853,-5.4242,-5.51,-5.5178,-5.5606,-5.6464,-5.6503,-5.6853,-5.7672,-5.7672,-5.8529,-6.0204,-6.0282,-6.075,-6.1568,-6.1607,-6.1607,-6.1607,-6.1595,-6.2079,-6.2843,-6.2882,-6.3897,-6.5418,-6.5496,-6.6003,-6.6744,-6.6783,-6.6783,-6.6791,0.0,0.0,0.0,0.0,0.0,0.0,0.0,0.0,0.0,0.0,0.0,0.0,0.0,0.0,-1.6896,-1.6825,-1.6802,-1.6432,-1.557,-1.5755,-1.5462,-1.4545,-1.4622,-1.4701,-1.4654,-1.4674,-1.4695,-1.4705,0.0,0.0,0.0,0.0,0.0,-2.0164,-2.0816,-2.1721,-2.2804,-2.3814,-2.5271,-2.6962,-2.7171,-2.8978,-3.1499,-3.1321,-3.1748,-3.2397,-3.2318,-3.2908,-3.346,-3.1599,-3.305,-3.4999,-3.1322,-2.8559,-2.6612,-2.6362,-2.6285,-2.641,-2.6978,0.0,0.0,0.0,0.0,0.0,-3.2181,-3.328,-3.4969,-3.8035,-3.9733,-4.1267,-4.317,-4.4424,-4.524,-4.5472,-4.6774,-4.7999,-4.8647,-4.8974,-4.9138,-4.9138,-4.9878,-5.0463,-5.0696,-5.1281,-5.1749,0.0,-5.2606,-5.3073,-5.3307,-5.4515,-5.5606,-5.6464,-5.6503,-5.6619,-5.6814,-5.7399,-5.7944,-5.8412,-5.9698,-6.0438,-6.0672,-6.1295,-6.1616,-6.1595,-6.1586,-6.1751,-6.2002,-6.2625,-6.3171,-6.3756,-6.502,-6.5659,-6.5946,-6.6583,-6.6784,-6.6784,0.0,0.0,0.0,0.0,0.0,0.0,0.0,0.0,0.0,0.0,0.0,0.0,0.0,0.0,0.0,-1.7787,-1.7753,-1.7382,-1.6504,-1.6455,-1.6049,-1.5117,-1.5205,-1.5237,-1.5253,-1.5583,-1.5791,-1.5753,0.0,0.0,0.0,0.0,0.0,0.0,-2.0363,-2.128,-2.2489,-2.308,-2.4812,-2.7228,-2.7873,-2.9897,-3.254,-3.3035,-3.3655,-3.4274,-3.4137,-3.4727,-3.5357,-3.3843,-3.4978,-3.6414,-3.2809,-3.0634,-2.908,-2.767,-2.7516,-2.7825,-2.7923,-2.854,-2.9126,-2.9126,0.0,0.0,-3.1492,-3.2093,-3.3141,-3.5577,-3.708,-3.8507,-4.0431,-4.175,-4.2731,-4.3112,-4.4035,-4.5395,-4.7392,-4.8,-4.8241,-4.8241,-4.8982,-4.9761,-5.0463,-5.0657,-5.1047,-5.1787,-5.1982,-5.2216,-5.2567,-5.3931,-5.5061,-5.5918,-5.5957,-5.6113,-5.6503,-5.697,-5.736,-5.7711,-5.8724,-5.9581,-6.0321,-6.0828,-6.1266,-6.1586,-6.1586,-6.1586,-6.1642,-6.2157,-6.2547,-6.3023,-6.4411,-6.5205,-6.5652,-6.6483,-6.6795,-6.6795,0.0,0.0,0.0,0.0,0.0,0.0,0.0,0.0,0.0,0.0,0.0,0.0,0.0,0.0,0.0,0.0,-1.8697,-1.8275,-1.7405,-1.7345,0.0,-1.6063,-1.61,-1.6132,-1.6153,-1.6892,-1.7277,-1.7206,0.0,0.0,0.0,0.0,0.0,0.0,0.0,-2.0975,-2.2526,-2.26,-2.4091,-2.6653,-2.9214,-3.0942,-3.23,-3.5495,-3.6348,-3.59,-3.6664,-3.7061,-3.7256,-3.7372,-3.7238,-3.659,-3.4107,-3.3227,-3.2493,-2.924,-2.8836,-2.9282,-2.85,-2.882,-2.9332,-2.9371,-2.9967,0.0,-3.1411,-3.1657,-3.1954,-3.2833,-3.4245,-3.562,-3.6647,-3.8158,-3.9514,-4.0333,-4.0635,-4.1966,-4.5429,-4.6473,-4.7033,-4.7306,-4.8047,-4.9138,-5.0735,-5.0346,-5.0657,-5.2177,-5.1671,-5.1671,-5.2567,-5.3346,-5.4164,-5.5022,-5.5139,-5.5567,-5.6347,-5.6464,-5.6853,-5.7555,-5.7672,-5.849,-6.001,-6.0204,-6.0711,-6.1451,-6.1556,-6.1603,-6.1603,-6.1627,-6.207,-6.285,-6.38,-6.4716,-6.5546,-6.6483,-6.6795,-6.6795,0.0,0.0,0.0,0.0,0.0,0.0,0.0,0.0,0.0,0.0,0.0,0.0,0.0,0.0,0.0,0.0,-1.9632,-1.9258,-1.8399,-1.8335,0.0,-1.6985,-1.703,-1.7041,-1.703,-1.7191,-1.7277,-1.7266,0.0,0.0,0.0,0.0,0.0,0.0,0.0,-2.1552,-2.2635,-2.3343,-2.4755,-2.6726,-2.861,-3.0809,-3.3063,-3.4468,-3.5309,-3.581,-3.6004,-3.6945,-3.8266,-3.8965,-3.8236,-3.6728,-3.4847,-3.3798,-3.2834,-3.0777,-3.0296,-3.0366,-3.0131,-3.022,-3.0308,-3.024,-3.0897,0.0,-3.0865,-3.1279,-3.2023,-3.2898,-3.3302,-3.4008,-3.566,-3.6784,-3.7549,-3.7734,-3.8928,-4.083,-4.3617,-4.3631,-4.409,-4.6193,-4.6598,-4.7111,-4.8125,-4.9294,-5.0151,-5.0463,-5.1008,-5.1671,-5.2567,-5.2762,-5.3268,-5.4126,-5.4827,-5.5295,-5.545,-5.6152,-5.658,-5.6736,-5.7399,-5.7866,-5.8256,-5.9659,-6.0399,-6.0594,-6.1283,-6.1603,-6.1603,-6.1641,-6.1771,-6.2083,-6.3611,-6.4325,-6.4726,-6.6249,-6.6795,-6.6795,-1.3204,0.0,0.0,0.0,0.0,0.0,0.0,0.0,0.0,0.0,0.0,0.0,0.0,-2.032,-2.0418,0.0,0.0,0.0,0.0,0.0,-1.9325,-1.7949,-1.7922,-1.796,-1.7937,-1.8324,-1.8549,-1.8549,0.0,0.0,0.0,0.0,0.0,0.0,0.0,-2.2479,-2.4525,-2.4083,-2.5734,-2.8608,-2.9011,-3.052,-3.2732,-3.4438,-3.5668,-3.6518,-3.6945,-3.7955,-3.9159,-4.0071,-3.9488,-3.8089,-3.6347,-3.5531,-3.4707,-3.212,-3.1639,-3.174,-3.0909,-3.0643,-3.0703,-3.1099,-3.1497,0.0,0.0,-3.1496,-3.1514,-3.2821,-3.2017,-3.1785,-3.3984,-3.4399,-3.4505,-3.4972,-3.5805,-3.7114,-3.9287,-4.1146,-4.2953,-4.472,-4.4915,-4.5429,-4.6722,-4.7961,-4.9052,-4.9917,-5.0431,-5.086,-5.1281,-5.1764,-5.2395,-5.3229,-5.3666,-5.4329,-5.5178,-5.5645,-5.6074,-5.6503,-5.6892,-5.7321,-5.7711,-5.8607,-5.9473,-6.0339,-6.0793,-6.1237,-6.1634,-6.1699,-6.171,-6.1827,-6.3115,-6.3901,-6.4453,-6.5741,-6.6444,-6.6795,-1.3457,-1.4022,0.0,0.0,0.0,0.0,0.0,0.0,0.0,0.0,0.0,-2.1164,-2.1016,-2.1646,-2.1771,-2.1058,-2.2439,0.0,-2.0766,-2.1363,-2.1162,-1.9654,-1.9265,-1.9081,-1.9122,-1.9585,-1.9811,-1.9811,0.0,0.0,0.0,0.0,0.0,0.0,-2.164,-2.3558,-2.6436,-2.5011,-2.6892,-3.078,-3.0008,-3.0666,-3.2421,-3.499,-3.6444,-3.7256,-3.8274,-3.909,-3.9829,-4.071,-4.0438,-3.941,-3.7833,-3.7242,-3.6487,-3.3215,-3.2703,-3.2881,-3.1367,-3.0917,-3.1103,-3.2144,-3.2383,-3.2511,0.0,0.0,0.0,-3.2396,-3.0945,-3.0085,-3.2241,-3.1978,-3.1736,-3.2493,0.0,0.0,0.0,-3.8438,0.0,-4.2461,-4.261,-4.3233,-4.4812,-4.585,-4.7369,-4.9605,-4.9503,-4.9542,-4.9995,-5.0732,-5.1512,-5.2341,-5.2512,-5.3299,-5.4679,-5.503,-5.5537,-5.6238,-5.6433,-5.6853,-5.7477,-5.7641,-5.8585,-6.0044,-6.0308,-6.0906,-6.1699,-6.1715,-6.172,-6.1798,-6.2657,-6.3438,-6.414,-6.5038,-6.5858,-6.6561,-1.4366,-1.4471,-1.4585,0.0,0.0,0.0,0.0,0.0,0.0,0.0,0.0,-2.2057,-2.4366,-2.4711,-2.4739,-2.4635,-2.5543,-2.5341,-2.3465,-2.3509,-2.3471,-2.3214,-2.1741,-2.0887,-2.0913,-2.0259,-1.9908,-1.9908,0.0,0.0,0.0,0.0,0.0,0.0,-2.2904,-2.4722,-2.6592,-2.639,-2.8415,-3.1736,-3.1584,-3.2124,-3.3347,-3.5939,-3.7005,-3.7333,-3.8952,-3.9621,-3.9816,-4.0696,-4.0439,-3.9512,-3.8548,-3.777,-3.665,-3.3969,-3.3223,-3.3082,-3.2096,-3.187,-3.2227,-3.3806,-3.4241,-3.4078,-3.3347,0.0,-3.2507,-3.1164,0.0,-3.0443,-3.0836,0.0,0.0,-3.0884,-3.1534,-3.2395,-3.3339,-3.4575,-3.627,-3.8719,-3.9052,-3.9455,-4.0448,-4.1961,-4.4572,-4.8631,-4.7501,-4.7618,-4.9878,-5.0173,-5.0608,-5.1427,-5.2181,-5.2695,-5.289,-5.4429,-5.5241,-5.5358,-5.6121,-5.6541,-5.6658,-5.7424,-5.8289,-5.9186,-6.0048,-6.0879,-6.1699,-6.1715,-6.172,-6.1798,-6.2657,-6.3047,-6.3243,-6.414,-6.4999,-6.5741,-1.4488,-1.4545,-1.4611,-1.4627,0.0,0.0,0.0,0.0,0.0,0.0,-2.0869,-2.2608,-2.4321,-2.5384,-2.597,-2.6013,-2.7769,-2.7894,-2.558,-2.5918,-2.6207,-2.6197,-2.3492,-2.2501,-2.3498,-2.1668,-2.095,0.0,-2.0515,0.0,0.0,0.0,0.0,0.0,-2.3638,-2.5774,-2.8801,-2.7827,-3.0027,-3.4115,-3.3572,-3.4209,-3.5601,-3.6673,-3.773,-3.8774,-4.0027,-4.0454,-4.0501,-4.0875,-4.0408,-3.9629,-3.9271,-3.8571,-3.7591,-3.602,-3.5553,-3.5366,-3.4517,-3.4244,-3.4439,-3.5152,-3.5295,-3.4924,-3.3556,-3.2827,-3.2252,-3.1499,0.0,0.0,0.0,0.0,0.0,0.0,-3.0931,-3.1125,-3.1002,0.0,-3.3269,-3.5818,0.0,0.0,-3.9578,0.0,0.0,0.0,-4.4403,-4.4877,-4.6937,-4.8059,-4.9235,-5.055,-5.0951,-5.1615,-5.2584,-5.3319,-5.4209,-5.5184,-5.5567,-5.5996,-5.6503,-5.69,-5.7492,-5.8325,-5.8727,-5.967,-6.0929,-6.0934,-6.1252,-6.1759,-6.211,-6.254,-6.3125,-6.3984,-6.4843,-6.5663,-1.4545,-1.4589,-1.4643,-1.4627,0.0,0.0,0.0,0.0,-1.8951,-1.9764,-2.1619,-2.3705,-2.589,-2.7236,-2.8055,-2.8338,-3.0559,-3.0926,-2.8541,-2.8763,-2.9091,-2.9321,-2.5938,-2.4753,-2.6246,-2.3745,-2.2699,0.0,0.0,0.0,0.0,0.0,0.0,0.0,-2.4534,-2.6766,-3.0133,-2.9378,-3.1801,-3.6137,-3.5718,-3.6479,-3.7824,-3.7833,-3.8743,-4.0128,-4.075,-4.0984,-4.0991,-4.1013,-4.0461,0.0,-3.9721,-3.9091,-3.8305,-3.7721,-3.7572,-3.7423,-3.6779,-3.6779,-3.6896,-3.6684,-3.6585,-3.6093,-3.4386,-3.3304,-3.2577,-3.2322,-3.1305,0.0,0.0,0.0,-3.0995,-3.0964,0.0,-3.0413,-2.9846,-3.0101,-3.1054,-3.2895,-3.4166,0.0,0.0,0.0,-3.8344,-4.1377,-4.1206,-4.2042,-4.4409,-4.6002,-4.765,-4.9313,-4.9835,-5.0694,-5.1893,-5.2395,-5.337,-5.4853,-5.5081,-5.5666,-5.6485,-5.6485,-5.6965,-5.7796,-5.7796,-5.8783,-6.0393,-6.0393,-6.09,-6.172,-6.172,-6.211,-6.2735,-6.336,-6.4297,-6.5312,-1.4691,-1.4695,-1.4736,-1.4775,-1.4832,-1.5197,0.0,-1.7575,-1.9568,-2.2211,-2.3269,-2.5746,-3.0984,-3.1584,-3.199,-3.2813,-3.4563,-3.4861,-3.3024,-3.2116,-3.2087,-3.2981,-2.9545,-2.8086,-2.9071,-2.6505,-2.5187,-2.5207,0.0,0.0,0.0,0.0,0.0,0.0,-2.5822,-2.7623,-2.9455,-3.1072,-3.3806,-3.7141,-3.7957,-3.8843,-3.9701,-3.9629,-4.0167,-4.0967,-4.1006,0.0,0.0,-4.1071,-4.0526,0.0,0.0,0.0,0.0,-3.8481,-3.8455,-3.8433,-3.841,0.0,-3.9477,-3.8619,-3.8424,-3.7951,-3.6221,-3.5208,-3.434,-3.3457,-3.3218,-3.3173,-3.3232,-3.2545,-3.1948,-3.1961,-3.1234,0.0,0.0,-2.9966,-2.9512,-2.9647,-3.1198,-3.2878,0.0,-3.4041,-3.5304,-3.9461,-3.826,-3.9207,-4.3434,-4.4504,-4.5767,-4.7533,-4.922,-5.0122,-5.0161,-5.1869,-5.3152,-5.4045,-5.4814,-5.5666,-5.6485,-5.6497,-5.6977,-5.7796,-5.7812,-5.8792,-6.0393,-6.0393,-6.09,-6.172,-6.172,-6.172,-6.1759,-6.1759,-6.2852,-6.4336,-1.66,-1.5976,-1.5401,-1.4897,-1.531,-1.6007,-1.6867,-1.943,-2.1644,-2.2498,-2.4366,-2.7176,-3.1362,-3.2813,-3.3877,-3.473,-3.5912,-3.6309,-3.5718,-3.439,-3.4486,-3.6565,-3.3283,-3.1784,-3.2687,-2.9597,-2.8238,-2.8827,-2.5944,0.0,0.0,0.0,0.0,0.0,-2.5588,-2.7138,-2.9433,-3.1212,-3.3619,-3.6441,-3.8432,-3.9785,-4.0598,-4.0591,-4.0403,-4.0298,-4.0844,-4.1428,0.0,-4.189,-4.2085,-4.2318,-4.2292,-4.1746,-4.1201,-4.1763,-4.1535,0.0,0.0,0.0,-4.2182,-4.1285,0.0,0.0,-3.8025,-3.7391,-3.664,-3.4564,-3.5071,-3.5343,-3.3624,-3.3529,-3.3362,-3.2244,-3.1793,-3.1158,0.0,-2.9168,-2.8627,-2.8632,-2.9679,-3.1076,-3.28,0.0,0.0,-3.5338,-3.5543,-3.6645,-3.9223,-4.1818,-4.4055,-4.5777,-4.7545,-4.8993,-5.0087,-5.0668,-5.1718,-5.3127,-5.3435,-5.4289,-5.5694,-5.5699,-5.6172,-5.7031,-5.6996,-5.7621,-5.8714,-5.93,-6.0041,-6.09,-6.1486,-6.172,-6.1759,-6.2345,-6.293,-6.3594,-1.7946,-1.712,-1.6136,-1.502,-1.6328,-1.7832,-1.8697,-2.1799,-2.4293,-2.4889,-2.6939,-2.9602,-3.2851,-3.4478,-3.5708,-3.6542,-3.7453,-3.8092,-3.8412,-3.653,-3.6595,-3.9225,-3.599,-3.4692,-3.5903,-3.3099,-3.174,-3.2003,-2.8822,-2.7658,0.0,0.0,0.0,0.0,-2.6644,-2.776,-2.9505,-3.222,-3.4347,-3.6105,-3.9006,-4.0351,-4.0649,0.0,-4.1167,-4.0788,0.0,-4.2058,-4.2753,-4.2747,-4.313,-4.3604,-4.359,-4.3239,-4.3011,-4.389,-4.3778,-4.3465,-4.4025,-4.4376,0.0,-4.2779,-4.2229,0.0,-3.9837,0.0,-3.8965,-3.7245,-3.7557,-3.7596,-3.5919,-3.532,-3.4608,-3.321,-3.245,-3.1432,0.0,-2.9004,-2.8536,-2.8221,-2.8983,-2.9946,-3.1052,-3.0935,-3.1403,-3.2844,-3.3444,-3.4623,0.0,0.0,-4.1948,-4.4025,-4.6062,-4.7939,-4.9618,-4.9969,-5.0984,-5.2702,-5.2702,-5.3444,-5.4849,-5.5162,-5.5591,-5.6138,-5.6489,-5.7074,-5.7855,-5.8753,-5.9612,-6.0471,-6.1377,-6.1694,-6.1768,-6.2349,-6.2735,-6.3243,-1.8734,-1.7964,-1.6884,-1.5357,-1.7947,-2.0518,-2.1407,-2.4389,-2.7257,-2.9139,-3.082,-3.2822,-3.5514,-3.661,-3.7492,-3.8316,-3.9129,-4.0018,-4.0859,-3.8477,-3.8213,-4.0987,-3.7802,-3.6814,-3.8592,-3.6812,-3.55,-3.4692,-3.1988,0.0,0.0,0.0,0.0,0.0,-2.8861,-2.9311,-2.9659,-3.392,-3.5814,-3.632,-3.9734,-4.061,-4.0037,-4.1752,-4.2426,-4.2437,-4.2409,-4.2909,-4.3662,-4.3643,-4.3682,-4.3721,-4.3746,-4.3713,-4.3836,-4.4797,-4.5039,-4.5,-4.5047,-4.5675,-4.5714,-4.3216,0.0,0.0,0.0,0.0,-4.1264,0.0,-4.0586,-4.0001,-3.9845,-3.7804,-3.5841,-3.4822,-3.3215,-3.1495,-2.9788,-2.9523,-2.9214,-2.8427,-2.9039,-2.9494,-2.9484,-3.0346,-3.1208,-3.1977,-3.2104,-3.321,-3.5597,0.0,-3.9603,-4.2147,-4.4735,-4.6924,-4.8642,-4.954,-5.0867,-5.2624,-5.2624,-5.3093,-5.4029,-5.4849,-5.524,-5.5357,-5.6216,-5.7035,-5.782,-5.8679,-5.9538,-6.0436,-6.1313,-6.167,-6.1707,-6.169,-6.2267,-6.3243,-1.9012,-1.7584,-1.6844,-1.7671,-2.0145,-2.2326,-2.3218,-2.5695,-2.8576,-3.171,-3.1901,-3.3225,-3.7191,-3.7861,-3.8375,-3.9267,-3.8937,-3.9044,-3.9888,-3.8113,-3.8209,-4.089,-3.9496,-3.9202,-4.0403,-3.7996,-3.6961,-3.7481,-3.3518,-3.1817,-3.2229,0.0,0.0,0.0,-2.8303,-2.8783,-2.9543,-3.1961,-3.4828,-3.7948,-4.0149,-4.0909,-4.0799,0.0,-4.2715,-4.3284,-4.3273,-4.3812,-4.4585,-4.4579,-4.5014,-4.554,-4.5513,-4.5138,-4.4836,-4.5707,-4.5515,-4.5125,-4.5792,-4.6144,-4.6144,-4.548,-4.4972,-4.4543,0.0,0.0,0.0,0.0,0.0,0.0,0.0,0.0,-3.8876,-3.6102,-3.364,-3.1728,-3.0632,-2.9968,-2.9695,-3.0086,-2.9764,-2.9515,-2.9494,-3.0867,-3.1573,-3.1183,-3.2348,-3.3049,-3.3063,0.0,0.0,-3.9447,-4.2041,-4.4543,-4.6924,-4.7822,-4.9423,-5.1722,-5.1726,-5.2546,-5.4029,-5.4225,-5.4693,-5.5357,-5.6216,-5.6731,-5.6978,-5.7838,-5.8704,-5.9528,-6.037,-6.1112,-6.1707,-6.169,-6.2267,-6.3169,-2.0279,-1.9172,-1.8828,-1.9783,-2.2421,-2.4562,-2.5043,-2.7672,-3.0598,-3.3345,-3.3586,-3.4874,-3.8501,-3.9549,-4.0063,-4.0189,-4.0422,-4.0616,-4.0713,-3.9858,-4.0313,-4.2626,-4.1077,-4.0821,-4.2156,-3.9926,-3.8821,-3.9013,-3.5422,-3.3534,-3.3262,0.0,0.0,0.0,-2.9256,-2.9497,-3.0139,-3.2629,-3.5535,-3.8624,-4.074,-4.1565,0.0,-4.2974,-4.3728,-4.4214,-4.4604,-4.5066,-4.5488,-4.5488,-4.5774,-4.6215,-4.6231,-4.5928,-4.566,-4.614,-4.5948,-4.5675,-4.6183,-4.63,-4.63,-4.63,-4.5948,-4.5561,-4.5567,-4.5567,-4.5294,0.0,-4.4585,-4.4393,0.0,0.0,-3.9976,-3.6579,-3.3807,-3.1934,-3.1421,-3.0367,-2.9899,-3.0716,-3.0362,-3.0079,-3.0057,-3.0953,-3.1348,-3.0841,-3.1724,0.0,0.0,0.0,0.0,-3.7873,-4.0855,-4.3482,-4.5711,-4.6956,-4.8673,-5.0824,-5.1219,-5.1921,-5.2897,-5.4068,-5.4615,-5.481,-5.6067,-5.6582,-5.6663,-5.7539,-5.8395,-5.9251,-6.0504,-6.1282,-6.1716,-6.1717,-6.2022,-6.2544,-2.1895,-2.1675,-2.1684,-2.1464,-2.4773,-2.7391,-2.718,-2.9949,-3.2783,-3.4748,-3.564,-3.7085,-3.9665,-4.1277,-4.1947,-4.1305,-4.251,-4.3004,-4.2235,-4.2166,-4.2891,-4.465,-4.2439,-4.1965,-4.3714,-4.2064,-4.0804,-4.0057,-3.7371,-3.5249,-3.3612,0.0,0.0,-3.0697,-3.0715,-3.0839,-3.1255,-3.4517,-3.695,-3.8871,-4.1338,-4.2357,-4.263,-4.4273,-4.491,-4.5,-4.5897,-4.6209,-4.6209,-4.6209,-4.622,-4.6231,-4.6279,-4.6284,-4.6288,-4.6296,-4.63,-4.63,-4.6303,-4.6303,-4.6339,-4.642,-4.6381,-4.6342,-4.6434,-4.6399,-4.628,-4.6303,-4.5682,-4.5143,0.0,0.0,-4.0216,-3.7048,-3.4393,-3.2714,-3.248,-3.1077,-3.0411,-3.1226,-3.1228,0.0,-3.1125,-3.1157,-3.104,-3.0802,-3.091,0.0,0.0,0.0,0.0,-3.7006,-4.0296,-4.2958,-4.4801,0.0,-4.8279,-5.0126,-5.0867,-5.1414,-5.1804,-5.4108,-5.4732,-5.4108,-5.5846,-5.6551,-5.651,-5.7372,-5.8319,-5.9339,-6.0932,-6.1601,-6.1718,-6.1697,-6.1716,-6.1815,-2.2726,-2.3171,-2.3226,-2.173,-2.7365,-3.1608,-3.0125,-3.1611,-3.4071,-3.7277,-3.7753,-3.8778,-4.1442,-4.1955,-4.2371,-4.2995,-4.2685,-4.2374,-4.2208,-4.1538,-4.1945,-4.3755,-4.2672,-4.2836,-4.4618,-4.2899,-4.1957,-4.1838,-3.8585,-3.6469,-3.5373,-3.2901,-3.1372,-3.0711,-3.0704,-3.1508,-3.2978,-3.5048,0.0,-3.9747,-4.1578,-4.2715,-4.3473,-4.4526,-4.4883,-4.5016,-4.5874,-4.6187,-4.6187,-4.6187,-4.6231,-4.6284,-4.6284,-4.6292,-4.63,-4.63,-4.63,-4.6303,-4.6317,-4.6309,-4.6459,-4.7176,-4.682,-4.6495,-4.7204,-4.6829,-4.6287,-4.6306,-4.6186,-4.5835,-4.5132,0.0,0.0,-3.9552,-3.7633,-3.5876,-3.4435,-3.338,-3.3068,-3.3927,-3.3378,-3.2946,-3.2937,-3.2934,-3.2342,-3.0895,-3.1469,0.0,0.0,0.0,0.0,0.0,-3.8826,0.0,0.0,0.0,-4.7701,-5.0087,-5.0243,-5.1453,-5.3561,-5.4029,-5.4147,-5.4108,-5.5854,-5.6171,-5.5609,-5.6471,-5.7711,-5.9217,-6.0241,-6.1076,-6.1711,-6.1707,-6.1704,-6.1826,-2.4204,-2.4499,-2.4701,-2.4251,-2.9218,-3.3247,-3.3278,-3.5507,-3.7506,-3.8283,-3.8326,-3.9275,-4.1917,-4.2956,-4.35,-4.351,-4.3948,-4.3841,-4.2917,-4.3345,-4.3994,-4.4931,-4.4098,-4.4222,-4.5553,-4.3841,-4.2938,-4.2967,-3.9954,-3.7845,-3.6508,-3.3894,-3.2208,-3.1391,-3.1831,-3.3023,-3.4759,0.0,0.0,-3.9998,-4.2142,-4.3512,-4.4387,-4.5245,-4.5601,-4.5689,-4.608,-4.624,-4.6245,-4.624,-4.6284,-4.6292,-4.6292,-4.6296,-4.6303,-4.6309,-4.6306,-4.6303,-4.6319,-4.6282,-4.6399,-4.6822,-4.659,-4.6516,-4.7416,-4.7264,-4.7109,-4.7574,-4.7651,-4.7256,-4.5913,-4.3896,0.0,0.0,0.0,-3.6864,-3.5576,-3.4636,-3.4244,-3.4669,-3.4315,-3.4078,-3.4072,-3.3682,-3.2664,-3.0927,-3.1187,0.0,0.0,0.0,0.0,0.0,0.0,0.0,0.0,0.0,0.0,-4.8837,-5.0126,-5.1687,-5.3366,-5.4264,-5.4654,-5.4736,-5.6051,-5.6636,-5.6719,-5.7551,-5.8371,-5.9178,-6.0076,-6.0944,-6.1697,-6.1697,-6.1704,-6.1752,-2.6764,-2.6936,-2.7224,-2.7705,-3.1429,-3.4738,-3.592,-3.9038,-4.0758,-3.9396,-3.947,-4.0461,-4.2539,-4.4113,-4.4783,-4.4113,-4.5289,-4.5502,-4.415,-4.5373,-4.613,-4.6193,-4.5531,-4.5499,-4.6176,-4.4837,-4.4051,-4.3895,-4.1643,-3.9377,-3.717,-3.5074,-3.3556,-3.2583,0.0,0.0,0.0,0.0,-3.9613,-4.1072,-4.3056,-4.4426,-4.5255,-4.5958,-4.624,-4.6288,-4.6288,-4.6292,-4.63,-4.6292,-4.6292,-4.63,-4.63,-4.63,-4.6342,-4.651,-4.6432,-4.6351,-4.6518,-4.6444,-4.6328,-4.6512,-4.6441,-4.6523,-4.7383,-4.7461,-4.7578,-4.8437,-4.8633,-4.8203,-4.6822,-4.4757,0.0,0.0,0.0,-3.8004,-3.6989,-3.6089,-3.5538,-3.5528,-3.5369,-3.5171,-3.5009,-3.4192,-3.2937,-3.12,-3.0915,-3.0871,-3.1066,0.0,0.0,0.0,0.0,-3.9876,-4.0629,0.0,-4.6839,-4.7861,-5.009,-5.1769,-5.3014,-5.4385,-5.5134,-5.5332,-5.621,-5.6983,-5.7656,-5.8319,-5.8792,-5.9183,-5.9841,-6.0783,-6.172,-6.1686,-6.1707,-6.1718,-3.1128,-3.1988,-3.2336,-3.1538,-3.5086,-3.778,-3.7144,-3.9986,-4.2081,-4.1885,-4.3199,-4.4278,-4.452,-4.5336,-4.5901,-4.5843,-4.5998,-4.6056,-4.5944,-4.6107,-4.6193,-4.6215,-4.6137,-4.6137,-4.6215,-4.602,-4.5553,-4.4773,-4.374,-4.1156,-3.7176,-3.6929,-3.5933,-3.4413,0.0,0.0,0.0,-3.9598,-4.1549,-4.4523,-4.4709,-4.5338,-4.6167,-4.6245,-4.6288,-4.63,-4.63,-4.63,-4.63,-4.63,-4.63,-4.63,-4.63,-4.63,-4.6456,-4.724,-4.6905,-4.6484,-4.7265,-4.6914,-4.6484,-4.7265,-4.6875,-4.6523,-4.7383,-4.6992,-4.668,-4.7539,-4.7734,-4.7656,-4.75,-4.664,-4.539,0.0,0.0,0.0,-3.9765,-3.8789,-3.824,-3.8224,-3.7555,-3.6735,-3.5952,-3.509,-3.3874,-3.2115,-3.1256,-3.1139,0.0,0.0,0.0,-3.684,0.0,-4.0157,-4.3294,-4.5324,-4.712,-4.8681,-4.9748,-5.1503,-5.3873,-5.4047,-5.4566,-5.5351,-5.6207,-5.6663,-5.6723,-5.6801,-5.7738,-5.9104,-5.9183,-6.0237,-6.1681,-6.1701,-6.1709,-6.1676,-3.3292,-3.3371,-3.3517,-3.4124,-3.6579,0.0,0.0,-4.1201,-4.3062,-4.2995,-4.4045,-4.4783,-4.4792,-4.5551,-4.5872,-4.5356,-4.5813,-4.5676,-4.4664,-4.606,-4.6699,-4.624,-4.7182,-4.7501,-4.6995,-4.6995,-4.6566,-4.567,-4.4793,-4.3234,-4.1,-3.9496,-3.838,0.0,0.0,-3.9731,-4.2158,-4.2147,-4.324,-4.5004,-4.4957,-4.5503,-4.6296,-4.6296,-4.6296,-4.63,-4.63,-4.63,-4.6378,-4.6885,-4.7081,-4.7081,-4.7081,-4.7435,-4.7829,-4.7649,-4.7343,-4.7148,-4.75,-4.7344,-4.7305,-4.8164,-4.7734,-4.7305,-4.8164,-4.8125,-4.7969,-4.832,-4.7969,-4.7773,-4.8281,-4.6797,-4.5469,0.0,0.0,0.0,-4.0859,-3.9922,-3.9179,-3.8668,-3.7844,-3.7179,-3.6827,-3.5535,-3.44,-3.3701,-3.2358,0.0,0.0,0.0,0.0,-3.5669,0.0,-4.0437,-4.2907,-4.5675,-4.7666,-4.888,-5.0222,-5.1984,-5.4013,-5.3981,-5.4725,-5.6071,-5.6922,-5.7304,-5.7338,-5.7338,-5.8319,-5.9846,-5.93,-6.0167,-6.1701,-6.1707,-6.1717,-6.1715,-3.5554,0.0,-3.497,0.0,-3.7753,-3.8811,-3.9901,-4.2064,-4.3654,-4.386,-4.4646,-4.5191,-4.5201,-4.5716,-4.5765,-4.49,-4.5346,-4.5326,-4.4353,-4.6013,-4.7003,-4.6972,-4.8156,-4.8397,-4.7508,-4.7508,-4.7086,-4.6196,-4.5585,-4.4616,-4.3206,0.0,0.0,0.0,-4.0824,-4.2119,-4.4075,-4.4067,-4.4575,-4.5363,-4.5395,-4.575,-4.63,-4.63,-4.63,-4.6339,-4.6573,-4.6694,-4.6814,-4.7709,-4.8138,-4.8333,-4.806,-4.8418,-4.8819,-4.8476,-4.8164,-4.8047,-4.8281,-4.8164,-4.8125,-4.875,-4.8437,-4.8125,-4.875,-4.8906,-4.8984,-4.9219,-4.8594,-4.8164,-4.8789,-4.6952,-4.5506,-4.5858,0.0,0.0,0.0,-4.1172,-4.0391,-3.9805,-3.8749,-3.8045,-3.8045,-3.6716,-3.5854,-3.5854,0.0,0.0,0.0,0.0,0.0,0.0,0.0,0.0,0.0,-4.6505,-4.8415,-4.927,-5.0727,-5.2297,-5.4015,-5.4491,-5.5368,-5.6542,-5.7161,-5.7551,-5.7791,-5.7796,-5.8816,-6.0349,-5.9733,-6.0373,-6.1709,-6.1715,-6.1717,-6.1701,-3.8354,-3.7715,-3.7689,-3.9342,-3.9006,-3.9059,-4.0733,-4.2461,-4.3902,-4.4681,-4.5593,-4.6169,-4.6085,-4.6076,-4.5735,-4.4868,-4.4811,-4.5209,-4.6107,-4.613,-4.6917,0.0,-4.8787,-4.8405,-4.7528,-4.7489,-4.7067,-4.6187,-4.6279,0.0,-4.2393,0.0,-4.1558,-4.2424,-4.3251,-4.4153,-4.4972,-4.4972,-4.548,-4.6261,-4.6261,-4.63,-4.63,-4.63,-4.63,-4.6417,-4.7276,-4.7562,-4.7725,-4.8574,-4.9466,-5.0012,-4.9153,-4.8899,-4.9062,-4.9922,-4.957,-4.9062,-4.9922,-4.9531,-4.8906,-4.8906,-4.8906,-4.8906,-4.8906,-4.8906,-4.9141,-5.0,-4.9492,-4.8906,-4.8906,-4.7454,-4.5994,-4.5147,0.0,0.0,0.0,-4.2929,-4.2383,-4.2344,-4.0898,-3.9883,-3.9883,-3.9062,-3.8553,-3.8534,0.0,0.0,0.0,0.0,0.0,-3.8453,-4.0203,0.0,-4.6225,-4.7998,-4.9285,-5.0087,-5.0984,-5.2312,-5.4076,-5.5723,-5.6491,-5.6509,-5.6491,-5.6992,-5.7811,-5.7791,-5.8811,-6.0417,-6.0373,-6.0928,-6.1711,-6.1716,-6.1709,-6.1707,-3.9162,-3.9104,-3.9345,-4.0468,-4.0435,-4.0435,-4.0921,-4.2493,-4.3661,-4.3886,-4.5235,-4.6185,-4.6169,-4.6113,-4.5754,0.0,-4.5373,-4.5624,0.0,-4.6925,-4.8195,-4.8787,-4.9878,-5.0119,-4.9283,-4.9283,-4.886,-4.7981,0.0,0.0,0.0,-4.4185,-4.3911,-4.4227,-4.509,-4.5948,-4.6807,-4.7354,-4.7432,-4.7198,-4.7198,-4.6846,-4.6342,-4.6976,-4.7176,-4.7291,-4.8181,-4.8493,-4.8613,-4.9508,-4.9973,-5.0253,-5.0502,-5.0617,-5.0535,-5.0273,-5.0,-4.9844,-5.0117,-5.0,-4.9922,-5.0469,-5.0195,-4.9805,-4.9805,-4.9336,-4.9141,-5.0039,-4.902,-4.8192,-4.8777,-4.7489,-4.6393,-4.6739,-4.5765,0.0,-4.4647,-4.3319,-4.2381,-4.2383,-4.1405,-4.0505,-3.9961,-3.9648,0.0,0.0,0.0,0.0,0.0,0.0,0.0,0.0,-4.2224,0.0,-4.8021,-4.9172,-5.0428,-5.1875,-5.2147,-5.3203,-5.4917,-5.6064,-5.6548,-5.6491,-5.6485,-5.6985,-5.779,-5.7797,-5.8825,-6.0399,-6.0401,-6.0928,-6.1716,-6.1715,-6.1701,-6.169,-4.0124,-3.9968,-3.9929,-4.0474,-4.0552,-4.0779,-4.1388,-4.2688,-4.3824,-4.444,-4.5515,-4.6193,-4.6185,-4.6146,0.0,-4.5373,-4.5857,-4.6177,-4.6247,-4.7821,-4.9052,-4.9698,-5.075,-5.0913,-5.0121,-5.0121,0.0,-4.8816,-4.8786,-4.8248,-4.7237,-4.669,-4.6456,-4.6495,-4.7042,-4.7588,-4.8135,-4.8603,-4.8369,-4.7627,-4.7946,-4.7556,-4.6889,-4.7757,-4.8078,-4.82,-4.9094,-4.9404,-4.9522,-5.0381,-5.0654,-5.0734,-5.1249,-5.1403,-5.1316,-5.0814,-5.0663,-5.0664,-5.0664,-5.0664,-5.0781,-5.1289,-5.1016,-5.0664,-5.0664,-5.0233,-4.9996,-5.0542,-4.9519,-4.8613,-4.8841,-4.7754,-4.6859,-4.7084,-4.6183,-4.5486,-4.5502,-4.4253,-4.3276,-4.2926,-4.2104,0.0,0.0,-4.0856,-4.1011,0.0,0.0,0.0,0.0,0.0,0.0,-4.0703,-4.4179,0.0,-4.9335,-5.0155,-5.1289,-5.2724,-5.3351,-5.4245,-5.5318,-5.6163,-5.6731,-5.6985,-5.6627,-5.7159,-5.8242,-5.825,-5.9077,-6.0425,-6.0749,-6.1204,-6.1718,-6.1709,-6.1694,-6.172,-4.111,-4.0396,-3.9805,0.0,-3.9883,0.0,-4.222,-4.3162,-4.4299,-4.5998,-4.6208,-4.6208,-4.6193,-4.6208,-4.6254,-4.6388,0.0,0.0,0.0,-4.863,-4.9348,-5.1037,-5.1193,-5.0862,-5.0108,-5.0147,-4.9762,-4.8876,-4.8876,-4.8876,-4.8798,-4.8798,-4.8837,-4.8915,-4.8958,-4.8997,-4.8997,-4.8993,-4.8486,-4.7744,-4.8504,-4.8306,-4.7712,-4.8571,-4.8938,-4.9101,-4.9961,-5.0273,-5.0391,-5.1133,-5.1406,-5.1406,-5.1406,-5.1406,-5.1406,-5.1389,-5.1398,-5.1406,-5.1406,-5.1406,-5.1406,-5.1406,-5.1406,-5.1406,-5.1406,-5.1398,-5.1414,-5.1414,-5.0725,-4.9832,-4.904,-4.8174,-4.7315,-4.6456,-4.63,-4.6261,-4.6222,-4.5492,-4.4677,0.0,0.0,0.0,0.0,-4.2642,-4.3663,0.0,0.0,0.0,0.0,0.0,-4.1052,-4.2607,-4.5975,-4.855,-5.0165,-5.105,-5.1951,-5.2917,-5.458,-5.5391,-5.543,-5.6173,-5.6978,-5.7765,-5.6956,-5.7516,-5.8996,-5.9022,-5.9537,-6.041,-6.1256,-6.1598,-6.1637,-6.1694,-6.172,-6.172,0.0,0.0,-4.0948,-4.1572,-4.1688,-4.2273,-4.4026,-4.4462,-4.4968,-4.6052,-4.6215,-4.6215,-4.6208,-4.619,-4.6736,-4.8078,-4.6948,-4.6637,-4.7727,-4.7781,-4.8256,-4.9322,-5.0036,-5.0288,-5.0108,-5.0733,-5.0659,-4.9774,-4.9774,-4.9462,-4.8798,-4.8798,-4.8837,-4.8915,-4.9556,-4.9834,-4.9832,-4.982,-4.9345,-4.856,-4.8099,-4.7762,-4.7693,-4.8553,-4.9296,-5.0,-5.082,-5.1133,-5.1133,-5.1328,-5.1406,-5.1406,-5.1406,-5.1406,-5.1406,-5.1405,-5.1398,-5.1394,-5.1406,-5.1406,-5.1406,-5.1394,-5.1389,-5.1391,-5.14,-5.1398,-5.1391,-5.1418,-5.0715,-4.9859,-4.8997,-4.8135,-4.7315,-4.6456,-4.63,-4.6066,-4.5402,-4.5132,-4.4663,0.0,-4.4117,-4.439,-4.4387,-4.4972,-4.564,0.0,0.0,0.0,0.0,-4.5838,-4.5643,-4.5366,-4.8063,-5.0016,-5.1063,-5.1968,-5.3175,-5.4679,-5.5728,-5.623,-5.6218,-5.64,-5.6971,-5.779,-5.7588,-5.8078,-5.8996,-5.9074,-5.92,-5.9482,-6.0378,-6.0714,-6.0808,-6.1431,-6.172,-6.172,-4.1084,-4.1089,-4.1245,-4.1668,-4.2097,-4.2792,-4.4111,-4.4624,-4.5215,-4.6073,-4.6196,-4.6203,-4.6203,-4.6209,-4.656,-4.7528,-4.7093,-4.7313,-4.8553,-4.8301,-4.8308,-4.8788,-4.9268,-4.9674,-5.0074,-5.0547,-5.0781,-5.0672,-5.0672,-5.0438,-5.0008,-5.0008,-5.0012,-5.0061,-5.0503,-5.0701,-5.0701,-5.0697,-5.0217,-4.9501,-4.94,-4.9138,-4.8867,-4.9726,-5.0351,-5.082,-5.125,-5.1406,-5.1406,-5.1406,-5.1406,-5.1406,-5.1406,-5.1406,-5.1406,-5.1402,-5.1406,-5.1402,-5.1404,-5.14,-5.1398,-5.1389,-5.1382,-5.1418,-5.1389,-5.1389,-5.1385,-5.1418,-5.1023,-5.0321,-4.9032,-4.8447,-4.7744,-4.6495,-4.5987,-4.5558,-4.509,-4.5012,-4.4816,-4.4344,-4.5051,-4.575,-4.6097,-4.6566,-4.719,-4.7971,-4.8045,0.0,-4.8053,-4.9215,-4.9137,-4.7506,-4.9189,-5.0711,-5.196,-5.3249,-5.4333,-5.5254,-5.6113,-5.6497,-5.6524,-5.69,-5.7556,-5.8367,-5.8359,-5.8819,-5.9581,-5.923,-5.9113,-5.9161,-5.963,-6.0032,-6.0459,-6.0934,-6.1346,-6.172,-4.1295,-4.1184,-4.1189,-4.1451,-4.2114,-4.2927,-4.3845,-4.4637,-4.5351,-4.6092,-4.622,-4.6265,-4.6382,-4.6309,-4.6309,-4.6577,-4.7033,-4.7918,-4.934,-4.8815,-4.8437,-4.841,-4.866,-4.9137,-4.9891,-5.0165,-5.0594,-5.1219,-5.1336,-5.1336,-5.1219,-5.1336,-5.1382,-5.1396,-5.1405,-5.1406,-5.1406,-5.1289,-5.0817,-5.0253,-5.0818,-5.0703,-5.0273,-5.0976,-5.1289,-5.1406,-5.1406,-5.1406,-5.1406,-5.1406,-5.1406,-5.1406,-5.1406,-5.1406,-5.1406,-5.1385,-5.1394,-5.1404,-5.1385,-5.1418,-5.1418,-5.1394,-5.1385,-5.1414,-5.1414,-5.1414,-5.1414,-5.1414,-5.1414,-5.0906,-4.9306,-4.8876,-4.8287,-4.6768,-4.5753,-4.5168,-4.5012,0.0,-4.5207,-4.5207,-4.5948,-4.6917,-4.7962,-4.8074,-4.8816,-5.0533,-5.0678,-5.0684,-5.0664,-5.201,-5.1815,-4.9649,-5.0317,-5.1449,-5.3053,-5.4537,-5.5309,-5.541,-5.6152,-5.6497,-5.6517,-5.74,-5.825,-5.9022,-5.9122,-5.9698,-6.0438,-5.9503,-5.9113,-5.9083,-5.8983,-5.9451,-6.0234,-6.0351,-6.0932,-6.169,-4.2208,-4.1622,-4.154,-4.3022,-4.3412,-4.4036,-4.5557,-4.5908,-4.6069,-4.6187,-4.6187,-4.6499,-4.7201,-4.6704,-4.6865,-4.8254,-4.725,-4.6587,-4.6766,-4.6738,-4.6709,-4.667,-4.8049,-4.8876,-4.8993,-5.0438,-5.0906,-5.0321,-5.1023,-5.1023,-5.0321,-5.1063,-5.1414,-5.1382,-5.1404,-5.1406,-5.1367,-5.0664,-5.0312,-5.0156,-4.9531,-4.9648,-5.0195,-5.0351,-5.082,-5.1406,-5.1406,-5.1406,-5.1406,-5.1406,-5.1406,-5.1406,-5.1406,-5.1406,-5.1406,-5.1385,-5.1418,-5.1385,-5.1394,-5.1385,-5.1414,-5.1418,-5.1418,-5.1414,-5.1414,-5.1414,-5.1414,-5.1414,-5.1406,-5.1089,-5.0083,-4.9298,-4.8474,-4.7545,-4.6651,-4.5831,-4.509,0.0,-4.6105,-4.6105,-4.6839,-4.8235,-5.0577,-5.0801,-5.1492,-5.3169,-5.3325,-5.3325,-5.3331,-5.3559,-5.352,-5.3136,-5.3303,-5.3855,-5.4797,-5.507,-5.5561,-5.6308,-5.6439,-5.651,-5.6519,-5.7329,-5.8187,-5.9044,-5.9776,-6.0594,-6.1295,-5.9728,-5.9104,-5.9044,-5.8336,-5.8631,-5.9453,-6.0156,-6.0937,-6.1717,-4.3114,-4.2416,-4.2186,-4.3465,-4.37,-4.4129,-4.5333,-4.5924,-4.6236,-4.6236,-4.6245,-4.6596,-4.7455,-4.6796,-4.68,-4.804,-4.703,-4.6292,-4.6249,-4.6284,-4.6479,-4.6947,-4.7701,-4.8571,-4.9478,-5.0764,-5.1193,-5.08,-5.1183,-5.118,-5.0828,-5.1219,-5.1414,-5.1414,-5.1403,-5.1406,-5.1367,-5.1016,-5.0859,-5.082,-5.0391,-5.0508,-5.0859,-5.0859,-5.1094,-5.1406,-5.1406,-5.1406,-5.1406,-5.1406,-5.1406,-5.1406,-5.1406,-5.1404,-5.1394,-5.1418,-5.1382,-5.1389,-5.1389,-5.1382,-5.1414,-5.1414,-5.1414,-5.1414,-5.1414,-5.1414,-5.1531,-5.1999,-5.1722,-5.1293,-5.0867,-5.0083,-4.922,-4.8369,-4.7155,0.0,0.0,-4.6015,-4.6401,-4.6878,-4.8504,-5.0249,-5.1882,-5.2454,-5.3078,-5.3858,-5.3884,-5.3884,-5.3904,-5.4359,-5.4593,-5.4612,-5.4619,-5.4819,-5.5182,-5.5678,-5.6095,-5.6496,-5.6503,-5.673,-5.7165,-5.8022,-5.8888,-5.9754,-6.0603,-6.1244,-6.1517,-5.9824,-5.9396,-5.966,-5.8396,-5.8711,-5.9883,-6.0273,-6.0937,-6.1719,-4.3986,-4.329,-4.2978,-4.3829,-4.3986,-4.4294,-4.5109,-4.5855,-4.6288,-4.6288,-4.6491,-4.6924,-4.7783,-4.712,-4.6963,-4.7783,-4.6928,-4.6303,-4.63,-4.6491,-4.6878,-4.7498,-4.7975,-4.8886,-5.0381,-5.1049,-5.14,-5.1398,-5.1385,-5.1414,-5.1414,-5.1414,-5.1418,-5.1389,-5.1404,-5.1406,-5.1406,-5.1406,-5.1406,-5.1406,-5.1406,-5.1406,-5.1406,-5.1405,-5.1404,-5.1404,-5.1406,-5.1406,-5.1406,-5.1406,-5.1406,-5.1406,-5.1405,-5.1396,-5.1414,-5.1418,-5.1389,-5.1391,-5.1418,-5.1414,-5.1414,-5.1414,-5.1414,-5.1414,-5.141,-5.1414,-5.1609,-5.2273,-5.1878,-5.141,-5.1414,-5.0707,-4.9887,-4.9228,0.0,0.0,0.0,-4.7177,-4.7674,-4.8348,-5.0321,-5.2064,-5.3104,-5.3798,-5.4305,-5.45,-5.4484,-5.4492,-5.4515,-5.5155,-5.5506,-5.5503,-5.5503,-5.551,-5.5483,-5.6173,-5.6503,-5.6488,-5.6488,-5.6909,-5.7711,-5.8616,-5.9482,-6.0356,-6.1244,-6.1666,-6.1559,-5.9825,-5.9641,-6.0234,-5.8555,-5.8906,-6.039,-6.039,-6.0937,-6.1719,-4.4891,-4.4192,-4.3879,-4.4738,-4.4891,-4.5203,-4.6066,-4.6261,-4.63,-4.63,-4.7002,-4.7822,-4.8603,-4.7978,-4.7822,-4.8642,-4.7213,-4.6315,-4.63,-4.7057,-4.7525,-4.7588,-4.9153,-5.0403,-5.1301,-5.1363,-5.1406,-5.1406,-5.1391,-5.1414,-5.1414,-5.1414,-5.1391,-5.1406,-5.1406,-5.1406,-5.1406,-5.1406,-5.1406,-5.1406,-5.1406,-5.1406,-5.1406,-5.1391,-5.1418,-5.1382,-5.1396,-5.1404,-5.1406,-5.1406,-5.1406,-5.1406,-5.1389,-5.1418,-5.1418,-5.1394,-5.1389,-5.1414,-5.1414,-5.1414,-5.1414,-5.1414,-5.1414,-5.141,-5.1401,-5.1406,-5.141,-5.1479,-5.144,-5.1401,-5.1414,-5.0703,-5.0074,-5.0005,0.0,0.0,-4.8743,-4.9986,-5.1035,-5.1102,-5.1941,-5.3182,-5.4858,-5.5069,-5.545,-5.6238,-5.6308,-5.6316,-5.6316,-5.6355,-5.6394,-5.6418,-5.6418,-5.6418,-5.6379,-5.6457,-5.6488,-5.6511,-5.6488,-5.6909,-5.7711,-5.8593,-5.9498,-6.0356,-6.1276,-6.1693,-6.1564,-5.9881,-5.9673,-6.0234,-5.8555,-5.8906,-6.039,-6.039,-6.0937,-6.1719,-4.5796,-4.509,-4.4777,-4.5636,-4.5363,-4.5285,-4.6183,-4.63,-4.63,-4.63,-4.7042,-4.79,-4.872,-4.8096,-4.7943,-4.8772,-4.7295,-4.6514,-4.7057,-4.7913,-4.8652,-4.9192,-5.0324,-5.1073,-5.1402,-5.1406,-5.1406,-5.1406,-5.1404,-5.1394,-5.1414,-5.1396,-5.1404,-5.1406,-5.1406,-5.1406,-5.1406,-5.14,-5.1402,-5.1406,-5.1404,-5.14,-5.1394,-5.1391,-5.1385,-5.1414,-5.1382,-5.1389,-5.1396,-5.1406,-5.1406,-5.1406,-5.1385,-5.1414,-5.1414,-5.1382,-5.1382,-5.1414,-5.1414,-5.1414,-5.1414,-5.1414,-5.141,-5.1406,-5.1401,-5.1396,-5.1547,-5.2088,-5.1776,-5.1581,-5.2094,-5.1503,-5.1074,-5.1635,0.0,-5.0912,-5.1196,-5.1759,-5.2129,-5.2136,-5.3369,-5.4484,-5.5147,-5.5693,-5.6152,-5.6464,-5.6503,-5.6503,-5.6503,-5.6503,-5.6511,-5.6519,-5.6519,-5.648,-5.6496,-5.648,-5.6464,-5.6446,-5.697,-5.7672,-5.8549,-5.9404,-6.0286,-6.112,-6.1524,-6.1392,-6.0799,-5.9678,-5.968,-6.0301,-5.9139,-5.9726,-6.1211,-6.1211,-6.1406,-6.1719,-4.6317,-4.5805,-4.5604,-4.6183,-4.5792,-4.5597,-4.6222,-4.63,-4.6417,-4.6651,-4.7471,-4.8294,-4.9121,-4.849,-4.8255,-4.8853,-4.7571,-4.6948,-4.7567,-4.866,-4.9676,-5.0535,-5.1118,-5.1398,-5.1406,-5.1406,-5.1406,-5.1406,-5.1406,-5.1404,-5.1391,-5.1405,-5.1406,-5.1406,-5.1404,-5.1403,-5.1403,-5.1391,-5.1394,-5.1403,-5.14,-5.1391,-5.1414,-5.1389,-5.1385,-5.1414,-5.1414,-5.1414,-5.1418,-5.1398,-5.1403,-5.1402,-5.1389,-5.1418,-5.1414,-5.1414,-5.1414,-5.1414,-5.141,-5.141,-5.141,-5.141,-5.1406,-5.1396,-5.1386,-5.138,-5.157,-5.2149,-5.1804,-5.1648,-5.2506,-5.2194,-5.2038,-5.2947,-5.2779,-5.2649,-5.3019,-5.3501,-5.3705,-5.344,-5.4718,-5.5606,-5.5606,-5.6152,-5.6503,-5.6503,-5.6503,-5.6503,-5.6503,-5.6503,-5.6503,-5.6455,-5.6455,-5.6464,-5.6472,-5.6511,-5.6455,-5.6388,-5.7273,-5.8169,-5.9017,-5.9919,-6.0808,-6.1641,-6.1693,-6.1208,-6.0331,-5.9524,-5.9678,-6.0327,-5.9485,-6.0194,-6.1719,-6.1719,-6.1719,-6.1719,-4.6289,-4.6287,-4.6317,-4.6303,-4.63,-4.63,-4.63,-4.63,-4.6612,-4.7474,-4.833,-4.9196,-4.9992,-4.9355,-4.8912,-4.8912,-4.808,-4.7615,-4.7631,-4.9253,-5.0586,-5.1367,-5.1406,-5.1406,-5.1406,-5.1406,-5.1406,-5.1406,-5.1406,-5.1406,-5.1406,-5.1406,-5.1406,-5.1406,-5.1391,-5.1414,-5.1414,-5.1394,-5.1391,-5.1414,-5.1394,-5.1391,-5.1414,-5.1414,-5.1414,-5.1414,-5.1414,-5.1414,-5.1414,-5.1414,-5.1414,-5.1418,-5.1394,-5.1389,-5.1414,-5.1414,-5.1414,-5.141,-5.1401,-5.1396,-5.1396,-5.1396,-5.1396,-5.1391,-5.1323,-5.1362,-5.1369,-5.1317,-5.1362,-5.1648,-5.2467,-5.2584,-5.2896,-5.3787,-5.4651,-5.4918,-5.404,-5.5404,-5.6176,-5.5295,-5.5957,-5.6503,-5.6503,-5.6503,-5.6503,-5.6503,-5.6503,-5.6503,-5.6503,-5.6503,-5.6455,-5.6388,-5.6388,-5.6388,-5.6388,-5.6455,-5.6455,-5.6427,-5.7273,-5.8178,-5.9035,-5.9981,-6.0867,-6.1699,-6.1715,-6.1213,-6.0315,-5.9456,-5.9624,-6.0301,-5.9425,-6.0145,-6.168,-6.168,-6.168,-6.1679,-4.6289,-4.6289,-4.6288,-4.6287,-4.6282,-4.6312,-4.6303,-4.6309,-4.639,-4.6655,-4.7982,-4.8769,-4.8391,-4.8691,-4.8912,-4.8912,-4.808,-4.8125,-4.9334,-5.0429,-5.1133,-5.1406,-5.1406,-5.1406,-5.1406,-5.1406,-5.1406,-5.1406,-5.1406,-5.1406,-5.1406,-5.1406,-5.1406,-5.1406,-5.1391,-5.1414,-5.1414,-5.1382,-5.1418,-5.1414,-5.1382,-5.1418,-5.1414,-5.1414,-5.1414,-5.1414,-5.1414,-5.1414,-5.1414,-5.1414,-5.1414,-5.1414,-5.1382,-5.1418,-5.1414,-5.1414,-5.1414,-5.1414,-5.141,-5.1406,-5.1396,-5.1386,-5.1375,-5.1323,-5.1317,-5.1303,-5.1335,-5.1289,-5.1335,-5.1569,-5.2426,-5.2582,-5.3097,-5.4554,-5.5046,-5.5319,-5.5677,-5.6168,-5.6394,-5.6152,-5.6347,-5.6503,-5.6503,-5.6503,-5.6503,-5.6503,-5.6503,-5.6494,-5.6417,-5.6437,-5.6427,-5.6407,-5.6397,-5.6397,-5.6397,-5.6407,-5.668,-5.7253,-5.8179,-5.9046,-5.9874,-6.0793,-6.1413,-6.1699,-6.1715,-6.0861,-5.9534,-5.9885,-5.9812,-5.9464,-5.9183,-5.9777,-6.0725,-6.0155,-5.9957,-6.0022,-4.6245,-4.6015,-4.5898,-4.625,-4.6288,-4.6285,-4.6319,-4.628,-4.6438,-4.6788,-4.8027,-4.8694,-4.8161,-4.8586,-4.8895,-4.8895,-4.8748,-4.9219,-5.0586,-5.1133,-5.1406,-5.1406,-5.1406,-5.1406,-5.1406,-5.1406,-5.1406,-5.1406,-5.1406,-5.1406,-5.1406,-5.1406,-5.1406,-5.1406,-5.1396,-5.1382,-5.1414,-5.1414,-5.1414,-5.1414,-5.1414,-5.1414,-5.1414,-5.1414,-5.1414,-5.1414,-5.1414,-5.1418,-5.1385,-5.1382,-5.1418,-5.1414,-5.1414,-5.1414,-5.1414,-5.1414,-5.141,-5.1406,-5.1401,-5.1391,-5.1375,-5.1362,-5.1317,-5.131,-5.1303,-5.1289,-5.132,-5.132,-5.132,-5.1671,-5.2879,-5.3112,-5.3658,-5.5428,-5.5693,-5.5887,-5.6441,-5.6511,-5.6503,-5.6503,-5.6503,-5.6503,-5.6503,-5.6503,-5.6503,-5.6455,-5.6446,-5.6417,-5.6375,-5.6347,-5.6347,-5.6353,-5.6341,-5.6341,-5.6353,-5.6341,-5.6574,-5.7103,-5.8743,-5.9591,-5.9757,-6.1027,-6.1648,-6.171,-6.1715,-6.0705,-5.9143,-5.9651,-5.9378,-5.8597,-5.8597,-5.9104,-5.9851,-5.9329,-5.9176,-5.93,-4.6027,-4.554,-4.5273,-4.6133,-4.6289,-4.6289,-4.6289,-4.6288,-4.6599,-4.7383,-4.8235,-4.8777,-4.8789,-4.8867,-4.8945,-4.9023,-4.9805,-5.0625,-5.1367,-5.1406,-5.1406,-5.1406,-5.1406,-5.1406,-5.1406,-5.1406,-5.1406,-5.1406,-5.1406,-5.1406,-5.1406,-5.1406,-5.1406,-5.1406,-5.1402,-5.1391,-5.1414,-5.1414,-5.1414,-5.1414,-5.1414,-5.1414,-5.1414,-5.1414,-5.1414,-5.1414,-5.1414,-5.1385,-5.1396,-5.1391,-5.1385,-5.1414,-5.1414,-5.1414,-5.1414,-5.1414,-5.1406,-5.1396,-5.138,-5.1362,-5.131,-5.1289,-5.1296,-5.1303,-5.1289,-5.132,-5.132,-5.132,-5.132,-5.1826,-5.358,-5.3892,-5.4476,-5.623,-5.6503,-5.6503,-5.6503,-5.6503,-5.6503,-5.6503,-5.6503,-5.6503,-5.6503,-5.6503,-5.6455,-5.6388,-5.6407,-5.6375,-5.6302,-5.6302,-5.629,-5.6291,-5.6226,-5.6226,-5.6291,-5.6304,-5.6356,-5.6457,-5.8888,-5.9708,-5.9161,-6.0761,-6.1576,-6.1715,-6.1603,-6.0627,-5.9104,-5.9104,-5.8597,-5.7816,-5.7816,-5.8285,-5.8987,-5.8892,-5.8906,-5.9104,-4.5255,-4.5145,-4.5266,-4.6168,-4.6285,-4.6285,-4.6285,-4.6286,-4.6366,-4.6562,-4.7343,-4.789,-4.7891,-4.8476,-4.918,-4.9844,-5.0664,-5.1211,-5.1406,-5.1406,-5.1406,-5.1406,-5.1406,-5.1406,-5.1406,-5.1406,-5.1406,-5.1406,-5.1406,-5.1406,-5.1406,-5.1406,-5.1404,-5.1389,-5.1396,-5.1391,-5.1414,-5.1414,-5.1414,-5.1414,-5.1414,-5.1414,-5.1414,-5.1414,-5.1414,-5.1414,-5.1414,-5.1385,-5.1391,-5.1382,-5.1418,-5.1414,-5.1414,-5.1414,-5.1414,-5.1414,-5.1406,-5.1396,-5.1396,-5.1336,-5.131,-5.131,-5.1296,-5.1289,-5.1281,-5.132,-5.132,-5.132,-5.132,-5.1826,-5.358,-5.3892,-5.4476,-5.623,-5.6503,-5.6503,-5.6503,-5.6503,-5.6503,-5.6437,-5.6437,-5.6427,-5.6407,-5.6407,-5.6397,-5.6325,-5.6375,-5.6364,-5.6304,-5.629,-5.629,-5.6291,-5.6291,-5.6304,-5.629,-5.6938,-5.7301,-5.7352,-5.7892,-5.8841,-6.001,-6.0449,-6.1023,-6.1666,-6.0974,-6.008,-5.9104,-5.9104,-5.8597,-5.7816,-5.7816,-5.7933,-5.8089,-5.7408,-5.7148,-5.7387,-4.494,-4.4667,-4.4787,-4.6078,-4.6312,-4.6312,-4.6312,-4.6312,-4.6432,-4.6868,-4.7302,-4.7615,-4.7615,-4.8398,-4.9258,-5.0117,-5.0937,-5.1406,-5.1406,-5.1406,-5.1406,-5.1406,-5.1406,-5.1406,-5.1406,-5.1406,-5.1406,-5.1406,-5.1406,-5.1406,-5.1406,-5.1403,-5.1391,-5.1414,-5.1385,-5.1385,-5.1414,-5.1414,-5.1414,-5.1414,-5.1414,-5.1414,-5.1414,-5.1414,-5.1414,-5.1414,-5.1414,-5.1418,-5.1382,-5.1418,-5.1414,-5.1414,-5.1414,-5.141,-5.1406,-5.1414,-5.1396,-5.138,-5.1386,-5.1362,-5.1296,-5.1296,-5.1289,-5.132,-5.132,-5.132,-5.132,-5.132,-5.132,-5.171,-5.3034,-5.3619,-5.4203,-5.51,-5.5606,-5.5879,-5.5879,-5.5879,-5.6026,-5.6359,-5.6388,-5.6378,-5.6397,-5.6375,-5.6325,-5.6302,-5.6341,-5.6329,-5.6265,-5.6253,-5.6253,-5.6291,-5.6278,-5.6253,-5.6302,-5.6769,-5.6963,-5.6986,-5.8265,-5.9153,-5.9698,-6.059,-6.1205,-6.1609,-6.0762,-5.9904,-5.9084,-5.866,-5.7963,-5.7182,-5.7226,-5.727,-5.7231,-5.678,-5.6835,-5.73,-4.4618,-4.4188,-4.4266,-4.5987,-4.63,-4.63,-4.63,-4.63,-4.6573,-4.7276,-4.7366,-4.7413,-4.7569,-4.8514,-4.9453,-5.0312,-5.1016,-5.1406,-5.1406,-5.1406,-5.1406,-5.1406,-5.1406,-5.1406,-5.1406,-5.1406,-5.1406,-5.1406,-5.1406,-5.1406,-5.1406,-5.1391,-5.1414,-5.1414,-5.1414,-5.1414,-5.1414,-5.1414,-5.1414,-5.1414,-5.1414,-5.1414,-5.1414,-5.1414,-5.1414,-5.1414,-5.1414,-5.1414,-5.141,-5.141,-5.141,-5.141,-5.141,-5.1406,-5.1396,-5.1406,-5.1347,-5.1317,-5.1369,-5.1349,-5.132,-5.132,-5.132,-5.132,-5.132,-5.132,-5.1359,-5.1476,-5.1515,-5.1826,-5.2831,-5.3611,-5.4117,-5.4108,-5.4849,-5.5364,-5.5208,-5.5325,-5.5667,-5.631,-5.6378,-5.6358,-5.6375,-5.6314,-5.629,-5.629,-5.6304,-5.6278,-5.6213,-5.6213,-5.6226,-5.6304,-5.6278,-5.6253,-5.6314,-5.6314,-5.6336,-5.6358,-5.8714,-5.9562,-5.9035,-6.0504,-6.1222,-6.1361,-6.0698,-5.9801,-5.8825,-5.8103,-5.7289,-5.6503,-5.6558,-5.6563,-5.6563,-5.6575,-5.7093,-5.7804,-4.3708,-4.379,-4.4259,-4.5987,-4.63,-4.63,-4.63,-4.63,-4.6339,-4.6456,-4.6495,-4.6772,-4.7517,-4.9058,-5.0351,-5.1172,-5.1328,-5.1406,-5.1406,-5.1406,-5.1406,-5.1406,-5.1406,-5.1406,-5.1406,-5.1406,-5.1406,-5.1406,-5.1406,-5.1406,-5.1406,-5.1391,-5.1414,-5.1414,-5.1414,-5.1414,-5.1414,-5.1414,-5.1414,-5.1414,-5.1414,-5.1414,-5.1414,-5.1414,-5.1414,-5.1414,-5.1414,-5.141,-5.1401,-5.1401,-5.1391,-5.138,-5.1396,-5.1391,-5.1419,-5.1419,-5.1369,-5.131,-5.1317,-5.1296,-5.132,-5.132,-5.132,-5.132,-5.132,-5.132,-5.1515,-5.2255,-5.2411,-5.2909,-5.445,-5.4879,-5.4947,-5.4928,-5.5657,-5.5979,-5.522,-5.5774,-5.6271,-5.6397,-5.6353,-5.6317,-5.6304,-5.6304,-5.6304,-5.6304,-5.6291,-5.6291,-5.6291,-5.6278,-5.629,-5.6302,-5.6364,-5.6375,-5.6386,-5.6407,-5.6378,-5.6388,-5.7498,-5.8373,-5.8996,-5.9256,-5.9771,-6.0481,-6.0418,-5.9489,-5.7967,-5.7869,-5.7278,-5.6491,-5.6503,-5.6509,-5.6503,-5.6497,-5.7043,-5.7791,-4.3539,-4.3656,-4.4202,-4.5928,-4.6288,-4.6292,-4.6292,-4.6296,-4.6456,-4.6963,-4.6612,-4.6612,-4.751,-4.8701,-4.9999,-5.1289,-5.1403,-5.1396,-5.1396,-5.1405,-5.1406,-5.1406,-5.1406,-5.1406,-5.1406,-5.1406,-5.1406,-5.1406,-5.1406,-5.1406,-5.1406,-5.1403,-5.1394,-5.1414,-5.1414,-5.1414,-5.1414,-5.1414,-5.1414,-5.1414,-5.1414,-5.1414,-5.1414,-5.1414,-5.1414,-5.1414,-5.1414,-5.1406,-5.1396,-5.1396,-5.1386,-5.1414,-5.138,-5.1375,-5.1362,-5.1375,-5.1356,-5.1296,-5.1296,-5.132,-5.1304,-5.1304,-5.1256,-5.1248,-5.1304,-5.1646,-5.2104,-5.2503,-5.2572,-5.2913,-5.4149,-5.4772,-5.4772,-5.3818,-5.4363,-5.4801,-5.4422,-5.4694,-5.5307,-5.6208,-5.6329,-5.6291,-5.6291,-5.6291,-5.6291,-5.6291,-5.6291,-5.6291,-5.6291,-5.629,-5.6314,-5.6364,-5.6397,-5.6417,-5.6417,-5.6388,-5.6388,-5.6407,-5.6787,-5.7429,-5.8295,-5.8771,-5.9209,-5.956,-5.91,-5.8718,-5.8406,-5.7446,-5.7141,-5.7173,-5.668,-5.6485,-5.6517,-5.651,-5.6737,-5.7081]}]]